[[{"header":{"parameterUnit":"m.s-1","parameterCategory":1,"la1":30.6,"la2":28.766,"lo1":-90.7593,"lo2":-88.6598,"dy":0.0162,"dx":0.0183,"nx":116,"ny":114,"refTime":"2023-04-11T06:00:00:Z","depth":0,"parameterNumber":2,"parameterNumberName":"U-component_of_WINDS"},"data":[0.0,0.0,0.0,0.0,0.0,0.0,0.0,0.0,0.0,0.0,0.0,0.0,0.0,0.0,0.0,0.0,0.0,0.0,0.0,0.0,0.0,0.0,0.0,0.0,0.0,0.0,0.0,0.0,0.0,0.0,0.0,0.0,0.0,0.0,0.0,0.0,0.0,0.0,0.0,0.0,0.0,0.0,0.0,0.0,0.0,0.0,0.0,0.0,0.0,0.0,0.0,0.0,0.0,0.0,0.0,0.0,0.0,0.0,0.0,0.0,0.0,0.0,0.0,0.0,0.0,0.0,0.0,0.0,0.0,0.0,0.0,0.0,0.0,0.0,0.0,0.0,0.0,0.0,0.0,0.0,0.0,0.0,0.0,0.0,0.0,0.0,0.0,0.0,0.0,0.0,0.0,0.0,0.0,0.0,0.0,0.0,0.0,0.0,0.0,0.0,0.0,0.0,0.0,0.0,0.0,0.0,0.0,0.0,0.0,0.0,0.0,0.0,0.0,0.0,0.0,0.0,0.0,0.0,0.0,0.0,0.0,0.0,0.0,0.0,0.0,0.0,0.0,0.0,0.0,0.0,0.0,0.0,0.0,0.0,0.0,0.0,0.0,0.0,0.0,0.0,0.0,0.0,0.0,0.0,0.0,0.0,0.0,0.0,0.0,0.0,0.0,0.0,0.0,0.0,0.0,0.0,0.0,0.0,0.0,0.0,0.0,0.0,0.0,0.0,0.0,0.0,0.0,0.0,0.0,0.0,0.0,0.0,0.0,0.0,0.0,0.0,0.0,0.0,0.0,0.0,0.0,0.0,0.0,0.0,0.0,0.0,0.0,0.0,0.0,0.0,0.0,0.0,0.0,0.0,0.0,0.0,0.0,0.0,0.0,0.0,0.0,0.0,0.0,0.0,0.0,0.0,0.0,0.0,0.0,0.0,0.0,0.0,0.0,0.0,0.0,0.0,0.0,0.0,0.0,0.0,0.0,0.0,0.0,0.0,0.0,0.0,0.0,0.0,0.0,0.0,0.0,0.0,0.0,0.0,0.0,0.0,0.0,0.0,0.0,0.0,0.0,0.0,0.0,0.0,0.0,0.0,0.0,0.0,0.0,0.0,0.0,0.0,0.0,0.0,0.0,0.0,0.0,0.0,0.0,0.0,0.0,0.0,0.0,0.0,0.0,0.0,0.0,0.0,0.0,0.0,0.0,0.0,0.0,0.0,0.0,0.0,0.0,0.0,0.0,0.0,0.0,0.0,0.0,0.0,0.0,0.0,0.0,0.0,0.0,0.0,0.0,0.0,0.0,0.0,0.0,0.0,0.0,0.0,0.0,0.0,0.0,0.0,0.0,0.0,0.0,0.0,0.0,0.0,0.0,0.0,0.0,0.0,0.0,0.0,0.0,0.0,0.0,0.0,0.0,0.0,0.0,0.0,0.0,0.0,0.0,0.0,0.0,0.0,0.0,0.0,0.0,0.0,0.0,0.0,0.0,0.0,0.0,0.0,0.0,0.0,0.0,0.0,0.0,0.0,0.0,0.0,0.0,0.0,0.0,0.0,0.0,0.0,0.0,0.0,0.0,0.0,0.0,0.0,0.0,0.0,0.0,0.0,0.0,0.0,0.0,0.0,0.0,0.0,0.0,0.0,0.0,0.0,0.0,0.0,0.0,0.0,0.0,0.0,0.0,0.0,0.0,0.0,0.0,0.0,0.0,0.0,0.0,0.0,0.0,0.0,0.0,0.0,0.0,0.0,0.0,0.0,0.0,0.0,0.0,0.0,0.0,0.0,0.0,0.0,0.0,0.0,0.0,0.0,0.0,0.0,0.0,0.0,0.0,0.0,0.0,0.0,0.0,0.0,0.0,0.0,0.0,0.0,0.0,0.0,0.0,0.0,0.0,0.0,0.0,0.0,0.0,0.0,0.0,0.0,0.0,0.0,0.0,0.0,0.0,0.0,0.0,0.0,0.0,0.0,0.0,0.0,0.0,0.0,0.0,0.0,0.0,0.0,0.0,0.0,0.0,0.0,0.0,0.0,0.0,0.0,0.0,0.0,0.0,0.0,0.0,0.0,0.0,0.0,0.0,0.0,0.0,0.0,0.0,0.0,0.0,0.0,0.0,0.0,0.0,0.0,0.0,0.0,0.0,0.0,0.0,0.0,0.0,0.0,0.0,0.0,0.0,0.0,0.0,0.0,0.0,0.0,0.0,0.0,0.0,0.0,0.0,0.0,0.0,0.0,0.0,0.0,0.0,0.0,0.0,0.0,0.0,0.0,0.0,0.0,0.0,0.0,0.0,0.0,0.0,0.0,0.0,0.0,0.0,0.0,0.0,0.0,0.0,0.0,0.0,0.0,0.0,0.0,0.0,0.0,0.0,0.0,0.0,0.0,0.0,0.0,0.0,0.0,0.0,0.0,0.0,0.0,0.0,0.0,0.0,0.0,0.0,0.0,0.0,0.0,0.0,0.0,0.0,0.0,0.0,0.0,0.0,0.0,0.0,0.0,0.0,0.0,0.0,0.0,0.0,0.0,0.0,0.0,0.0,0.0,0.0,0.0,0.0,0.0,0.0,0.0,0.0,0.0,0.0,0.0,0.0,0.0,0.0,0.0,0.0,0.0,0.0,0.0,0.0,0.0,0.0,0.0,0.0,0.0,0.0,0.0,0.0,0.0,0.0,0.0,0.0,0.0,0.0,0.0,0.0,0.0,0.0,0.0,0.0,0.0,0.0,0.0,0.0,0.0,0.0,0.0,0.0,0.0,0.0,0.0,0.0,0.0,0.0,0.0,0.0,0.0,0.0,0.0,0.0,0.0,0.0,0.0,0.0,0.0,0.0,0.0,0.0,0.0,0.0,0.0,0.0,0.0,0.0,0.0,0.0,0.0,0.0,0.0,0.0,0.0,0.0,0.0,0.0,0.0,0.0,0.0,0.0,0.0,0.0,0.0,0.0,0.0,0.0,0.0,0.0,0.0,0.0,0.0,0.0,0.0,0.0,0.0,0.0,0.0,0.0,0.0,0.0,0.0,0.0,0.0,0.0,0.0,0.0,0.0,0.0,0.0,0.0,0.0,0.0,0.0,0.0,0.0,0.0,0.0,0.0,0.0,0.0,0.0,0.0,0.0,0.0,0.0,0.0,0.0,0.0,0.0,0.0,0.0,0.0,0.0,0.0,0.0,0.0,0.0,0.0,0.0,0.0,0.0,0.0,0.0,0.0,0.0,0.0,0.0,0.0,0.0,0.0,0.0,0.0,0.0,0.0,0.0,0.0,0.0,0.0,0.0,0.0,0.0,0.0,0.0,0.0,0.0,0.0,0.0,0.0,0.0,0.0,0.0,0.0,0.0,0.0,0.0,0.0,0.0,0.0,0.0,0.0,0.0,0.0,0.0,0.0,0.0,0.0,0.0,0.0,0.0,0.0,0.0,0.0,0.0,0.0,0.0,0.0,0.0,0.0,0.0,0.0,0.0,0.0,0.0,0.0,0.0,0.0,0.0,0.0,0.0,0.0,0.0,0.0,0.0,0.0,0.0,0.0,0.0,0.0,0.0,0.0,0.0,0.0,0.0,0.0,0.0,0.0,0.0,0.0,0.0,0.0,0.0,0.0,0.0,0.0,0.0,0.0,0.0,0.0,0.0,0.0,0.0,0.0,0.0,0.0,0.0,0.0,0.0,0.0,0.0,0.0,0.0,0.0,0.0,0.0,0.0,0.0,0.0,0.0,0.0,0.0,0.0,0.0,0.0,0.0,0.0,0.0,0.0,0.0,0.0,0.0,0.0,0.0,0.0,0.0,0.0,0.0,0.0,0.0,0.0,0.0,0.0,0.0,0.0,0.0,0.0,0.0,0.0,0.0,0.0,0.0,0.0,0.0,0.0,0.0,0.0,0.0,0.0,0.0,0.0,0.0,0.0,0.0,0.0,0.0,0.0,0.0,0.0,0.0,0.0,0.0,0.0,0.0,0.0,0.0,0.0,0.0,0.0,0.0,0.0,0.0,0.0,0.0,0.0,0.0,0.0,0.0,0.0,0.0,0.0,0.0,0.0,0.0,0.0,0.0,0.0,0.0,0.0,0.0,0.0,0.0,0.0,0.0,0.0,0.0,0.0,0.0,0.0,0.0,0.0,0.0,0.0,0.0,0.0,0.0,0.0,0.0,0.0,0.0,0.0,0.0,0.0,0.0,0.0,0.0,0.0,0.0,0.0,0.0,0.0,0.0,0.0,0.0,0.0,0.0,0.0,0.0,0.0,0.0,0.0,0.0,0.0,0.0,0.0,0.0,0.0,0.0,0.0,0.0,0.0,0.0,0.0,0.0,0.0,0.0,0.0,0.0,0.0,0.0,0.0,0.0,0.0,0.0,0.0,0.0,0.0,0.0,0.0,0.0,0.0,0.0,0.0,0.0,0.0,0.0,0.0,0.0,0.0,0.0,0.0,0.0,0.0,0.0,0.0,0.0,0.0,0.0,0.0,0.0,0.0,0.0,0.0,0.0,0.0,0.0,0.0,0.0,0.0,0.0,0.0,0.0,0.0,0.0,0.0,0.0,0.0,0.0,0.0,0.0,0.0,0.0,0.0,0.0,0.0,0.0,0.0,0.0,0.0,0.0,0.0,0.0,0.0,0.0,0.0,0.0,0.0,0.0,0.0,0.0,0.0,0.0,0.0,0.0,0.0,0.0,0.0,0.0,0.0,0.0,0.0,0.0,0.0,0.0,0.0,0.0,0.0,0.0,0.0,0.0,0.0,0.0,0.0,0.0,0.0,0.0,0.0,0.0,0.0,0.0,0.0,0.0,0.0,0.0,0.0,0.0,0.0,0.0,0.0,0.0,0.0,0.0,0.0,0.0,0.0,0.0,0.0,0.0,0.0,0.0,0.0,0.0,0.0,0.0,0.0,0.0,0.0,0.0,0.0,0.0,0.0,0.0,0.0,0.0,0.0,0.0,0.0,0.0,0.0,0.0,0.0,0.0,0.0,0.0,0.0,0.0,0.0,0.0,0.0,0.0,0.0,0.0,0.0,0.0,0.0,0.0,0.0,0.0,0.0,0.0,0.0,0.0,0.0,0.0,0.0,0.0,0.0,0.0,0.0,0.0,0.0,0.0,0.0,0.0,0.0,0.0,0.0,0.0,0.0,0.0,0.0,0.0,0.0,0.0,0.0,0.0,0.0,0.0,0.0,0.0,0.0,0.0,0.0,0.0,0.0,0.0,0.0,0.0,0.0,0.0,0.0,0.0,0.0,0.0,0.0,0.0,0.0,0.0,0.0,0.0,0.0,0.0,0.0,0.0,0.0,0.0,0.0,0.0,0.0,0.0,0.0,0.0,0.0,0.0,0.0,0.0,0.0,0.0,0.0,0.0,0.0,0.0,0.0,0.0,0.0,0.0,0.0,0.0,0.0,0.0,0.0,0.0,0.0,0.0,0.0,0.0,0.0,0.0,0.0,0.0,0.0,0.0,0.0,0.0,0.0,0.0,0.0,0.0,0.0,0.0,0.0,0.0,0.0,0.0,0.0,0.0,0.0,0.0,0.0,0.0,0.0,0.0,0.0,0.0,0.0,0.0,0.0,0.0,0.0,0.0,0.0,0.0,0.0,0.0,0.0,0.0,0.0,0.0,0.0,0.0,0.0,0.0,0.0,0.0,0.0,0.0,0.0,0.0,0.0,0.0,0.0,0.0,0.0,0.0,0.0,0.0,0.0,0.0,0.0,0.0,0.0,0.0,0.0,0.0,0.0,0.0,0.0,0.0,0.0,0.0,0.0,0.0,0.0,0.0,0.0,0.0,0.0,0.0,0.0,0.0,0.0,0.0,0.0,0.0,0.0,0.0,0.0,0.0,0.0,0.0,0.0,0.0,0.0,0.0,0.0,0.0,0.0,0.0,0.0,0.0,0.0,0.0,0.0,0.0,0.0,0.0,0.0,0.0,0.0,0.0,0.0,0.0,0.0,0.0,0.0,0.0,0.0,0.0,0.0,0.0,0.0,0.0,0.0,0.0,0.0,0.0,0.0,0.0,0.0,0.0,0.0,0.0,0.0,0.0,0.0,0.0,0.0,0.0,0.0,0.0,0.0,0.0,0.0,0.0,0.0,0.0,0.0,0.0,0.0,0.0,0.0,5.1394,0.0,0.0,0.0,0.0,0.0,0.0,0.0,0.0,0.0,0.0,0.0,0.0,0.0,0.0,0.0,0.0,0.0,0.0,0.0,0.0,0.0,0.0,0.0,0.0,0.0,0.0,0.0,0.0,0.0,0.0,0.0,0.0,0.0,0.0,0.0,5.1348,5.1384,5.1394,5.1394,5.1394,5.1405,5.1398,5.1398,5.1391,5.1394,0.0,0.0,0.0,0.0,0.0,0.0,0.0,0.0,0.0,0.0,0.0,0.0,0.0,0.0,0.0,0.0,0.0,0.0,0.0,0.0,0.0,0.0,0.0,0.0,0.0,0.0,0.0,0.0,0.0,0.0,0.0,0.0,0.0,0.0,0.0,0.0,0.0,0.0,0.0,0.0,0.0,0.0,0.0,0.0,0.0,0.0,0.0,0.0,0.0,0.0,0.0,0.0,0.0,0.0,0.0,0.0,0.0,0.0,0.0,0.0,0.0,0.0,0.0,0.0,0.0,0.0,0.0,0.0,0.0,0.0,0.0,5.1394,0.0,0.0,0.0,0.0,0.0,0.0,0.0,0.0,0.0,0.0,0.0,0.0,0.0,0.0,0.0,0.0,0.0,0.0,0.0,0.0,0.0,5.1406,5.1406,5.1406,5.1406,5.1406,5.1406,5.1406,0.0,0.0,0.0,0.0,0.0,5.1406,5.1406,5.1396,5.1405,5.1405,5.1405,5.1396,5.1406,5.1406,5.1403,5.1405,5.1405,0.0,0.0,0.0,0.0,0.0,0.0,0.0,0.0,0.0,0.0,0.0,0.0,0.0,0.0,0.0,0.0,0.0,0.0,0.0,0.0,0.0,0.0,0.0,0.0,0.0,0.0,0.0,0.0,0.0,0.0,0.0,0.0,0.0,0.0,0.0,0.0,0.0,0.0,0.0,0.0,0.0,0.0,0.0,0.0,0.0,0.0,0.0,0.0,0.0,0.0,0.0,0.0,0.0,0.0,0.0,0.0,0.0,0.0,0.0,0.0,0.0,0.0,0.0,5.1402,5.1394,5.1398,5.1398,5.1398,5.1398,5.1386,5.1386,5.1394,5.1367,0.0,0.0,0.0,0.0,0.0,0.0,0.0,0.0,0.0,0.0,0.0,0.0,0.0,0.0,0.0,0.0,0.0,0.0,0.0,5.1406,5.1406,5.1406,5.1406,5.1406,5.1406,5.1406,5.1406,0.0,5.1406,5.1406,5.1406,5.1406,5.1406,5.1406,5.1406,5.1406,5.1406,5.1406,5.1406,5.1406,5.1406,5.1406,5.1406,5.1406,5.1406,0.0,0.0,0.0,0.0,0.0,0.0,0.0,0.0,0.0,0.0,0.0,0.0,0.0,0.0,0.0,0.0,0.0,0.0,0.0,0.0,0.0,0.0,0.0,0.0,0.0,0.0,0.0,0.0,0.0,0.0,0.0,0.0,0.0,0.0,0.0,0.0,0.0,0.0,0.0,0.0,0.0,5.1304,5.1386,0.0,0.0,0.0,0.0,0.0,0.0,0.0,0.0,0.0,0.0,0.0,0.0,0.0,5.1398,5.1403,5.1396,5.1391,5.1398,5.1402,5.1402,5.1396,5.1396,5.1396,5.1394,5.1277,0.0,5.139,5.1265,0.0,0.0,0.0,0.0,0.0,0.0,0.0,0.0,0.0,0.0,0.0,0.0,0.0,0.0,0.0,0.0,0.0,0.0,0.0,0.0,0.0,5.1406,5.1406,5.1406,5.1406,5.1406,5.1406,5.1406,5.1406,5.1406,5.1406,5.1406,5.1406,5.1406,5.1406,5.1406,5.1406,5.1406,5.1406,5.1406,5.1406,5.1406,5.1406,5.1406,5.1406,5.1406,0.0,0.0,0.0,0.0,0.0,0.0,0.0,0.0,0.0,0.0,0.0,0.0,0.0,0.0,0.0,0.0,0.0,0.0,0.0,0.0,0.0,0.0,0.0,0.0,0.0,0.0,0.0,0.0,0.0,0.0,0.0,0.0,0.0,0.0,0.0,0.0,0.0,0.0,0.0,5.1318,5.1365,5.1398,5.1367,5.1338,0.0,0.0,0.0,0.0,0.0,0.0,0.0,0.0,0.0,5.1406,5.1406,5.1406,5.1405,5.1402,5.1402,5.1404,5.1402,5.1396,5.1405,5.1367,5.1327,5.1327,5.124,5.1211,5.1219,5.1133,5.1084,5.1084,0.0,0.0,0.0,0.0,5.1027,5.0951,0.0,0.0,0.0,0.0,0.0,0.0,0.0,0.0,0.0,0.0,0.0,0.0,5.1406,5.1406,5.1406,5.1406,5.1406,5.1406,5.1406,5.1406,5.1406,5.1406,5.1406,5.1406,5.1406,5.1406,5.1406,5.1406,5.1406,5.1406,5.1406,5.1406,5.1406,5.1406,5.1406,5.1406,5.1406,5.1406,5.1406,5.1406,0.0,0.0,0.0,0.0,0.0,0.0,0.0,0.0,0.0,0.0,0.0,0.0,0.0,0.0,0.0,0.0,0.0,0.0,0.0,0.0,0.0,0.0,0.0,0.0,0.0,0.0,0.0,0.0,0.0,0.0,0.0,0.0,0.0,0.0,0.0,0.0,0.0,5.1367,5.1394,5.1394,5.1396,5.1405,0.0,0.0,0.0,0.0,0.0,0.0,5.1398,5.1408,5.1402,5.1391,5.1408,5.1398,5.1406,5.1406,5.1382,5.1375,5.1375,5.1367,5.1352,5.1295,5.1271,5.1254,5.1184,5.1101,5.1053,5.1005,5.0959,5.0979,5.0979,5.0953,5.0926,5.0966,5.0923,5.0858,0.0,0.0,0.0,0.0,0.0,0.0,0.0,0.0,0.0,0.0,0.0,5.1406,5.1406,5.1406,5.1406,5.1406,5.1406,5.1406,5.1406,5.1406,5.1406,5.1406,5.1406,5.1406,5.1406,5.1406,5.1406,5.1406,5.1406,5.1406,5.1406,5.1406,5.1406,5.1406,5.1406,5.1406,5.1406,5.1406,5.1406,5.1406,5.1406,0.0,0.0,0.0,0.0,0.0,0.0,0.0,0.0,0.0,0.0,0.0,0.0,0.0,0.0,0.0,0.0,0.0,0.0,0.0,0.0,0.0,0.0,0.0,0.0,0.0,0.0,0.0,0.0,0.0,0.0,0.0,0.0,0.0,0.0,0.0,0.0,0.0,0.0,5.1394,5.1394,0.0,0.0,0.0,0.0,5.1384,5.1386,5.1396,5.1402,5.1402,5.1394,5.1406,5.1406,5.1406,5.1406,5.1406,5.1372,5.13,5.13,5.1275,5.1211,5.1215,5.1217,5.1196,5.107,5.0982,5.0908,5.0921,5.0913,5.0902,5.0902,5.0825,5.0721,5.0858,5.0808,5.0702,0.0,0.0,0.0,0.0,0.0,0.0,0.0,0.0,5.1406,5.1406,5.1406,5.1406,5.1406,5.1406,5.1406,5.1406,5.1406,5.1406,5.1406,5.1406,5.1406,5.1406,5.1406,5.1406,5.1406,5.1406,5.1406,5.1406,5.1406,5.1406,5.1406,5.1406,5.1406,5.1406,5.1406,5.1406,5.1406,5.1406,5.1406,5.1406,5.1406,5.1406,0.0,0.0,0.0,0.0,0.0,0.0,0.0,0.0,0.0,0.0,0.0,0.0,0.0,0.0,0.0,0.0,0.0,0.0,0.0,0.0,0.0,0.0,0.0,0.0,0.0,0.0,0.0,0.0,0.0,0.0,0.0,0.0,0.0,0.0,0.0,0.0,0.0,5.1394,5.1394,0.0,5.1391,5.1402,5.1402,5.1396,5.1391,5.1391,5.1402,5.1402,5.1404,5.1406,5.1406,5.1385,5.1337,5.1337,5.1307,5.1228,5.1242,5.1218,5.1199,5.116,5.1145,5.1138,5.099,5.0902,5.085,5.0844,5.0808,5.0776,5.0776,5.074,5.0721,5.0758,5.074,5.0702,0.0,0.0,0.0,0.0,0.0,0.0,0.0,0.0,5.1406,5.1406,5.1406,5.1406,5.1406,5.1406,5.1406,5.1406,5.1406,5.1406,5.1406,5.1406,5.1406,5.1406,5.1406,5.1406,5.1406,5.1406,5.1406,5.1406,5.1406,5.1406,5.1406,5.1406,5.1406,5.1406,5.1406,5.1406,5.1406,5.1406,5.1406,5.1406,5.1406,5.1406,5.1406,0.0,0.0,0.0,0.0,0.0,0.0,0.0,0.0,0.0,0.0,0.0,0.0,0.0,0.0,0.0,0.0,0.0,0.0,0.0,0.0,0.0,0.0,0.0,0.0,0.0,0.0,0.0,0.0,0.0,0.0,0.0,0.0,0.0,0.0,0.0,5.1394,5.1394,5.1394,5.1398,5.1402,5.1398,5.1394,5.1394,5.1405,5.1398,5.1406,5.1406,5.1406,5.1406,5.1382,5.1334,5.1293,5.1273,5.1222,5.118,5.1184,5.1138,5.1099,5.1061,5.1041,5.1041,5.0945,5.0858,5.0793,5.0793,5.0758,5.0702,5.0702,5.0702,5.0702,5.0702,5.051,5.0221,0.0,0.0,0.0,0.0,0.0,0.0,0.0,5.1406,5.1406,5.1406,5.1406,5.1406,5.1406,5.1406,5.1406,5.1406,5.1406,5.1406,5.1406,5.1406,5.1406,5.1406,5.1406,5.1406,5.1406,5.1406,5.1406,5.1406,5.1406,5.1406,5.1406,5.1406,5.1406,5.1406,5.1406,5.1406,5.1406,5.1406,5.1406,5.1406,5.1406,5.1406,5.1406,0.0,0.0,0.0,0.0,0.0,0.0,0.0,0.0,0.0,0.0,0.0,0.0,0.0,0.0,0.0,0.0,0.0,0.0,0.0,0.0,0.0,0.0,0.0,0.0,0.0,0.0,0.0,0.0,0.0,0.0,0.0,0.0,0.0,5.1406,5.1396,5.1394,5.1394,5.1394,5.1402,5.1396,5.1405,5.1394,5.1394,5.1402,5.1406,5.1406,5.1406,5.1406,5.1406,5.1327,5.1308,5.1293,5.1235,5.1157,5.1099,5.1099,5.1041,5.0906,5.0906,5.0906,5.0906,5.0906,5.0858,5.0793,5.0793,5.0758,5.0702,5.0702,5.0702,5.0702,5.0664,5.0106,4.924,0.0,0.0,0.0,0.0,0.0,0.0,5.1406,5.1406,5.1406,5.1406,5.1406,5.1406,5.1406,5.1406,5.1406,5.1406,5.1406,5.1406,5.1406,5.1406,5.1406,5.1406,5.1406,5.1406,5.1406,5.1406,5.1406,5.1406,5.1406,5.1406,5.1406,5.1406,5.1406,5.1406,5.1406,5.1406,5.1406,5.1406,5.1406,5.1406,5.1406,5.1406,5.1406,0.0,0.0,0.0,0.0,0.0,0.0,0.0,0.0,0.0,0.0,0.0,0.0,0.0,0.0,0.0,0.0,0.0,0.0,0.0,0.0,0.0,0.0,0.0,0.0,0.0,0.0,0.0,0.0,0.0,0.0,0.0,5.1363,5.1402,5.1396,5.1402,5.1398,5.1391,5.1402,5.1398,5.1402,5.1398,5.1404,5.1404,5.1406,5.1406,5.1406,5.1355,5.1342,5.1342,5.1258,5.1202,5.1157,5.1138,5.108,5.0964,5.0964,5.0945,5.0906,5.0906,5.0906,5.0906,5.0906,5.0858,5.0793,5.0793,5.0758,5.0702,5.0702,5.0702,5.0606,4.999,4.9202,4.8336,0.0,0.0,0.0,0.0,0.0,0.0,5.1406,5.1406,5.1406,5.1406,5.1406,5.1406,5.1406,5.1406,5.1406,5.1406,5.1406,5.1406,5.1406,5.1406,5.1406,5.1406,5.1406,5.1406,5.1406,5.1406,5.1406,5.1406,5.1406,5.1406,5.1406,5.1406,5.1406,5.1406,5.1406,5.1406,5.1406,5.1406,5.1406,5.1406,5.1406,5.1406,5.1406,5.1406,5.1406,5.1406,5.1406,5.1406,5.1406,5.1406,0.0,0.0,0.0,0.0,0.0,0.0,0.0,0.0,0.0,0.0,0.0,0.0,0.0,0.0,0.0,0.0,0.0,0.0,0.0,0.0,0.0,0.0,0.0,0.0,5.1296,5.1367,5.1363,5.1375,5.1398,5.1408,5.1394,5.1396,5.1396,5.1404,5.1406,5.1406,5.1406,5.1406,5.1406,5.1337,5.1293,5.1293,5.1212,5.1134,5.1099,5.1041,5.0983,5.0906,5.0906,5.0906,5.0906,5.0906,5.0906,5.0906,5.0909,5.0861,5.0793,5.0775,5.074,0.0,0.0,0.0,0.0,0.0,4.8029,4.749,0.0,0.0,0.0,0.0,0.0,0.0,5.1406,5.1406,5.1406,5.1406,5.1406,5.1406,5.1406,5.1406,5.1406,5.1406,5.1406,5.1406,5.1406,5.1406,5.1406,5.1406,5.1406,5.1406,5.1406,5.1406,5.1406,5.1406,5.1406,5.1406,5.1406,5.1406,5.1406,5.1406,5.1406,5.1406,5.1406,5.1406,5.1406,5.1406,5.1406,5.1406,5.1406,5.1406,5.1406,5.1406,5.1406,5.1406,5.1406,5.1406,0.0,0.0,0.0,0.0,0.0,0.0,0.0,0.0,0.0,0.0,0.0,0.0,0.0,0.0,0.0,0.0,0.0,0.0,0.0,0.0,0.0,0.0,0.0,0.0,5.122,5.1307,5.1301,5.1355,5.1394,5.1402,5.1402,5.1406,5.1406,5.1406,5.1406,5.1406,5.1406,5.1406,5.1406,0.0,0.0,0.0,0.0,5.108,5.108,5.0964,5.0964,5.1061,5.1061,5.1099,5.1196,5.1196,5.1196,5.1196,5.1186,5.1095,5.0945,5.0874,5.0721,5.0548,5.0548,5.001,4.9067,4.749,4.6836,4.6644,0.0,0.0,0.0,0.0,0.0,0.0,5.1406,5.1406,5.1406,5.1406,5.1406,5.1406,5.1406,5.1406,5.1406,5.1406,5.1406,5.1406,5.1406,5.1406,5.1406,5.1406,5.1406,5.1406,5.1406,5.1406,5.1406,5.1406,5.1406,5.1406,5.1406,5.1406,5.1406,5.1406,5.1406,5.1406,5.1406,5.1406,5.1406,5.1406,5.1406,5.1406,5.1406,5.1406,5.1406,5.1406,5.1406,5.1406,5.1406,5.1406,5.1406,5.1406,5.1406,5.1406,0.0,0.0,0.0,0.0,0.0,0.0,0.0,0.0,0.0,0.0,0.0,0.0,0.0,0.0,0.0,0.0,0.0,0.0,0.0,5.1101,5.1212,5.1295,5.1296,5.1355,5.1405,5.1404,5.1406,5.1406,5.1406,5.1406,5.1406,5.1406,5.1406,5.1406,5.1406,5.1297,5.1225,5.1231,5.1041,5.0945,5.0945,5.0925,5.1254,5.195,0.0,0.0,5.2995,5.2995,5.2995,5.2995,5.2945,5.2522,5.1848,5.1779,5.0933,4.9644,4.9644,4.9125,4.824,4.7259,4.6451,4.5817,0.0,0.0,0.0,0.0,0.0,0.0,5.1406,5.1406,5.1406,5.1406,5.1406,5.1406,5.1406,5.1406,5.1406,5.1406,5.1406,5.1406,5.1406,5.1406,5.1406,5.1406,5.1406,5.1406,5.1406,5.1406,5.1406,5.1406,5.1406,5.1406,5.1406,5.1406,5.1406,5.1406,5.1406,5.1406,5.1406,5.1406,5.1406,5.1406,5.1406,5.1406,5.1406,5.1406,5.1406,5.1406,5.1406,5.1406,5.1406,5.1406,5.1406,5.1406,5.1406,5.1406,5.1406,0.0,0.0,0.0,0.0,0.0,0.0,0.0,0.0,0.0,0.0,0.0,0.0,0.0,0.0,5.0925,5.0945,0.0,5.1003,5.1003,5.1138,5.1253,5.125,5.134,5.1402,5.1406,5.1406,5.1406,5.1406,5.1406,5.1406,5.1406,5.1406,5.1406,5.1406,5.1279,5.119,5.1212,5.1428,5.1544,5.1544,5.1989,5.2414,5.284,5.284,5.3072,5.3498,5.3498,5.3498,5.3498,5.3428,5.3123,5.27,5.2627,5.1838,5.0606,5.0202,4.9009,4.7413,4.6567,4.597,4.5586,0.0,0.0,0.0,0.0,0.0,0.0,0.0,5.1406,5.1406,5.1406,5.1406,5.1406,5.1406,5.1406,5.1406,5.1406,5.1406,5.1406,5.1406,5.1406,5.1406,5.1406,5.1406,5.1406,5.1406,5.1406,5.1406,5.1406,5.1406,5.1406,5.1406,5.1406,5.1406,5.1406,5.1406,5.1406,5.1406,5.1406,5.1406,5.1406,5.1406,5.1406,5.1406,5.1406,5.1406,5.1406,5.1406,5.1406,5.1406,5.1406,5.1406,5.1406,5.1406,5.1406,5.1406,5.1387,5.1387,0.0,0.0,0.0,0.0,0.0,0.0,0.0,0.0,0.0,5.0906,5.0906,5.0906,5.0906,5.0906,5.0906,5.0906,5.0906,5.1061,5.119,5.1206,5.1308,5.1387,5.1406,5.1406,5.1406,5.1406,5.1406,5.1406,5.1406,5.1406,5.1406,5.1406,5.143,5.1463,5.1447,5.2105,5.2453,5.2453,5.3149,5.3575,5.3749,5.3749,5.3826,5.3981,5.3981,5.3981,5.3962,5.3756,5.3607,5.3513,5.3321,5.2702,5.1856,5.1183,4.9471,4.7259,4.622,4.574,4.5586,0.0,0.0,0.0,0.0,0.0,0.0,0.0,0.0,5.1406,5.1406,5.1406,5.1406,5.1406,5.1406,5.1406,5.1406,5.1406,5.1406,5.1406,5.1406,5.1406,5.1406,5.1406,5.1406,5.1406,5.1406,5.1406,5.1406,5.1406,5.1406,5.1406,5.1406,5.1406,5.1406,5.1406,5.1406,5.1406,5.1406,5.1406,5.1406,5.1406,5.1406,5.1406,5.1406,5.1406,5.1406,5.1406,5.1406,5.1406,5.1406,5.1406,5.1406,5.1406,5.1406,5.1387,5.1328,5.1308,5.1308,5.123,5.1228,5.116,5.0959,5.1003,5.1061,0.0,0.0,5.0906,5.0906,5.0906,5.0906,5.0906,5.0906,5.0906,5.0906,5.1022,5.1132,5.1187,5.1269,5.1328,5.1387,5.1406,5.1406,5.1406,5.1406,5.1406,5.1406,5.1406,5.1406,5.1406,5.201,5.2347,5.2356,5.2995,5.3343,5.3343,5.344,5.3884,5.4658,5.4658,5.5026,5.5722,5.5722,5.5722,5.5683,5.4896,5.4476,5.4323,5.3591,5.2743,5.1895,5.1798,5.0683,4.8933,4.7336,4.6259,4.5586,0.0,0.0,0.0,0.0,0.0,0.0,0.0,0.0,0.0,5.1406,5.1406,5.1406,5.1406,5.1406,5.1406,5.1406,5.1406,5.1406,5.1406,5.1406,5.1406,5.1406,5.1406,5.1406,5.1406,5.1406,5.1406,5.1406,5.1406,5.1406,5.1406,5.1406,5.1406,5.1406,5.1406,5.1406,5.1406,5.1406,5.1406,5.1406,5.1406,5.1406,5.1406,5.1406,5.1406,5.1406,5.1406,5.1406,0.0,5.1406,5.1406,5.1406,5.1406,5.1367,5.1344,5.1316,5.1278,5.1239,5.1219,5.118,5.1111,5.103,5.0992,5.0983,5.0925,5.0906,5.0906,5.0906,5.0906,5.0906,5.0906,5.0906,5.0906,0.0,5.1022,5.1111,5.1191,5.1258,5.1328,5.1387,5.1406,5.1406,5.1406,5.1406,5.1406,5.1406,5.1875,5.2168,5.2168,5.288,5.3303,5.3268,5.3942,5.4291,5.4252,5.4716,5.5142,5.5509,5.5509,5.5664,5.6012,5.6012,5.6012,5.5993,5.5575,5.5364,5.5287,5.4861,5.4185,5.3414,5.3414,5.2375,5.0644,4.8971,4.7798,4.7048,0.0,0.0,0.0,0.0,0.0,0.0,0.0,0.0,0.0,0.0,5.1387,5.1406,5.1406,5.1406,5.1406,5.1406,5.1406,5.1406,5.1406,5.1406,5.1406,5.1406,5.1406,5.1406,5.1406,5.1406,5.1406,5.1406,5.1406,5.1406,5.1406,5.1406,5.1406,5.1406,5.1406,5.1406,5.1406,5.1406,5.1406,5.1406,5.1406,5.1406,5.1406,5.1406,5.1406,5.1406,5.1406,5.1406,5.1406,5.1406,5.1387,5.1367,5.1367,5.134,5.1277,5.125,5.1177,5.1119,5.1119,5.1119,5.1087,5.105,5.1006,5.0964,5.0925,5.0906,5.0906,5.0906,5.0906,5.0906,5.0906,5.0906,5.0906,5.0906,5.0983,5.108,5.1157,5.1239,5.1308,5.1367,5.1387,5.1406,5.1406,5.1406,5.1504,5.1738,5.2344,5.2793,5.3047,5.3828,5.4248,5.4186,5.4909,5.5258,5.5219,5.5799,5.5954,5.5702,5.5702,5.5567,5.5316,5.5316,5.5451,5.5664,5.5576,5.5692,5.5885,5.5745,5.5357,5.4818,5.4818,5.3914,5.2472,5.1241,4.9817,4.8413,0.0,0.0,0.0,0.0,0.0,0.0,0.0,0.0,0.0,0.0,0.0,0.0,0.0,5.1406,5.1406,5.1406,5.1406,5.1406,5.1406,5.1406,5.1406,5.1406,5.1406,5.1406,5.1406,5.1406,5.1406,5.1406,5.1406,5.1406,5.1406,5.1406,5.1406,5.1406,5.1406,5.1406,5.1406,5.1406,5.1406,5.1406,5.1406,5.1406,5.1406,5.1406,5.1406,5.1406,5.1406,5.1406,5.1406,5.1406,5.1367,5.1308,5.1308,5.1264,0.0,5.1119,5.1022,5.0925,5.0925,5.1003,5.1061,5.0941,5.0999,5.1061,5.0945,5.0906,5.0906,5.0906,5.0906,5.0906,5.0906,5.0906,5.0906,5.0906,5.0906,5.0964,5.108,5.1161,5.123,5.1308,5.1367,5.1406,0.0,5.1406,5.1758,5.2598,5.2695,5.3066,5.3926,5.4726,5.5156,5.5156,5.5866,5.6263,5.6244,5.6283,5.5818,5.4926,5.4926,5.4462,5.3575,5.3575,5.4039,5.4832,5.4707,5.5133,5.5885,5.5745,5.5684,5.5665,5.5665,5.5145,5.4414,5.4357,5.2222,4.924,0.0,0.0,0.0,0.0,0.0,0.0,0.0,0.0,0.0,0.0,0.0,0.0,0.0,0.0,0.0,0.0,5.1406,5.1406,5.1406,5.1406,5.1406,5.1406,5.1406,5.1406,5.1406,5.1406,5.1406,5.1406,5.1406,5.1406,5.1406,5.1406,5.1406,5.1406,5.1406,5.1406,5.1406,5.1406,5.1406,5.1406,5.1406,5.1406,5.1406,5.1406,5.1406,5.1406,0.0,5.1406,5.1387,5.1348,5.1323,5.1277,5.1238,5.1179,5.1119,5.1003,5.0945,5.0906,5.0906,5.0945,5.0964,5.0925,5.0945,5.0964,5.0925,5.0906,5.0906,5.0906,5.0906,5.0906,5.0906,5.0906,5.0906,5.0906,5.0906,5.0964,5.108,5.1153,5.1222,5.1288,5.1367,0.0,0.0,0.0,0.0,5.2637,5.3242,5.3945,5.4824,5.5664,5.584,5.5215,5.5443,5.5264,5.4572,5.4572,5.4416,5.4105,5.411,5.3923,5.3633,5.3591,5.3735,5.4056,5.3831,5.3984,5.4396,5.4767,5.4958,5.5093,5.5615,5.5653,5.5363,5.4822,5.3962,5.2825,0.0,0.0,0.0,0.0,0.0,0.0,0.0,0.0,0.0,0.0,0.0,0.0,0.0,0.0,0.0,0.0,0.0,5.1406,5.1406,5.1406,5.1406,5.1406,5.1406,5.1406,5.1406,5.1406,5.1406,5.1406,5.1406,5.1406,5.1406,5.1406,5.1406,5.1406,5.1406,5.1406,5.1406,5.1406,5.1406,5.1406,5.1406,5.1406,5.1406,5.1406,5.1406,0.0,5.1406,5.1406,5.1386,5.1327,5.1278,5.1254,5.1196,5.1099,5.1022,5.0945,5.0906,5.0906,5.0906,5.0906,5.0906,5.0906,5.0906,5.0906,5.0906,5.0906,5.0906,5.0906,5.0906,5.0906,5.0906,5.0906,5.0906,5.0906,5.0906,5.0945,5.1022,5.1138,5.1224,5.1258,5.1344,5.1406,0.0,0.0,0.0,5.3086,5.3398,5.4043,5.5234,5.5547,5.539,5.4785,5.4759,5.4454,5.3811,5.3811,5.3635,5.3298,5.2969,5.2803,5.2816,5.2758,5.2938,5.3266,5.3063,5.3214,5.3635,5.4017,5.4235,5.4371,5.4874,5.5262,5.5475,5.4967,5.4832,5.4654,0.0,0.0,0.0,0.0,0.0,0.0,0.0,0.0,0.0,0.0,0.0,0.0,0.0,0.0,0.0,0.0,0.0,0.0,5.1406,5.1406,5.1406,5.1406,5.1406,5.1406,5.1406,5.1406,5.1406,5.1406,5.1406,5.1406,5.1406,5.1406,5.1406,5.1406,5.1406,5.1406,5.1406,5.1406,5.1406,5.1406,5.1406,5.1406,5.1406,5.1406,5.1406,5.1406,5.1406,5.1406,5.1381,5.1314,5.1254,5.1177,5.1119,5.1003,5.0906,5.0906,5.0906,5.0906,5.0906,5.0906,5.0906,5.0906,5.0906,5.0906,5.0906,5.0906,5.0906,5.0906,5.0906,5.0906,0.0,0.0,5.0906,5.0906,5.0906,5.0906,5.0906,5.108,5.1197,0.0,0.0,0.0,0.0,0.0,0.0,5.3808,0.0,5.3437,5.5137,5.4453,5.3984,5.3926,5.3926,5.3906,5.3867,5.3867,5.3418,5.2539,5.1645,5.1206,5.1206,5.1206,5.1659,5.2436,5.2366,5.2764,5.3483,5.3514,5.354,5.354,5.3579,5.4116,5.4835,5.4835,5.4886,5.4789,0.0,0.0,0.0,0.0,0.0,0.0,0.0,0.0,0.0,0.0,0.0,0.0,0.0,0.0,0.0,0.0,0.0,0.0,5.1406,5.1406,5.1406,5.1406,5.1406,5.1406,5.1406,5.1406,5.1406,5.1406,5.1406,5.1406,5.1406,5.1406,5.1406,5.1406,5.1406,5.1406,5.1406,5.1406,5.1406,5.1406,5.1406,5.1406,5.1406,5.1406,5.1406,5.1406,5.1406,5.1367,5.1322,0.0,0.0,0.0,0.0,5.0945,5.0906,5.0906,5.0906,5.0906,5.0906,5.0906,5.0906,5.0906,5.0906,5.0906,5.0906,5.0906,5.0906,5.0906,5.0906,5.0906,0.0,0.0,0.0,5.0906,5.0906,0.0,5.0906,5.108,0.0,5.1198,0.0,5.1406,5.1406,5.1406,0.0,0.0,5.2832,5.3183,5.4277,5.4121,5.3691,5.3047,5.3027,5.2715,5.207,5.2051,5.1933,5.1699,5.146,5.1349,5.1342,5.1303,5.1416,5.1673,5.1502,5.1637,5.1993,5.2455,5.2686,5.2835,5.3497,5.3886,5.4081,5.4081,5.4543,5.5152,0.0,0.0,0.0,0.0,0.0,0.0,0.0,0.0,0.0,0.0,0.0,0.0,0.0,0.0,0.0,0.0,0.0,0.0,0.0,5.1406,5.1406,5.1406,5.1406,5.1396,5.1349,5.1374,5.1387,5.1367,5.1387,5.1406,5.1406,5.1406,5.1406,5.1406,5.1406,5.1406,5.1406,5.1406,5.1406,0.0,0.0,5.1406,5.1406,5.1406,5.1408,5.1408,5.1369,5.1291,0.0,0.0,0.0,5.0906,5.0906,5.0906,5.0906,5.0906,0.0,5.0906,5.0906,5.0906,5.0906,5.0906,5.0906,5.0906,5.0906,5.0906,5.0906,5.0906,5.0906,5.0906,5.0906,5.0906,0.0,0.0,0.0,0.0,5.0906,5.1061,5.1178,0.0,5.1288,0.0,5.1406,5.1406,5.1601,0.0,5.2129,5.2519,5.3379,5.3066,5.2637,5.2148,5.2129,5.1894,5.1406,5.1406,5.1406,5.1406,5.1403,5.1396,5.1405,5.1359,5.1355,5.139,0.0,5.1304,5.1429,5.1764,5.1951,5.2064,5.2558,5.2987,5.3319,5.3319,5.3928,5.4728,0.0,0.0,0.0,0.0,0.0,0.0,0.0,0.0,0.0,0.0,0.0,0.0,0.0,0.0,0.0,0.0,0.0,0.0,0.0,0.0,0.0,5.1396,5.1382,5.1347,5.1291,5.1343,5.1343,5.1308,5.1367,5.1387,5.1406,5.1406,5.1406,5.1406,5.1406,5.1406,5.1406,5.1406,5.1406,5.1406,5.1406,5.1406,5.1406,0.0,0.0,5.137,5.1293,0.0,0.0,0.0,5.1003,5.0906,5.0906,5.0906,5.0906,5.0906,5.0906,5.0906,5.0906,5.0906,5.0906,5.0906,5.0906,5.0906,5.0906,5.0906,5.0906,5.0906,0.0,5.0906,5.0906,5.0906,5.0906,5.0906,0.0,5.0906,5.0906,5.1022,5.1125,5.1181,5.1242,5.1328,5.1387,5.1387,5.1406,5.1406,5.1406,5.1738,5.248,5.1816,5.1406,5.1406,5.1406,5.1406,5.1406,5.1406,5.1406,5.1406,5.1396,5.1408,5.1396,5.1402,5.1394,5.1394,5.1394,5.1394,5.1394,5.1394,5.1394,5.1394,5.1394,5.1863,5.2526,5.2526,5.3073,5.3834,0.0,0.0,0.0,0.0,0.0,0.0,0.0,0.0,0.0,0.0,5.1053,5.114,0.0,0.0,0.0,0.0,0.0,0.0,0.0,0.0,0.0,0.0,5.1267,5.1238,5.121,5.1222,5.1248,5.1308,5.1308,5.1348,5.1406,5.1406,5.1406,5.1406,5.1406,5.1406,5.1406,5.1406,5.1406,5.1406,5.1406,5.1406,5.1404,5.1395,0.0,0.0,0.0,0.0,0.0,0.0,5.0925,5.0906,5.0906,5.0906,5.0906,5.0906,5.0906,5.0906,5.0906,5.0906,5.0906,5.0906,5.0906,5.0906,5.0906,5.0906,0.0,0.0,5.0906,5.0906,5.0906,5.0906,5.0906,5.0906,5.0906,5.0906,5.0906,5.1022,5.1095,0.0,5.1238,5.1308,5.1328,5.1367,0.0,0.0,5.1406,5.1465,5.1621,5.1484,5.1406,5.1406,5.1406,5.1406,5.1406,5.1406,5.1406,5.1406,5.1406,5.14,5.1398,5.1394,5.1394,5.1394,5.1394,0.0,5.1394,5.1394,5.1394,5.1394,5.1394,5.1492,5.1629,5.1629,5.2175,5.2936,0.0,0.0,0.0,0.0,0.0,0.0,0.0,5.0906,5.0906,5.0906,5.0964,5.1041,5.1138,5.1172,5.1197,0.0,0.0,0.0,0.0,0.0,0.0,0.0,0.0,0.0,0.0,5.1175,0.0,0.0,0.0,5.1328,5.1406,0.0,0.0,5.1406,5.1406,5.1406,5.1406,5.1406,5.1406,5.1406,5.1406,5.1406,0.0,0.0,0.0,0.0,0.0,0.0,0.0,0.0,5.0906,5.0906,5.0906,5.0906,5.0906,5.0906,5.0906,5.0906,5.0906,5.0906,5.0906,5.0906,5.0906,5.0906,5.0906,0.0,0.0,0.0,5.0906,5.0906,5.0906,5.0906,0.0,5.0906,5.0906,5.0906,5.0906,5.0964,0.0,5.1099,5.1167,5.1213,0.0,5.1328,5.1367,5.1406,5.1406,5.1406,5.1406,5.1406,5.1406,5.1406,5.1406,5.1406,5.1406,5.1406,5.1406,5.1406,5.1406,5.1404,5.1408,5.1398,5.1394,5.1394,5.1394,5.1394,5.1394,5.1394,5.1394,5.1394,5.1394,5.1394,5.1394,5.1394,5.1668,5.2019,0.0,0.0,0.0,0.0,0.0,0.0,0.0,5.0906,5.0906,5.0906,5.0906,5.0945,5.1061,5.1099,5.1154,0.0,0.0,0.0,0.0,0.0,0.0,0.0,0.0,0.0,0.0,0.0,0.0,0.0,0.0,0.0,0.0,0.0,0.0,0.0,0.0,0.0,5.1406,5.1406,5.1406,0.0,0.0,5.1382,0.0,0.0,0.0,0.0,0.0,0.0,0.0,0.0,5.0906,5.0906,5.0906,5.0906,5.0906,5.0906,5.0906,5.0906,5.0906,5.0906,5.0906,5.0906,5.0906,5.0906,5.0906,5.0906,0.0,5.0906,5.0906,5.0906,5.0906,5.0906,5.0906,0.0,5.0906,5.0906,5.0906,5.0925,5.0983,0.0,5.1138,0.0,5.1293,5.1305,0.0,5.1406,5.1406,5.1406,5.1406,5.1406,5.1406,5.1406,5.1406,5.1406,5.1406,5.1406,5.1406,5.1406,5.1406,5.1405,5.1398,5.1402,5.1394,5.1394,5.1394,5.1394,5.1394,5.1394,5.1394,5.1394,5.1394,5.1394,5.1394,5.1394,5.1394,5.1394,0.0,0.0,0.0,0.0,0.0,0.0,0.0,5.0906,5.0906,5.0906,5.0906,5.0906,5.0925,5.0925,5.0981,0.0,0.0,0.0,0.0,0.0,0.0,0.0,0.0,0.0,0.0,0.0,0.0,0.0,0.0,0.0,0.0,0.0,0.0,0.0,0.0,0.0,0.0,5.1406,0.0,0.0,0.0,0.0,0.0,0.0,0.0,0.0,0.0,0.0,0.0,0.0,0.0,5.0906,5.0906,5.0906,5.0906,5.0906,0.0,0.0,5.0906,5.0906,5.0906,5.0906,5.0906,5.0906,5.0906,0.0,5.0906,5.0906,5.0906,5.0906,5.0906,5.0906,5.0906,5.0906,5.0906,5.0906,5.0906,5.1003,5.1099,5.1099,0.0,0.0,5.1305,5.1361,0.0,5.1406,5.1406,5.1406,5.1406,5.1406,5.1406,5.1406,5.1406,5.1406,5.1406,5.1406,5.1406,5.1406,5.1406,5.1405,5.1398,5.1402,5.1394,5.1394,5.1394,5.1394,0.0,5.1394,5.1394,5.1394,5.1394,5.1394,5.1394,5.1394,5.1394,5.1394,0.0,0.0,0.0,0.0,0.0,0.0,5.0906,5.0906,5.0906,5.0906,5.0906,5.0906,5.0906,5.0906,5.0917,5.0984,0.0,0.0,0.0,0.0,0.0,0.0,0.0,0.0,0.0,0.0,0.0,5.1099,0.0,0.0,0.0,0.0,0.0,0.0,0.0,0.0,0.0,0.0,0.0,0.0,0.0,0.0,0.0,0.0,0.0,0.0,0.0,0.0,5.0906,5.0906,0.0,0.0,5.0906,5.0906,0.0,0.0,5.0906,5.0906,5.0906,5.0906,5.0906,5.0906,5.0906,5.0906,5.0906,5.0906,5.0906,5.0906,5.0906,5.0906,5.0906,5.0906,5.0906,5.0906,5.0906,5.0906,5.0906,5.0964,5.1022,5.1099,5.1157,0.0,0.0,0.0,5.1369,5.1406,5.1406,5.1406,5.1406,5.1406,5.1406,5.1406,5.1406,5.1406,5.1406,5.1406,5.1406,5.1406,5.1406,5.1406,5.1405,5.1408,5.1394,5.1394,5.1394,5.1394,0.0,5.1394,5.1394,5.1394,5.1394,5.1394,5.1394,5.1394,5.1394,5.1394,0.0,0.0,0.0,0.0,0.0,5.0906,5.0906,5.0906,5.0906,5.0906,5.0906,5.0906,5.0906,5.0906,5.0906,5.0906,5.1003,0.0,0.0,0.0,0.0,0.0,0.0,0.0,0.0,0.0,5.0964,5.1041,5.1138,5.1197,0.0,0.0,0.0,0.0,0.0,0.0,0.0,0.0,0.0,0.0,0.0,0.0,0.0,0.0,0.0,0.0,0.0,0.0,0.0,0.0,0.0,0.0,0.0,0.0,0.0,0.0,5.0906,5.0906,5.0906,5.0906,5.0906,5.0906,5.0906,5.0906,5.0906,5.0906,5.0906,5.0906,5.0906,5.0906,5.0906,5.0906,5.0906,5.0906,5.0906,5.0906,5.0906,5.0945,5.1003,0.0,0.0,5.1172,0.0,5.1287,5.1331,5.1386,5.1406,5.1406,5.1406,5.1406,5.1406,5.1406,5.1406,5.1406,5.1406,5.1406,5.1406,5.1406,5.1406,5.1406,5.1406,5.1396,5.1398,5.1394,5.1394,5.1394,0.0,5.1394,5.1394,5.1394,5.1394,5.1394,5.1394,5.1394,5.155,5.1785,0.0,0.0,0.0,0.0,0.0,0.0,5.0906,5.0906,5.0906,5.0906,5.0906,5.0906,5.0906,5.0906,5.0906,5.0906,5.0906,0.0,0.0,0.0,0.0,0.0,0.0,0.0,0.0,0.0,5.0906,5.0906,5.1041,5.114,5.1211,5.1277,5.1348,0.0,0.0,0.0,0.0,0.0,0.0,0.0,0.0,0.0,5.1099,0.0,0.0,0.0,0.0,0.0,0.0,0.0,0.0,0.0,0.0,5.0906,5.0906,0.0,5.0906,5.0906,5.0906,5.0906,5.0906,5.0906,5.0906,5.0906,5.0906,5.0906,5.0906,5.0906,5.0906,5.0906,5.0906,5.0906,5.0906,5.0906,5.0906,5.0906,5.0906,5.1022,0.0,0.0,0.0,5.1195,5.1195,5.1268,5.1328,5.1387,5.1406,0.0,5.1406,5.1406,5.1406,5.1406,5.1406,5.1406,5.1406,5.1406,5.1406,5.1406,5.1406,5.1406,5.1406,5.1402,5.1391,5.1394,5.1394,5.1394,0.0,5.1394,5.1394,5.1394,5.1394,5.1394,5.1394,5.1394,5.1941,5.2683,0.0,0.0,0.0,0.0,0.0,0.0,0.0,5.0906,5.0906,5.0906,5.0906,5.0906,5.0906,5.0906,5.0906,5.0906,5.0906,0.0,0.0,0.0,0.0,0.0,0.0,0.0,0.0,0.0,5.0906,5.0906,5.1041,5.1126,5.1199,5.1273,5.1336,5.1403,5.1344,0.0,0.0,0.0,0.0,0.0,0.0,5.1099,5.1099,0.0,0.0,0.0,0.0,0.0,0.0,0.0,0.0,0.0,0.0,0.0,0.0,5.0899,5.0897,5.0906,5.0906,5.0906,5.0906,5.0906,5.0906,5.0906,5.0906,5.0906,5.0906,5.0906,5.0906,5.0906,5.0906,5.0906,5.0906,5.0906,5.0906,5.0906,0.0,0.0,0.0,5.1099,5.117,5.1205,0.0,0.0,5.1308,5.1328,5.1367,5.1406,5.1406,5.1406,5.1406,5.1406,5.1406,5.1406,5.1406,5.1406,5.1406,5.1406,5.1406,5.1406,5.1406,5.1406,5.14,5.1394,5.1394,5.1394,5.1394,5.1394,5.1394,5.1394,5.1394,5.1765,5.2292,5.2292,5.2839,5.358,0.0,0.0,0.0,0.0,0.0,0.0,0.0,5.0906,5.0906,5.0906,5.0906,5.0906,5.0906,5.0906,5.0906,5.0906,5.0906,0.0,0.0,0.0,0.0,0.0,0.0,0.0,0.0,5.1718,5.1718,5.1389,5.1467,5.1389,5.1173,5.1211,5.1264,5.1328,5.1289,0.0,0.0,0.0,0.0,0.0,5.1061,5.1022,5.1022,0.0,0.0,0.0,0.0,0.0,0.0,0.0,0.0,0.0,0.0,0.0,0.0,0.0,5.0899,5.0893,5.0861,5.0877,5.0893,5.0893,5.0893,5.0893,5.089,5.0909,5.0909,5.089,5.0906,5.0906,5.0906,5.0906,5.0906,5.0906,5.0906,5.0906,0.0,0.0,0.0,5.1022,0.0,0.0,0.0,5.1191,5.1249,5.1308,5.1348,5.1367,5.1406,5.1406,5.1406,5.1406,5.1406,5.1406,5.1406,5.1406,5.1406,5.1406,5.1406,5.1406,5.1406,5.1406,5.1404,5.1394,5.1402,5.1394,0.0,5.1394,5.1394,5.1433,5.1765,5.2214,5.2741,5.3073,5.3737,5.4498,0.0,0.0,0.0,0.0,0.0,0.0,0.0,5.0906,5.0906,5.0906,5.0906,5.0906,5.0906,5.0906,5.0906,5.0906,0.0,0.0,0.0,0.0,0.0,0.0,0.0,0.0,5.2202,5.3053,5.3072,5.2202,5.2202,5.1815,5.1099,5.1088,5.1142,5.1206,5.1206,5.1186,0.0,0.0,0.0,0.0,5.0964,5.0906,0.0,0.0,0.0,0.0,0.0,0.0,0.0,0.0,0.0,0.0,0.0,0.0,0.0,0.0,0.0,0.0,0.0,5.0849,5.0899,5.0899,5.0899,5.088,5.089,5.0877,0.0,5.0909,5.089,5.089,5.089,5.089,5.0906,5.089,5.089,5.0906,0.0,5.0906,0.0,0.0,5.0906,0.0,5.108,5.1099,5.1144,5.1281,5.1288,5.1328,5.1386,5.1386,5.1387,5.1387,5.1406,5.1406,5.1406,5.1406,5.1406,5.1406,5.1406,5.1406,5.1406,5.1406,5.1406,0.0,5.1391,5.1394,5.1394,5.1472,5.1492,5.159,5.2448,5.2819,5.2975,5.3795,5.4635,5.5396,0.0,0.0,0.0,0.0,0.0,0.0,0.0,0.0,0.0,0.0,5.0906,5.0906,5.0906,5.0906,5.0906,0.0,0.0,0.0,0.0,0.0,0.0,0.0,0.0,0.0,5.2202,5.3053,5.3072,5.2202,5.2202,5.1815,5.1099,5.1087,5.115,5.1203,5.1145,5.1063,0.0,0.0,0.0,0.0,5.0925,5.0906,0.0,0.0,0.0,0.0,5.0906,5.0893,0.0,0.0,0.0,0.0,0.0,0.0,0.0,0.0,5.0757,5.0739,5.0721,0.0,5.081,5.081,5.081,5.081,0.0,5.0827,5.0846,5.088,0.0,5.0897,5.0897,5.0893,5.0909,5.0897,5.0893,5.0906,5.0906,0.0,0.0,5.0906,5.0906,5.0925,5.0945,5.1041,5.1102,5.1139,5.1187,5.1232,5.1252,5.1299,5.1328,5.1328,5.1367,5.1406,5.1406,5.1406,5.1406,5.1406,5.1406,5.1406,5.1406,5.1406,5.1406,5.1406,5.14,5.1408,5.1453,5.2117,5.239,5.2487,5.3346,5.4108,5.4713,5.4927,5.5552,5.6294,0.0,0.0,0.0,0.0,0.0,0.0,0.0,0.0,0.0,0.0,0.0,5.0906,5.0906,5.0906,0.0,0.0,0.0,0.0,0.0,0.0,0.0,0.0,0.0,5.2801,5.2801,5.4,5.4039,5.2801,5.2801,5.2182,5.1022,5.1022,5.1041,5.1061,5.1022,5.0983,0.0,0.0,0.0,5.0906,5.0906,0.0,0.0,0.0,0.0,0.0,5.0893,5.088,0.0,5.0846,5.081,5.0775,0.0,0.0,0.0,0.0,5.0701,5.0702,5.0702,5.0721,5.0738,5.0738,5.0738,5.0775,5.0793,5.0775,0.0,0.0,0.0,5.0846,5.0846,5.0844,5.0861,5.0863,5.088,0.0,0.0,0.0,5.0906,5.0906,5.0906,5.0906,0.0,5.0983,5.1041,5.1099,5.114,5.1175,5.1194,5.1228,5.1252,5.1242,5.1325,5.1367,5.1406,5.1406,5.1406,5.1406,5.1406,5.1406,5.1406,5.1406,5.1406,5.1406,5.1405,5.1631,5.2038,5.2507,5.2936,5.3385,5.4264,5.4888,5.5357,5.5747,5.6196,5.6606,0.0,0.0,0.0,0.0,0.0,0.0,0.0,0.0,0.0,0.0,0.0,0.0,0.0,0.0,0.0,0.0,0.0,0.0,0.0,0.0,0.0,0.0,5.2569,5.3498,5.3498,5.5142,5.518,5.3498,5.3498,5.2608,5.0906,5.0906,5.0906,5.0906,5.0906,5.0906,0.0,0.0,0.0,5.0906,5.0906,0.0,0.0,0.0,0.0,0.0,0.0,0.0,0.0,5.0793,5.0757,5.072,5.0757,0.0,0.0,0.0,0.0,0.0,5.0702,5.0702,5.0702,5.0702,5.0702,5.0701,5.0775,0.0,0.0,0.0,0.0,0.0,0.0,5.0793,0.0,0.0,0.0,0.0,5.0909,5.089,5.089,5.0906,5.0906,0.0,5.0906,5.0906,5.0964,5.1061,5.108,5.1099,5.1157,5.1177,5.1178,5.1171,5.1245,5.1322,5.1387,5.1387,5.1406,5.1406,5.1406,5.1406,5.1406,5.1406,5.1406,5.1406,0.0,0.0,5.2729,5.2995,5.3522,5.4283,5.5162,5.5493,5.5591,5.6333,5.6606,5.6606,0.0,0.0,0.0,0.0,0.0,0.0,0.0,0.0,0.0,0.0,0.0,0.0,0.0,0.0,0.0,0.0,0.0,0.0,0.0,0.0,0.0,5.0906,5.2569,5.3498,5.3498,5.5142,5.518,5.3498,5.3498,5.2608,5.0906,5.0906,5.0906,5.0906,5.0906,5.0906,5.0906,0.0,0.0,5.0906,5.0906,0.0,0.0,0.0,0.0,0.0,0.0,0.0,0.0,5.072,5.0702,5.0702,5.0702,0.0,0.0,0.0,0.0,0.0,5.0683,5.0702,5.0702,5.0702,5.0702,5.0702,5.0702,0.0,0.0,0.0,0.0,0.0,0.0,5.0775,5.0793,0.0,0.0,5.0846,0.0,0.0,5.0897,5.089,0.0,5.0906,5.0906,5.0906,5.0925,5.0945,5.0945,5.0945,5.0964,5.1061,5.1115,5.1116,5.1178,5.1258,5.1308,5.1367,5.1406,5.1406,5.1406,5.1406,5.1406,5.1406,5.1406,5.1445,0.0,5.2578,5.2811,5.4298,5.4986,5.5181,5.6059,5.6391,5.6411,5.6547,5.6606,5.6606,0.0,0.0,0.0,0.0,0.0,0.0,0.0,0.0,0.0,0.0,0.0,0.0,0.0,0.0,0.0,0.0,0.0,0.0,0.0,0.0,5.0906,5.0906,5.2124,5.3014,5.3478,5.4716,5.4735,5.3498,5.3033,5.2144,5.0906,5.0906,5.0906,5.0906,5.0906,5.0906,5.0906,5.0906,5.0906,5.0906,0.0,0.0,0.0,0.0,0.0,0.0,0.0,0.0,0.0,0.0,5.0702,5.0702,5.0702,0.0,0.0,0.0,0.0,0.0,5.0702,5.0702,5.0663,5.0483,5.0565,5.0702,5.0702,0.0,0.0,0.0,0.0,0.0,0.0,0.0,5.074,5.072,0.0,5.0775,5.0846,5.0846,5.0863,0.0,0.0,5.0893,5.089,5.0906,5.0906,5.0906,5.0906,5.0906,5.0906,5.0964,5.1003,5.1003,5.1099,5.1153,5.1198,5.1291,5.1367,5.1406,5.1406,5.1406,5.1406,5.1406,5.166,5.2129,0.0,5.3223,5.4179,5.497,5.5583,5.604,5.645,5.6606,5.6606,5.6606,5.6606,5.6606,0.0,0.0,0.0,0.0,0.0,0.0,0.0,0.0,0.0,0.0,0.0,0.0,0.0,0.0,0.0,0.0,0.0,0.0,0.0,0.0,5.0906,5.0906,5.1738,5.2511,5.3169,5.4039,5.4078,5.3188,5.2531,5.1757,5.0906,5.0906,5.0906,5.0906,5.0906,5.0906,5.0906,5.0906,5.0906,5.0906,0.0,0.0,0.0,0.0,0.0,0.0,0.0,0.0,0.0,0.0,0.0,0.0,0.0,0.0,0.0,5.0702,5.0702,5.0702,5.0702,5.0624,5.0504,5.0272,5.0442,5.0663,5.0523,0.0,0.0,0.0,0.0,0.0,0.0,5.0565,0.0,5.0683,5.0702,5.072,5.0775,5.0775,5.0793,5.0863,5.0899,5.0897,5.0909,5.089,5.0906,5.0906,5.0906,5.0906,5.0906,5.0906,5.0906,5.0906,5.1003,5.1157,5.1389,5.1476,5.1472,5.1387,5.1387,5.1504,5.1699,5.1699,5.2187,5.3027,5.3223,5.4062,5.5312,5.5521,5.5993,5.6606,5.6606,5.6606,5.6606,5.6606,5.6606,5.6606,0.0,0.0,0.0,0.0,0.0,0.0,0.0,0.0,0.0,0.0,0.0,0.0,0.0,0.0,0.0,0.0,0.0,0.0,0.0,0.0,5.0906,5.0906,5.1738,5.2221,5.2279,5.3149,5.3169,5.2279,5.2221,5.1757,5.0906,5.0906,5.0906,5.0906,5.0906,5.0906,5.0906,5.0906,5.0906,5.0906,5.0906,0.0,0.0,0.0,0.0,0.0,0.0,0.0,0.0,0.0,0.0,0.0,0.0,0.0,5.0702,5.0702,5.0702,5.0702,5.0702,5.0483,5.023,5.0206,5.0442,0.0,4.9987,5.0291,0.0,5.0294,0.0,0.0,0.0,5.0249,5.0336,5.0644,5.0702,5.0683,5.072,0.0,5.072,5.0793,5.0863,5.0899,5.0899,5.0893,5.0906,5.0906,5.0906,5.0906,5.0906,5.0906,5.0906,5.0906,5.0925,5.1331,5.2221,5.2229,5.193,5.1308,5.1367,5.1816,5.2617,5.2617,5.3086,5.3945,5.4765,5.5176,5.5351,5.6175,5.6547,5.6606,5.6606,5.6606,5.6606,5.6606,5.6606,5.6606,0.0,0.0,0.0,0.0,0.0,0.0,0.0,0.0,0.0,0.0,0.0,0.0,0.0,0.0,0.0,0.0,0.0,0.0,0.0,5.0906,5.0906,5.0906,5.1215,5.1389,5.1389,5.224,5.2531,5.2202,5.166,5.1215,5.0906,5.0906,5.0906,5.0906,5.0906,5.0906,5.0906,5.0906,5.0906,5.0906,5.0906,5.0906,0.0,0.0,0.0,0.0,0.0,0.0,0.0,0.0,5.0702,5.0702,5.0702,5.0565,5.038,5.038,5.0268,5.013,5.013,5.0038,4.9891,4.9749,4.991,0.0,0.0,5.0106,5.0313,5.0012,5.0355,0.0,0.0,0.0,5.0544,5.0683,5.0702,5.0702,5.0702,5.0702,5.0721,5.072,5.0757,5.0793,5.0827,5.088,5.0877,5.0844,5.0897,5.0897,5.0897,5.0897,5.1145,5.1699,5.1718,5.2144,5.3033,5.3091,5.2967,5.2718,5.2889,5.3144,5.3516,5.3516,5.3984,5.4824,5.5156,5.5605,5.6133,5.6456,5.6605,5.6605,5.6591,5.6606,5.6606,5.6606,5.6606,5.6606,0.0,0.0,0.0,0.0,0.0,0.0,0.0,0.0,0.0,0.0,0.0,0.0,0.0,0.0,0.0,0.0,0.0,0.0,5.1331,5.1312,5.1196,5.0925,5.0906,5.0906,5.0906,5.1486,5.1796,5.1796,5.1196,5.0906,5.0906,5.0906,5.0906,5.0906,5.0906,5.0906,5.0906,5.0906,5.0906,5.0906,5.0906,5.0906,0.0,0.0,0.0,0.0,0.0,0.0,0.0,0.0,5.0624,5.0544,5.0544,5.0336,5.0068,5.0068,4.9943,4.9803,4.9803,4.9749,4.9627,0.0,0.0,0.0,4.9521,4.9811,5.0012,4.9721,5.0057,0.0,0.0,0.0,0.0,0.0,5.0702,5.0702,5.0702,5.0702,5.0702,5.0702,5.0702,5.072,5.0756,5.0829,5.0846,5.081,5.0846,5.0883,5.0899,5.0899,5.1302,5.2163,5.2202,5.2743,5.3904,5.3962,5.4136,5.4426,5.4567,5.4545,5.4375,5.4394,5.4883,5.5703,5.5703,5.6055,5.6601,5.6599,5.6593,5.6605,5.6591,5.6606,5.6606,5.6606,5.6606,5.6606,0.0,0.0,0.0,0.0,0.0,0.0,0.0,0.0,0.0,0.0,0.0,0.0,0.0,0.0,0.0,0.0,0.0,0.0,5.226,5.2202,5.1834,5.0964,5.0925,5.0925,5.0925,5.0906,5.0906,5.0906,5.0906,5.0906,5.0906,5.0906,5.0906,5.0906,5.0906,5.0906,5.0906,5.0906,5.0906,5.0906,5.0906,5.0906,5.089,0.0,0.0,0.0,0.0,0.0,0.0,0.0,5.0483,5.0206,5.0206,4.9993,4.9803,4.9803,4.9784,4.9784,4.9784,4.9598,4.9415,0.0,0.0,0.0,4.8909,4.937,4.9721,4.9457,0.0,4.9987,5.0584,0.0,0.0,5.0663,5.0702,5.0702,5.0702,5.0702,5.0702,5.0702,5.0683,5.0701,5.0701,5.0775,5.0793,5.0793,5.0793,5.0829,5.0899,5.0899,5.1302,5.2163,5.2202,5.3053,5.4774,5.4813,5.5277,5.6205,5.6205,5.5858,5.5215,5.5273,5.5781,5.6601,5.6601,5.6601,5.6601,5.6601,5.6597,5.6606,5.6606,5.6606,5.6606,5.6606,5.6606,5.6606,0.0,0.0,0.0,0.0,0.0,0.0,0.0,0.0,0.0,0.0,0.0,0.0,0.0,0.0,0.0,0.0,0.0,0.0,5.313,5.3111,5.2995,5.2743,5.2144,5.1815,5.1815,5.1215,5.0906,5.0906,5.0906,5.0906,5.0906,5.0906,5.0906,5.0906,5.0906,5.0906,5.0906,5.0906,5.0906,5.0906,5.0906,5.0909,5.0897,0.0,0.0,0.0,0.0,0.0,0.0,0.0,0.0,0.0,4.9936,4.9721,4.9529,4.9529,4.9346,4.9155,4.9155,4.9108,0.0,4.9061,0.0,0.0,0.0,4.9239,0.0,0.0,0.0,4.9891,5.0272,0.0,0.0,5.0683,5.0702,5.0702,5.0702,5.0702,5.0702,5.0702,5.0702,5.0683,5.0683,5.072,5.0739,5.074,5.072,5.0757,5.0757,5.0793,5.123,5.2095,5.2766,5.3652,5.4793,5.5354,5.578,5.607,5.6147,5.6169,5.6113,5.6133,5.6308,5.6601,5.6601,5.6601,5.6601,5.6601,5.6601,5.6597,5.6598,5.6606,5.6606,5.6606,5.6606,5.6606,0.0,0.0,0.0,0.0,0.0,0.0,0.0,0.0,0.0,0.0,0.0,0.0,0.0,0.0,0.0,0.0,0.0,0.0,0.0,5.402,5.3865,5.3517,5.2995,5.2724,5.2724,5.2202,5.1931,5.1931,5.1254,5.0906,5.0906,5.0906,5.0906,5.0906,5.0906,5.0906,5.0906,5.0906,5.0906,5.0906,5.0909,5.0825,5.0681,0.0,0.0,0.0,0.0,0.0,0.0,0.0,0.0,0.0,4.9655,4.9439,4.9193,4.9193,4.9061,4.8909,4.8909,4.8909,0.0,4.8909,4.8909,4.8909,4.8909,0.0,0.0,0.0,0.0,4.9721,4.9993,5.0272,0.0,5.0504,5.0604,5.0702,5.0702,5.0702,5.0702,5.0702,5.0702,5.0702,5.0702,5.0702,5.0702,5.0683,5.0702,5.0702,5.0701,5.0738,5.1159,5.2078,5.2652,5.3539,5.4793,5.5277,5.5683,5.6012,5.6089,5.6213,5.6381,5.6406,5.6476,5.6562,5.6582,5.6601,5.6601,5.6601,5.6601,5.6601,5.6595,5.6602,5.6606,5.6606,5.6606,5.6606,0.0,0.0,0.0,0.0,0.0,0.0,0.0,0.0,0.0,0.0,0.0,0.0,0.0,0.0,0.0,0.0,0.0,0.0,0.0,0.0,5.4561,5.3749,5.3652,5.3575,5.3498,5.3498,5.3498,5.3498,5.1834,5.1022,5.1022,5.0945,5.0906,5.0906,5.0906,5.0906,5.0906,5.089,5.0874,5.0855,5.0827,5.0644,5.035,5.0301,0.0,0.0,0.0,0.0,0.0,0.0,0.0,0.0,4.9334,4.916,4.8909,4.8909,4.8909,4.8909,4.8909,4.8909,0.0,4.8909,4.8909,0.0,4.8909,4.8909,4.9012,4.9289,0.0,4.9469,4.9721,4.9968,5.0183,5.0206,5.0462,5.0663,5.0702,5.0702,5.0702,5.0702,5.0702,5.0702,5.0702,5.0702,5.0702,5.0702,5.0702,5.0702,5.0682,5.0701,5.1085,5.1945,5.2058,5.2887,5.4542,5.4716,5.518,5.5896,5.5973,5.607,5.6184,5.6263,5.6355,5.6483,5.6562,5.6582,5.6582,5.6601,5.6601,5.6601,5.6601,5.6597,5.6591,5.6606,5.6606,5.6606,0.0,0.0,0.0,0.0,0.0,0.0,0.0,0.0,0.0,0.0,0.0,0.0,0.0,0.0,0.0,0.0,0.0,0.0,0.0,5.5741,5.5664,5.547,5.4851,5.4194,5.3517,5.3498,5.3498,5.3498,5.2434,5.1912,5.1912,5.1215,5.0906,5.0906,5.0906,5.0906,5.089,5.0736,5.0587,5.0491,5.0344,5.0164,5.0019,4.9993,4.9936,0.0,0.0,0.0,0.0,0.0,0.0,0.0,4.8993,4.8959,4.8909,4.8909,4.8909,4.8909,4.8909,4.8909,0.0,0.0,4.8909,4.8909,4.8909,4.8909,4.8943,4.8993,4.9225,4.9415,4.9488,4.9712,4.9943,5.0159,5.0272,5.0399,5.0663,5.0702,5.0702,5.0702,5.0702,5.0702,5.0702,5.0702,5.0702,5.0702,5.0702,5.0702,5.0702,5.0702,5.0834,5.1061,5.1732,5.2307,5.2743,5.4116,5.489,5.5064,5.5702,5.6031,5.6051,5.6172,5.6271,5.6348,5.6478,5.6523,5.6523,5.6582,5.6601,5.6601,5.6601,5.6601,5.6598,5.6598,5.6606,5.6606,0.0,0.0,0.0,0.0,0.0,0.0,0.0,0.0,0.0,0.0,0.0,0.0,0.0,0.0,0.0,0.0,0.0,0.0,0.0,0.0,5.6012,5.6012,5.5606,5.5161,5.4716,5.4697,5.4697,5.4697,5.3865,5.3014,5.2182,5.1738,5.1312,5.0906,5.0906,5.0858,5.0754,5.0568,5.041,5.024,5.0049,4.9865,4.9655,4.9665,4.9539,4.9358,4.9206,0.0,0.0,0.0,0.0,0.0,0.0,0.0,4.8909,4.8909,4.8909,4.8909,4.8909,0.0,0.0,4.8909,0.0,4.8909,4.8909,4.8909,4.8909,4.8909,4.9027,4.916,4.916,4.9408,4.9655,4.9803,5.0038,5.0272,5.0442,5.0604,5.0702,5.0702,5.0702,5.0702,5.0702,5.0702,5.0702,5.0702,5.0702,5.0702,5.0702,5.0702,5.0721,5.0757,5.1215,5.1691,5.215,5.3091,5.3962,5.4813,5.5238,5.5625,5.6012,5.6147,5.6226,5.6246,5.6349,5.64,5.6419,5.6502,5.6543,5.6562,5.6582,5.6601,5.6601,5.6597,5.6602,5.6606,0.0,0.0,0.0,0.0,0.0,0.0,0.0,0.0,0.0,0.0,0.0,0.0,0.0,0.0,0.0,0.0,0.0,0.0,0.0,0.0,0.0,5.6012,5.6012,5.6012,5.6012,5.6012,5.6012,5.6012,5.5335,5.4194,5.2647,5.2492,5.1934,5.1051,5.1035,5.0834,5.0488,5.0327,5.0153,4.9968,4.983,4.9589,4.9302,4.9315,4.916,4.8909,4.8909,4.8909,4.8909,4.8909,0.0,0.0,0.0,0.0,4.8909,4.8909,4.8909,4.8909,4.8909,0.0,4.8909,4.8909,4.9002,0.0,4.9113,4.9224,4.9336,4.9336,4.9094,4.8909,4.8909,4.9127,4.939,4.9571,5.0031,5.0369,5.0412,5.0694,5.0856,5.0721,5.0702,5.0702,5.0702,5.0702,5.0702,5.0702,5.0702,5.0702,5.0702,5.0702,5.0683,5.0701,5.0738,5.1138,5.1885,5.2092,5.2917,5.4349,5.4658,5.5219,5.6012,5.6109,5.6167,5.6167,5.6244,5.6287,5.6291,5.6421,5.6473,5.6461,5.6539,5.6561,5.6582,5.6561,5.6581,5.6595,0.0,0.0,0.0,0.0,0.0,0.0,0.0,0.0,0.0,0.0,0.0,0.0,0.0,0.0,0.0,0.0,0.0,0.0,0.0,0.0,0.0,5.6012,5.6012,5.6012,5.6012,5.6012,5.6012,5.6012,5.5896,5.5354,0.0,0.0,5.2737,5.1684,5.1625,5.1058,5.0159,4.9838,4.9627,4.9464,4.927,4.9113,4.8993,4.8959,4.8943,4.8909,4.8909,4.8909,4.8909,4.8909,4.8909,0.0,0.0,0.0,4.8909,4.8909,4.8909,4.8909,4.8909,0.0,4.8909,0.0,4.9429,4.9949,0.0,0.0,5.1063,0.0,4.9912,4.8909,4.8909,4.8943,4.9284,5.029,5.0732,5.1064,5.1305,5.1576,5.1491,5.0779,5.0702,5.0702,5.0702,5.0702,5.0702,5.0702,5.0702,5.0702,5.0702,5.0702,5.0683,5.0701,5.0701,5.0833,5.1054,5.1749,5.2266,5.2569,5.4078,5.5219,5.6012,5.6031,5.6031,5.6031,5.6167,5.622,5.623,5.63,5.6341,5.6328,5.6347,5.6411,5.6503,5.645,5.6507,5.6599,0.0,0.0,0.0,0.0,0.0,0.0,0.0,0.0,0.0,0.0,0.0,0.0,0.0,0.0,0.0,0.0,0.0,0.0,0.0,0.0,0.0,5.6012,5.6012,5.6012,5.6012,5.6012,5.6012,5.6012,5.5846,0.0,0.0,5.4662,5.3676,0.0,0.0,5.1103,5.0448,4.9778,4.9401,4.9206,4.9046,4.8943,4.8909,4.8909,4.8909,4.8909,4.8909,0.0,4.8909,4.8909,4.8909,4.8909,4.8909,0.0,0.0,0.0,4.8909,4.8909,4.8909,4.9243,4.9577,0.0,5.0209,5.0822,5.0822,0.0,5.1398,5.1398,5.0803,5.0153,4.967,4.9968,5.0387,5.0553,5.128,5.1866,5.2207,5.2037,5.1779,5.1414,5.0971,5.0702,5.0702,5.0702,5.0702,5.0702,5.0702,5.0702,5.0702,5.0702,5.0702,5.0702,5.0702,5.0757,5.0846,5.123,5.1689,5.2221,5.3962,5.4987,5.5335,5.5799,5.6012,5.6012,5.607,5.6089,5.6109,5.6205,5.6246,5.6246,5.6284,5.6341,5.6378,5.6344,5.6419,5.6481,0.0,0.0,0.0,0.0,0.0,0.0,0.0,0.0,0.0,0.0,0.0,0.0,0.0,0.0,0.0,0.0,0.0,0.0,0.0,0.0,0.0,5.6012,5.6012,5.6012,5.6012,5.5921,5.5902,5.5902,0.0,0.0,5.5477,5.5141,5.4375,0.0,5.2246,5.149,0.0,0.0,0.0,4.9347,4.9036,4.8909,4.8909,4.8874,4.8874,4.8874,4.8874,0.0,0.0,0.0,0.0,4.8909,4.8909,4.8909,0.0,0.0,0.0,0.0,0.0,0.0,5.0153,5.0376,5.1063,5.1695,0.0,0.0,5.2011,0.0,5.2011,5.1769,5.102,5.1225,5.146,5.126,5.2076,5.2726,5.2761,5.2459,5.2068,5.1664,5.1068,5.0702,5.0702,5.0702,5.0702,5.0702,5.0702,5.0702,5.0702,5.0702,5.0702,5.0702,5.0702,5.072,5.0775,5.0846,5.1357,5.2221,5.3517,5.4368,5.4813,5.5412,5.5818,5.6012,5.6012,5.6012,5.6012,5.6109,5.6147,5.6147,5.6205,5.6244,5.6278,5.6278,5.631,5.6377,0.0,0.0,0.0,0.0,0.0,0.0,0.0,0.0,0.0,0.0,0.0,0.0,0.0,5.5905,5.5924,5.5999,5.5999,5.5998,5.6012,5.6012,5.6012,5.6012,5.6012,0.0,5.6012,5.575,5.5628,5.5628,0.0,0.0,5.5115,5.4847,5.4597,5.4288,5.3478,5.248,5.1393,0.0,0.0,0.0,0.0,4.8909,4.8909,0.0,0.0,0.0,0.0,0.0,0.0,0.0,0.0,0.0,0.0,0.0,4.8909,0.0,0.0,0.0,0.0,5.0079,0.0,5.1138,5.1936,0.0,0.0,0.0,5.3683,5.3683,5.3683,5.3535,5.3013,5.2381,5.2118,5.285,5.3481,5.3626,5.2818,5.2957,5.2549,5.0952,5.0721,5.0702,5.0702,5.0702,5.0702,5.0702,5.0702,5.0702,5.0702,5.0702,5.0702,5.0702,5.0683,5.0702,5.0701,5.0829,5.1357,5.2202,5.2279,5.3188,5.4793,5.4832,5.5277,5.6012,5.6012,5.6012,5.6012,5.6012,5.6012,5.6012,5.6012,5.6089,5.6205,5.6203,5.6259,5.6304,0.0,0.0,0.0,0.0,0.0,0.0,0.0,0.0,0.0,0.0,0.0,0.0,0.0,5.5446,5.5493,5.5306,5.5493,5.5605,5.5607,5.5827,5.5942,5.5942,5.5808,5.5747,5.5747,5.5474,5.5317,0.0,0.0,5.4828,5.472,5.4416,5.4214,5.4125,5.3265,5.2636,5.214,5.1286,0.0,0.0,0.0,0.0,0.0,0.0,0.0,0.0,0.0,0.0,0.0,0.0,0.0,0.0,0.0,0.0,0.0,0.0,0.0,0.0,0.0,0.0,0.0,5.1955,5.2791,5.3367,5.3367,5.359,5.3813,5.3813,5.3813,5.3814,5.3871,5.3639,5.3502,5.3642,5.3868,5.3986,5.3859,5.2986,5.2145,5.1548,5.101,5.0702,5.0702,5.0702,5.0702,5.0702,5.0702,5.0702,5.0702,5.0702,5.0702,5.0702,5.0702,5.0721,5.0756,5.0846,5.1051,5.137,5.1931,5.2531,5.3169,5.4291,5.4967,5.5258,5.578,5.6012,5.6012,5.6012,5.6012,5.6012,5.6012,5.6031,5.607,5.607,5.6147,5.6242,0.0,0.0,0.0,0.0,0.0,0.0,0.0,0.0,0.0,5.499,0.0,0.0,0.0,0.0,5.5404,5.5205,5.5446,5.5561,5.5561,5.5787,5.5905,5.5905,5.5785,5.5703,5.5703,5.5331,5.5115,5.508,0.0,0.0,0.0,5.4091,5.4,5.3926,5.3349,5.3051,0.0,0.0,0.0,5.1788,0.0,0.0,5.1194,0.0,0.0,0.0,0.0,0.0,0.0,0.0,0.0,0.0,0.0,0.0,0.0,0.0,0.0,0.0,5.0212,0.0,0.0,0.0,0.0,5.3813,5.3813,0.0,5.3813,5.3813,5.3813,5.3889,5.4246,5.4397,5.4446,5.4435,5.4273,5.4143,5.4066,5.2818,5.1798,5.1529,5.1029,5.0702,5.0702,5.0702,5.0702,5.0702,5.0702,0.0,5.0702,5.0702,5.0702,5.0702,5.0702,5.074,5.0793,5.0846,5.088,5.0925,5.1486,5.1912,5.224,5.3401,5.4252,5.4832,5.5374,5.576,5.6012,5.6012,5.6012,5.6012,5.6012,5.6012,5.6012,5.6012,5.607,5.6147,0.0,0.0,0.0,0.0,0.0,0.0,0.0,0.0,0.0,5.5164,0.0,0.0,0.0,0.0,0.0,5.5745,5.5826,5.5846,5.5846,5.5846,5.5865,5.5865,5.5846,5.5865,5.5865,5.5282,5.4971,5.4971,5.4364,5.4073,5.3982,0.0,5.3944,5.3813,5.3813,5.3813,5.3757,0.0,5.2642,5.2568,0.0,5.125,5.125,0.0,0.0,0.0,5.0922,5.0904,0.0,5.106,0.0,0.0,0.0,0.0,0.0,0.0,0.0,0.0,0.0,0.0,0.0,0.0,0.0,0.0,5.3813,0.0,5.3813,5.3813,5.3813,5.3907,5.4246,5.4591,5.4895,5.5224,5.4818,5.4164,5.328,5.2414,5.1568,5.0779,5.0702,5.0702,5.0702,5.0702,5.0702,5.0702,5.0702,5.0702,5.0702,5.0702,5.0702,5.0702,5.0702,5.074,5.0793,5.0793,5.0844,5.089,5.089,5.1351,5.2163,5.2182,5.3111,5.4735,5.4774,5.5238,5.5973,5.5993,5.6012,5.6012,5.6012,5.6012,5.6012,5.6012,5.6012,5.6031,0.0,0.0,0.0,0.0,0.0,0.0,5.3926,5.3926,5.3981,0.0,0.0,0.0,5.4311,5.4345,5.4425,5.4708,5.4739,5.4739,5.4739,5.499,5.5099,5.5099,5.4914,5.4809,5.4809,5.4509,5.4334,5.4284,5.411,5.3982,5.3851,5.3851,5.3851,0.0,5.3813,5.3813,5.3794,5.3571,0.0,0.0,5.3026,5.2856,0.0,0.0,0.0,0.0,0.0,5.132,5.0824,0.0,5.0882,5.0882,0.0,0.0,0.0,0.0,0.0,0.0,5.1804,0.0,0.0,0.0,0.0,0.0,0.0,0.0,5.3813,5.3813,5.3813,5.3963,5.456,5.4746,5.479,5.4741,5.4064,5.326,5.2395,5.1548,5.0952,5.0721,5.0702,5.0702,5.0702,5.0702,5.0702,0.0,5.0702,5.0702,5.0702,5.0702,5.0702,5.0702,5.0702,5.0721,5.072,5.072,5.0793,5.0897,5.0897,5.1029,5.1273,5.1912,5.2453,5.2995,5.4252,5.4929,5.518,5.576,5.6012,5.6012,5.6012,5.6012,5.6012,5.6012,5.6012,5.6012,0.0,0.0,0.0,0.0,0.0,5.3813,5.3813,5.3813,5.3832,0.0,0.0,0.0,5.4212,5.4212,5.4315,5.4495,5.4495,5.4495,5.4495,5.4685,5.4806,5.4806,5.4635,5.4572,5.4572,5.4315,5.4179,5.4127,5.4,5.3907,5.3813,5.3813,5.3813,5.3813,0.0,0.0,0.0,0.0,0.0,0.0,5.3499,0.0,0.0,5.3248,5.2913,0.0,0.0,0.0,5.1811,5.1811,5.1811,0.0,0.0,0.0,0.0,0.0,0.0,0.0,0.0,0.0,0.0,0.0,0.0,0.0,5.3813,5.3813,5.3813,5.3813,5.3813,5.3926,5.4315,5.4623,5.4525,5.3683,5.3344,5.2895,5.2029,5.1202,5.0702,5.0702,5.0702,5.0702,5.0702,5.0702,5.0702,5.0702,5.0702,5.0702,5.0702,5.0702,5.0702,5.0702,5.0702,5.0683,5.0701,5.0701,5.0775,5.0899,5.0899,5.0897,5.0925,5.1428,5.1854,5.226,5.3265,5.4136,5.4832,5.5316,5.5702,5.6012,5.6012,5.6012,5.6012,5.6012,5.6012,5.6012,0.0,0.0,5.3813,5.3813,5.3813,5.3813,5.3813,5.3813,5.3907,0.0,5.4246,5.4364,5.4654,5.4685,5.4685,5.4685,5.4685,5.4685,5.4685,5.4685,5.4685,5.4685,5.4685,5.4685,5.4685,5.4397,5.4246,5.4246,5.3926,5.3813,5.3813,5.3813,5.3813,5.3774,0.0,0.0,0.0,0.0,0.0,5.3656,5.34,5.33,0.0,0.0,5.3206,5.3206,5.3206,5.3206,5.3206,5.3206,5.3206,0.0,0.0,0.0,0.0,0.0,5.2123,0.0,0.0,0.0,0.0,0.0,0.0,0.0,5.3813,5.3813,5.3813,5.3813,5.3832,5.387,5.3889,5.443,5.4315,5.2589,5.282,5.2856,5.1914,5.1144,5.0702,5.0702,5.0702,5.0702,5.0702,5.0702,5.0702,5.0702,5.0702,5.0702,5.0702,5.0702,5.0702,5.0702,5.0702,5.0702,5.0682,5.0682,5.0757,5.0883,5.0899,5.0897,5.089,5.089,5.1331,5.2047,5.2163,5.3072,5.4523,5.4716,5.5277,5.6012,5.6012,5.6012,5.6012,5.6012,5.6012,5.6012,0.0,0.0,5.3813,5.3813,5.3813,5.3813,5.3813,5.3813,5.3832,5.3907,5.3907,5.3926,5.4,5.4,5.4,5.4,5.4,5.4,5.4,5.4,5.4,5.4,5.4,5.4,5.4,5.3926,5.3907,5.3907,5.3832,5.3813,5.3813,5.3813,5.3774,5.3734,0.0,0.0,0.0,0.0,0.0,5.3359,5.344,0.0,5.3277,5.323,5.3206,5.3206,5.3206,5.3206,5.3206,5.3206,5.3206,5.3206,0.0,0.0,0.0,0.0,0.0,0.0,0.0,0.0,0.0,0.0,0.0,0.0,5.3774,5.3813,5.3813,5.3813,5.4017,5.4262,5.456,5.4924,5.4734,5.3242,5.3102,5.2664,5.1144,5.0798,5.0702,5.0702,5.0702,5.0702,5.0702,5.0702,5.0702,5.0702,5.0702,5.0702,5.0702,5.0702,5.0702,5.0702,5.0702,5.0702,5.0702,5.0702,5.0721,5.0739,5.0793,5.0846,5.0897,5.0909,5.1003,5.1196,5.1892,5.2376,5.2821,5.4213,5.5277,5.6012,5.6012,5.6012,5.6012,5.6012,5.6012,5.6012,0.0,0.0,5.3813,5.3813,5.3813,5.3813,5.3813,5.3813,5.3813,5.3813,5.3813,5.3813,5.3813,5.3813,5.3813,5.3813,5.3813,5.3813,5.3813,5.3813,5.3813,5.3813,5.3813,5.3813,5.3813,5.3813,5.3813,5.3813,5.3813,5.3813,5.3813,5.3754,5.3734,5.3714,0.0,0.0,0.0,0.0,5.3318,5.3254,5.3314,0.0,5.3272,5.3206,5.3206,5.3206,5.3206,5.3206,5.3206,5.3206,5.3206,0.0,0.0,5.3206,5.3206,0.0,5.3206,5.3206,0.0,0.0,0.0,5.3558,0.0,0.0,0.0,5.3754,5.3813,5.4,5.4177,5.4397,5.4746,5.5064,5.4937,5.3775,5.3368,5.276,5.1471,5.0952,5.0702,5.0702,5.0702,5.0702,5.0702,5.0702,5.0702,5.0702,5.0702,5.0702,5.0702,5.0702,5.0702,5.0702,5.0702,5.0702,5.0702,5.0702,5.0702,5.0701,5.072,5.0793,5.0899,5.0897,5.0893,5.0925,5.137,5.1796,5.226,5.313,5.4252,5.5451,5.5838,5.6012,5.6012,5.6012,5.6012,5.6012,0.0,0.0,5.3813,5.3813,5.3813,5.3813,5.3813,5.3813,5.3868,5.4017,5.4184,5.4277,5.4277,5.4108,0.0,0.0,5.3867,5.3774,5.3774,5.3774,5.3774,5.3813,5.3813,5.3813,5.3813,5.3813,5.3813,5.3813,5.3813,5.3813,5.3774,5.3734,5.3656,0.0,0.0,0.0,0.0,0.0,0.0,5.3206,0.0,5.3206,5.3206,5.3206,5.3206,5.3206,5.3206,5.3206,5.3206,5.3206,5.3206,5.3206,5.3206,5.3206,0.0,0.0,0.0,0.0,0.0,0.0,0.0,0.0,0.0,5.3499,0.0,0.0,0.0,0.0,0.0,0.0,0.0,0.0,0.0,0.0,0.0,0.0,0.0,5.1587,0.0,5.0741,5.0702,5.0702,5.0702,5.0702,5.0702,5.0702,5.0702,5.0702,5.0702,5.0702,5.0702,5.0702,5.0702,5.0702,5.0702,5.0702,5.0702,5.0702,5.0701,5.0757,5.0883,5.0899,5.0897,5.0906,5.0906,5.1312,5.195,5.2124,5.3033,5.4407,5.5374,5.5857,5.6012,5.6012,5.6012,5.6012,5.4091,5.3813,0.0,5.3813,5.3813,5.3813,5.3813,5.3813,5.4073,5.4779,5.554,5.6023,0.0,0.0,0.0,0.0,0.0,0.0,5.3695,0.0,5.3734,5.3813,5.3813,5.3813,5.3813,5.3813,5.3813,5.3813,5.3813,5.3793,5.3695,5.3695,5.3558,0.0,5.3318,0.0,0.0,0.0,5.3206,0.0,5.3206,5.3206,0.0,5.3206,5.3206,5.3206,5.3206,5.3206,5.3206,0.0,5.3206,5.3206,0.0,5.3206,5.3206,0.0,0.0,0.0,0.0,0.0,0.0,0.0,5.33,0.0,0.0,0.0,5.3621,5.405,0.0,0.0,0.0,0.0,0.0,0.0,0.0,0.0,5.3164,5.2972,5.2356,5.0875,5.0702,5.0702,5.0702,5.0702,5.0702,5.0702,5.0702,5.0702,5.0702,5.0702,5.0702,5.0702,5.0702,5.0702,5.0702,5.0702,5.0683,5.0702,5.0702,5.0738,5.081,5.0863,5.0897,5.0906,5.0906,5.0964,5.1119,5.1873,5.2318,5.2647,5.4291,5.5374,5.6012,5.6012,5.6012,5.6012,5.5391,5.5261,0.0,0.0,5.5261,5.5261,5.5261,5.5261,5.5373,5.5707,5.6079,5.6302,0.0,0.0,0.0,0.0,0.0,5.43,0.0,0.0,0.0,5.3716,5.3774,5.3813,5.3813,5.3754,5.3716,5.3716,5.3658,5.3619,5.3598,5.3499,5.3418,0.0,5.3254,0.0,5.3206,0.0,5.3206,0.0,0.0,0.0,0.0,5.3206,5.3206,5.3206,5.3206,5.3206,5.3206,0.0,5.3206,0.0,0.0,0.0,0.0,0.0,0.0,0.0,0.0,0.0,0.0,0.0,0.0,0.0,5.3359,0.0,5.3545,0.0,0.0,0.0,0.0,0.0,0.0,0.0,5.4799,0.0,0.0,0.0,5.276,0.0,0.0,0.0,5.0741,5.0702,5.0702,5.0702,5.0702,5.0702,5.0702,5.0702,5.0702,5.0702,5.0702,5.0702,5.0702,5.0702,5.0702,5.0702,5.0702,5.0702,5.0738,5.081,5.0863,5.0913,5.0909,5.0906,5.0945,5.1293,5.1738,5.226,5.3014,5.4116,5.5354,5.5838,5.6012,5.6012,5.697,0.0,0.0,0.0,5.6302,5.6302,5.6302,5.6487,5.6636,0.0,0.0,0.0,5.697,5.6726,0.0,0.0,5.5591,5.5069,0.0,0.0,5.4189,0.0,0.0,0.0,0.0,5.3676,5.3656,5.3656,5.3539,5.3499,5.344,5.3359,5.3277,5.3295,0.0,5.3206,5.3206,0.0,5.3206,5.3206,5.3164,5.3103,5.3121,5.3164,5.3206,5.3206,5.3206,5.3206,5.3206,5.3206,5.3206,0.0,5.3206,0.0,0.0,0.0,0.0,0.0,5.3206,0.0,0.0,0.0,0.0,0.0,0.0,0.0,0.0,0.0,0.0,0.0,0.0,0.0,0.0,0.0,0.0,5.4818,0.0,5.428,0.0,0.0,0.0,0.0,0.0,5.0202,5.0337,5.0337,5.0548,5.0702,5.0702,5.0702,5.0702,5.0702,5.0702,5.0702,5.0702,5.0702,5.0702,5.0702,5.0702,5.0702,5.0701,5.0738,5.0829,5.0899,5.0893,5.0909,5.0906,5.0906,5.1273,5.1873,5.2105,5.2975,5.4213,5.5277,5.5818,5.6012,5.8624,5.7379,0.0,0.0,0.0,0.0,5.6302,0.0,0.0,0.0,0.0,0.0,0.0,0.0,0.0,0.0,0.0,5.5643,5.5767,0.0,5.5404,0.0,0.0,5.4312,0.0,0.0,5.3499,5.3499,5.3499,5.344,5.3318,5.33,5.3254,5.3206,5.3206,5.3206,5.3206,5.3206,5.3206,5.3206,5.306,5.2955,5.2868,0.0,5.3206,5.3206,5.3206,0.0,0.0,5.3206,5.3206,0.0,0.0,0.0,0.0,0.0,0.0,0.0,0.0,0.0,0.0,5.3206,0.0,0.0,0.0,0.0,5.3545,0.0,0.0,0.0,0.0,0.0,0.0,0.0,0.0,0.0,0.0,0.0,0.0,0.0,0.0,0.0,0.0,4.8952,4.9433,4.9433,5.0221,5.0702,5.0702,5.0702,5.0702,5.0702,5.0702,5.0702,5.0702,5.0702,5.0702,5.0702,5.0702,5.0702,5.0701,5.0701,5.0775,5.0899,5.0899,5.0897,5.0906,5.0906,5.0925,5.1041,5.1873,5.2221,5.2492,5.4213,5.5335,5.6012,0.0,0.0,0.0,0.0,0.0,0.0,0.0,5.8122,0.0,0.0,0.0,0.0,0.0,5.8196,5.7943,0.0,0.0,5.6507,5.6444,5.6055,0.0,0.0,0.0,5.5143,0.0,0.0,0.0,0.0,5.3553,5.3272,5.323,5.323,5.323,5.3206,0.0,5.3206,0.0,0.0,0.0,0.0,0.0,5.285,5.2806,0.0,5.293,5.293,5.293,5.2999,0.0,5.306,5.3121,5.3206,5.3206,5.3206,5.3206,5.3206,5.3206,0.0,0.0,0.0,5.3206,5.3206,0.0,0.0,0.0,0.0,0.0,0.0,0.0,0.0,0.0,0.0,0.0,0.0,0.0,0.0,0.0,0.0,0.0,0.0,0.0,0.0,0.0,0.0,4.9394,4.9394,5.0202,5.0702,5.0702,5.0702,5.0702,5.0702,5.0702,5.0702,5.0702,5.0702,5.0702,5.0702,5.0702,5.0702,5.0702,5.0702,5.072,5.0775,5.0846,5.0916,5.0897,5.0909,5.0906,5.0945,5.1215,5.1699,5.2337,5.3498,5.4484,5.5277,5.8716,0.0,0.0,0.0,0.0,0.0,0.0,0.0,0.0,0.0,5.8486,0.0,5.8393,0.0,5.8286,0.0,5.7674,5.7334,5.7226,5.6793,0.0,5.5331,5.5896,0.0,0.0,0.0,0.0,0.0,0.0,5.3482,5.3206,5.3206,5.3206,5.3206,0.0,5.3164,5.3103,5.3042,5.2999,0.0,0.0,5.2717,0.0,0.0,5.2735,5.2806,0.0,5.2868,5.2955,5.2955,5.2999,5.3103,5.3103,5.3164,5.3206,5.3206,5.3206,5.3206,5.3206,5.3206,0.0,5.3206,5.3206,0.0,5.3206,0.0,0.0,0.0,0.0,0.0,0.0,0.0,0.0,0.0,0.0,0.0,0.0,5.5011,0.0,0.0,0.0,0.0,0.0,4.8432,4.9067,4.9375,5.0202,5.0702,0.0,5.0702,5.0702,5.0702,5.0702,5.0702,5.0702,5.0702,5.0702,5.0702,5.0702,5.0702,5.0683,5.0702,5.0702,5.0701,5.0793,5.0846,5.0863,5.0877,5.0893,5.0893,5.089,5.1235,5.1834,5.2724,5.3788,5.4871,0.0,0.0,0.0,0.0,5.8698,0.0,0.0,0.0,5.8511,0.0,5.8418,5.8393,5.8393,5.8242,5.8197,5.8197,5.8088,5.7997,5.7997,5.7997,0.0,0.0,5.684,5.6124,5.4546,0.0,0.0,0.0,0.0,0.0,5.328,5.3225,5.3206,0.0,5.3206,0.0,5.2999,5.2999,5.2912,5.2761,5.2654,5.2536,5.2498,5.2498,5.2618,5.2779,5.2779,5.2806,5.2806,5.2806,5.2893,5.2999,5.2999,5.3103,5.3206,5.3206,5.3206,5.3206,5.3206,5.3206,5.3206,5.3206,5.3206,0.0,0.0,0.0,5.3363,0.0,0.0,0.0,0.0,0.0,0.0,0.0,0.0,0.0,0.0,0.0,0.0,0.0,0.0,0.0,0.0,4.7625,4.8471,4.9336,5.0202,5.0702,0.0,5.0702,5.0702,5.0702,5.0702,5.0702,5.0702,5.0702,5.0702,5.0702,5.0702,5.0702,5.0702,5.0702,5.0702,5.0701,5.0701,5.0757,5.0793,5.0863,5.0899,5.0899,5.0909,5.089,5.1022,5.1873,5.3246,5.4677,5.8716,5.8614,5.8553,0.0,5.8553,5.8553,0.0,0.0,0.0,0.0,5.8242,5.8197,5.8088,5.8088,5.8042,5.8042,5.7997,0.0,0.0,0.0,0.0,5.684,5.7373,5.7226,5.6216,5.64,0.0,5.5886,0.0,0.0,5.4087,5.3482,5.3206,0.0,0.0,0.0,5.2999,5.2893,5.2735,5.2572,5.2526,5.2526,5.2498,0.0,5.2526,5.2572,5.2572,5.269,5.2761,5.2698,5.2806,5.2999,5.2999,5.3042,5.306,5.3164,5.3206,5.3206,5.3206,5.3206,5.3206,5.3206,5.3206,5.3206,0.0,0.0,0.0,0.0,0.0,0.0,0.0,0.0,0.0,0.0,0.0,0.0,0.0,0.0,0.0,5.1818,0.0,0.0,4.7182,4.7625,4.8471,4.9336,5.0202,5.0702,5.0702,0.0,5.0702,5.0702,5.0702,5.0702,5.0702,5.0702,5.0702,5.0702,5.0702,5.0702,5.0702,5.0702,5.0702,5.0702,5.0702,5.0701,5.072,5.0793,5.0846,5.0899,5.0897,5.0893,5.1022,5.1873,5.2472,5.3053,5.8716,0.0,0.0,5.8486,0.0,0.0,5.8443,5.8375,0.0,5.8197,5.8152,0.0,5.7997,5.7997,5.7997,5.7997,5.7997,0.0,5.7997,0.0,0.0,5.7336,5.7758,5.7611,5.6822,5.7152,0.0,5.6271,0.0,0.0,5.4399,5.394,5.3555,0.0,0.0,5.3103,5.2893,5.2735,5.2618,5.2498,5.2209,5.2275,0.0,5.2228,5.2275,5.2498,5.2498,5.2572,5.2645,5.2581,5.2735,5.2893,5.2893,5.2999,5.3103,5.3164,5.3206,5.3206,5.3206,5.3206,5.3206,5.3206,5.3206,5.3206,5.3206,5.3206,5.3206,0.0,5.34,5.3545,0.0,0.0,0.0,0.0,0.0,0.0,0.0,0.0,0.0,0.0,5.2145,0.0,4.8779,4.9298,4.9817,4.9952,5.0741,5.1068,0.0,0.0,5.0702,5.0702,5.0702,5.0702,5.0702,5.0702,5.0702,5.0702,5.0702,5.0702,5.0702,5.0702,5.0702,5.0683,5.0702,5.0702,5.0702,5.0739,5.0775,5.0829,5.0883,5.0897,5.0951,5.1467,5.1873,5.2337,5.8675,0.0,0.0,0.0,0.0,0.0,0.0,5.8242,0.0,5.8197,0.0,5.7997,5.7997,5.7997,5.7997,5.7997,0.0,5.7997,5.7997,5.7997,5.7997,5.7997,5.7997,5.7666,5.6969,5.7648,5.7299,0.0,0.0,0.0,5.4711,5.4509,0.0,0.0,0.0,0.0,0.0,5.2397,5.2257,5.2209,5.1719,5.1817,5.2209,5.1651,5.1817,5.2275,5.2322,5.2434,5.2526,5.2498,5.2599,5.2761,5.2761,5.2955,5.3164,5.3164,5.3164,5.3206,5.3206,5.3206,5.3206,5.3206,5.3206,5.3206,5.3206,5.3206,5.3206,5.3206,5.3206,5.3206,0.0,0.0,0.0,0.0,0.0,0.0,0.0,0.0,0.0,0.0,0.0,0.0,5.1106,5.1356,5.1337,5.0741,5.1356,0.0,0.0,0.0,5.0702,5.0702,5.0702,5.0702,5.0702,5.0702,5.0702,5.0702,5.0702,5.0702,5.0702,5.0702,5.0702,5.0702,5.0702,5.0702,5.0702,5.0702,5.0701,5.0701,5.0846,5.0899,5.0899,5.0893,5.1373,5.2047,0.0,0.0,0.0,0.0,0.0,5.8088,5.8088,5.8042,5.8042,5.8042,5.7997,5.7997,5.7997,5.7997,5.7997,5.7997,5.7997,0.0,0.0,0.0,0.0,5.7997,5.7997,5.7923,5.7795,5.7923,5.785,0.0,0.0,0.0,5.6363,5.5023,0.0,0.0,0.0,0.0,5.2108,5.1345,0.0,5.1034,5.0911,5.0911,5.1017,5.0911,5.0911,5.1087,5.1601,5.2108,5.2563,5.2526,5.2554,5.2654,5.2654,5.2743,5.2912,5.2999,5.3103,5.3206,5.3206,5.3206,5.3206,5.3206,5.3206,5.3206,5.3206,5.3206,5.3206,5.3206,5.3206,5.3206,5.3206,0.0,0.0,0.0,0.0,0.0,0.0,0.0,0.0,0.0,0.0,5.4087,5.2874,5.0991,5.0087,5.0644,5.0818,5.0837,0.0,0.0,5.0702,0.0,5.0702,5.0702,0.0,0.0,5.0702,5.0702,5.0702,5.0702,5.0702,5.0702,5.0702,5.0702,5.0702,5.0702,5.0683,5.0702,5.0702,5.0701,5.0793,5.081,5.081,5.0827,5.0941,5.1225,0.0,0.0,0.0,0.0,0.0,0.0,0.0,5.7997,5.7997,5.7997,5.7997,5.7997,5.7997,5.7997,5.7997,5.7997,5.7997,5.7997,5.7997,5.7997,5.7997,5.7997,5.7997,5.7997,5.7997,5.7997,5.7997,5.7997,0.0,0.0,5.6785,5.6014,0.0,5.4214,0.0,5.2072,0.0,0.0,0.0,5.0697,5.0387,5.0442,5.0697,5.0697,5.0911,5.126,5.1835,5.2257,5.2554,5.248,5.2554,5.259,5.259,5.2698,5.2806,5.2955,5.306,5.3103,5.3164,5.3206,5.3206,5.3206,5.3206,5.3206,5.3206,5.3206,5.3206,5.3206,5.3206,5.323,5.344,5.3604,0.0,0.0,0.0,0.0,0.0,0.0,0.0,0.0,0.0,0.0,0.0,5.2024,5.1324,0.0,0.0,5.1798,5.1356,0.0,5.1125,0.0,0.0,0.0,5.0702,0.0,5.0702,5.0702,5.0702,5.0702,5.0702,5.0702,5.0702,5.0702,5.0702,5.0702,5.0702,5.0702,5.0702,5.0702,5.0739,5.0757,5.0738,5.0793,5.081,5.0921,0.0,5.8242,0.0,0.0,5.8106,0.0,5.7997,5.7997,5.7997,5.7997,5.7997,5.7997,5.7997,5.7997,5.7997,5.7997,5.7997,5.7997,5.7997,5.7997,5.7997,5.7997,5.7997,5.795,5.795,5.795,5.7886,0.0,0.0,0.0,0.0,5.6722,0.0,0.0,0.0,0.0,0.0,0.0,5.0802,5.0745,5.0355,5.0455,5.0802,5.0802,5.1101,5.1544,5.2153,5.2372,5.2322,5.2452,5.2554,5.2563,5.2563,5.2654,5.2761,5.2893,5.2955,5.3042,5.3103,5.3164,5.3206,5.3206,5.3206,5.3206,5.3206,5.3206,5.3206,5.3206,5.3206,5.3272,5.3563,5.3584,0.0,0.0,0.0,0.0,0.0,0.0,0.0,0.0,0.0,0.0,5.3916,0.0,0.0,0.0,0.0,5.2895,5.2222,5.2183,5.1798,0.0,0.0,5.0856,5.0702,0.0,5.0702,5.0702,5.0702,5.0702,5.0702,5.0702,5.0702,5.0702,5.0702,5.0702,5.0702,5.0702,5.0798,5.0952,5.0952,5.1068,5.1222,5.1085,5.1045,5.1043,0.0,0.0,0.0,0.0,0.0,0.0,5.7997,5.7997,5.7997,5.7997,5.7997,5.7997,5.7997,5.7997,5.7997,5.7997,5.7997,5.7997,5.7997,5.7997,5.7997,5.7997,5.7886,5.7792,5.7792,5.7697,5.7649,0.0,0.0,5.7755,0.0,0.0,0.0,0.0,0.0,0.0,0.0,5.1452,5.1172,5.1172,5.1125,5.1125,5.1172,5.1172,5.1104,5.1159,5.1766,5.1847,5.1768,5.234,5.2498,5.248,5.248,5.2554,5.2635,5.2635,5.2787,5.2999,5.2999,5.3103,5.3206,5.3206,5.3206,5.3206,5.3206,5.3206,5.3206,5.3206,5.3206,5.3206,5.323,5.3248,5.3272,0.0,0.0,0.0,0.0,0.0,0.0,0.0,0.0,0.0,0.0,5.3974,0.0,0.0,5.3859,5.3164,5.3087,5.3087,5.2683,5.1818,5.1798,5.1433,5.0702,5.0702,5.0702,5.0702,5.0702,5.0702,5.0702,5.0702,5.0702,5.0702,5.0702,5.0702,5.0702,5.0702,5.1125,5.1798,5.1798,5.226,5.2856,5.2087,5.1838,5.178,0.0,0.0,0.0,0.0,0.0,0.0,0.0,5.7997,5.7997,5.7997,5.7997,5.7997,5.7997,5.7997,5.7997,5.7997,5.7997,5.7997,5.7997,5.7932,5.7904,5.7904,5.7745,5.7697,5.7697,5.7649,5.7419,0.0,0.0,0.0,0.0,0.0,0.0,0.0,0.0,5.201,5.1595,5.1329,5.1217,5.1217,5.1217,5.1217,5.1217,5.1629,5.1733,5.176,5.2328,5.273,5.301,5.3232,5.2954,5.2498,5.2498,5.2526,5.2554,5.2608,5.2698,5.2806,5.2955,5.3042,5.3103,5.3164,5.3206,5.3206,5.3206,5.3206,5.3206,5.3206,5.3206,5.3206,5.3206,5.3206,5.3206,5.3206,0.0,0.0,0.0,0.0,0.0,0.0,0.0,0.0,0.0,0.0,0.0,0.0,0.0,5.3972,5.3972,5.3804,5.336,5.2702,0.0,5.2324,5.2202,5.2202,5.2202,5.2202,5.2202,5.2202,5.2202,5.2202,5.1914,5.1395,5.0914,5.0971,5.1414,5.1414,5.1914,5.2683,5.2683,5.2895,5.3087,5.2222,5.1914,5.1818,5.7997,0.0,5.7997,0.0,5.7997,5.7997,5.7997,5.7997,5.7997,5.7997,5.7997,5.7997,5.7997,5.7997,5.7997,5.7997,5.7997,5.7997,5.7997,5.7886,5.7792,5.7792,5.7649,0.0,5.727,5.722,5.693,5.633,5.6367,0.0,0.0,0.0,0.0,0.0,5.2815,5.2294,5.1894,5.1894,5.1894,5.1894,5.1894,5.1894,5.1942,5.2357,5.2499,5.2459,5.2938,5.3299,5.3655,5.3833,5.3447,5.2979,5.3139,5.3204,5.3233,5.3271,5.3199,5.3044,5.3303,5.3225,5.3103,5.3164,5.3206,5.3206,5.3206,5.3206,5.3206,5.3206,5.3206,5.3206,5.3206,5.3206,5.3206,5.3206,0.0,0.0,0.0,5.3206,0.0,0.0,5.3206,5.3295,5.3604,5.3814,0.0,0.0,0.0,5.458,5.4729,5.4415,0.0,0.0,0.0,0.0,5.2909,5.2909,5.2909,5.2909,5.2909,5.2909,5.2909,5.2996,5.2732,5.2118,5.1644,5.176,5.2279,5.2279,5.2799,5.3587,5.3587,5.3722,5.3799,5.2702,5.2279,5.2145,5.8042,5.7997,5.7997,5.7997,5.7997,5.7997,5.7997,5.7997,5.7997,5.7997,5.7997,5.7997,5.7997,5.7997,5.7997,5.7997,5.7997,5.7997,5.7997,5.7886,5.7792,0.0,0.0,5.712,5.651,5.6348,5.6017,5.5385,0.0,0.0,5.5512,0.0,5.4328,5.3683,5.3534,5.3484,5.3467,5.3467,5.3467,5.3467,5.3467,5.3467,5.3467,5.3484,5.3338,5.3174,5.3191,5.3133,5.3106,5.3727,5.3868,5.3973,5.4639,5.487,5.487,5.496,5.4472,5.4009,5.4162,5.3708,5.3206,5.3206,5.3206,5.3206,5.3206,5.3206,5.3206,5.3206,5.3206,5.3206,5.3206,5.3206,5.3206,5.3206,0.0,0.0,0.0,0.0,0.0,5.3206,5.3206,5.3206,5.3206,5.3565,0.0,0.0,0.0,0.0,0.0,0.0,0.0,5.3518,5.3499,0.0,5.2219,5.2219,5.2219,5.2219,5.2219,5.2219,5.2219,5.2558,5.2684,5.2709,5.302,5.3183,5.3183,5.3183,5.3703,5.4472,5.4472,5.4972,5.5472,5.3799,5.3183,5.2953,5.7997,5.7997,5.7997,5.7997,5.7997,5.7997,5.7997,5.7997,5.7997,5.7997,5.7997,5.7997,5.7997,5.7904,5.7839,0.0,5.7792,5.7745,0.0,5.7601,5.7553,5.7553,5.6948,5.6582,5.6366,5.5904,5.5367,5.4703,0.0,0.0,0.0,5.3946,5.3783,5.3551,5.3501,5.3501,5.3501,5.3501,5.3501,5.3501,5.3501,5.3501,5.3501,5.3501,5.3465,5.3474,5.3874,5.4287,5.4653,5.5326,5.5829,5.6158,5.6396,5.577,5.4978,5.5007,5.4919,5.4829,5.4966,5.4444,5.3884,5.3989,5.361,5.3206,5.3206,5.3206,5.3206,5.3206,5.3206,5.3206,5.3206,5.3206,5.3206,5.3206,5.3206,0.0,5.3206,0.0,5.3206,5.3206,5.3206,5.3206,5.3206,5.3341,0.0,0.0,0.0,0.0,0.0,0.0,0.0,0.0,5.4145,0.0,5.3962,5.3962,5.3962,5.3962,5.3962,5.3962,5.3943,5.3471,5.3233,5.3223,5.2734,5.3003,5.3747,5.3747,5.4357,5.5318,5.5318,5.5145,5.4741,5.3626,5.2818,5.2164,5.7997,5.7997,5.7997,5.7997,5.7997,5.7997,5.7997,5.7997,5.7997,5.7997,5.7997,5.7997,5.7997,5.7857,0.0,5.7792,5.7697,5.7601,5.7601,5.7486,5.7289,5.7069,5.6582,5.6073,5.5601,5.5189,0.0,5.4059,5.4059,5.3898,5.3501,5.3501,5.3501,5.3501,5.3501,5.3501,5.3501,5.3501,5.3501,5.3501,5.3501,5.3501,5.3501,5.3501,5.3501,5.3551,5.4171,5.4624,5.5094,5.6017,5.6528,5.6915,5.7138,5.6617,5.5916,5.5916,5.5793,5.565,5.5807,5.5312,5.4752,5.484,5.4252,5.3573,5.328,5.3206,5.3206,5.3206,5.3206,5.3206,5.3206,5.3206,5.3206,5.3206,5.3206,5.3206,5.3206,0.0,5.3206,0.0,0.0,0.0,0.0,5.323,5.3341,0.0,0.0,0.0,0.0,0.0,5.4212,5.443,5.4212,5.4212,5.443,5.443,5.443,5.443,5.443,5.443,5.4411,5.3994,5.378,5.3792,5.3354,5.3604,5.431,5.4435,5.491,5.5535,5.5335,5.4934,5.4357,5.3145,5.2375,5.1779,5.7997,5.7997,5.7997,0.0,5.7997,0.0,5.7997,5.7997,5.7997,5.7997,5.7997,5.7997,5.7997,5.7745,5.7649,5.7745,0.0,0.0,5.7601,5.7388,5.7069,5.651,5.6294,5.5583,5.4454,5.4328,5.4059,5.3501,5.3501,5.3501,5.3501,5.3501,5.3501,5.3501,5.3501,5.3501,5.3501,5.3501,5.3501,5.3501,5.3501,5.3501,5.3501,5.3501,5.3501,5.3551,5.4171,5.4454,5.4641,5.5904,5.6311,5.6474,5.7018,5.7307,5.7406,5.7406,5.6976,5.6554,5.6648,5.62,5.5666,5.5666,5.5078,5.4271,5.3482,5.3298,5.328,5.3225,5.3206,5.3206,5.3206,5.3206,5.3206,5.3206,5.3206,5.3206,5.3206,5.3206,5.3206,0.0,0.0,0.0,5.3206,5.3206,5.3206,0.0,0.0,0.0,0.0,0.0,5.3756,5.3813,5.3813,5.3813,5.3813,5.3813,5.3813,5.3813,5.3813,5.3813,5.3794,5.4106,5.4281,5.4281,5.4591,5.4708,5.4741,5.5042,5.5174,5.509,5.4597,5.4376,5.4126,5.2568,5.1952,5.1798,0.0,0.0,5.7997,5.7997,5.7997,5.7997,5.7997,5.7997,5.795,5.7839,5.7857,5.7792,5.7697,5.7553,5.7455,5.7486,5.7388,5.7289,5.7289,5.6863,5.6474,5.6366,5.5408,5.4686,5.4391,5.3946,5.3668,5.3501,5.3501,5.3501,5.3501,5.3501,5.3501,5.3501,5.3501,5.3501,5.3501,5.3501,5.3501,5.3501,5.3501,5.3501,5.3501,5.3501,5.3501,5.3551,5.4171,5.4703,5.5266,5.6017,5.6599,5.7036,5.7138,5.7188,5.7307,5.7486,5.7521,5.7517,5.7611,5.7088,5.6528,5.6528,5.5904,5.5097,5.4308,5.4124,5.394,5.3335,5.3206,5.3206,5.3206,5.3206,5.3206,5.3206,5.3206,5.3206,5.3206,5.3206,5.3206,0.0,5.3206,5.3206,5.3206,5.3206,5.3206,0.0,0.0,5.33,5.33,5.3481,5.3619,5.3734,5.3774,5.3813,5.3813,5.3813,5.3813,5.3813,5.3813,5.3813,5.3794,5.387,5.3926,5.3926,5.3981,5.3939,5.3821,5.3879,5.3836,5.3676,5.3567,5.3106,5.2549,5.2799,5.2472,5.1972,5.7997,5.7997,5.7997,5.7997,5.795,5.7904,5.7904,5.7857,5.7792,5.7697,5.7697,5.7697,5.7601,5.7504,5.7388,5.7388,5.7307,5.7087,5.6811,5.6474,5.6017,5.5467,5.4747,5.4281,5.3994,5.3668,5.3501,5.3501,5.3501,5.3501,5.3501,5.3501,5.3501,5.3501,5.3501,5.3501,5.3501,5.3501,5.3501,5.3501,5.3501,5.3501,5.3501,5.3501,5.3501,5.3551,5.4171,5.4641,5.5069,5.6017,5.6528,5.6811,5.7138,5.7239,5.7338,5.7553,5.7649,5.7745,5.7886,5.762,5.7262,5.6895,5.6473,5.5941,5.5133,5.4656,5.4289,5.3849,5.3463,5.3206,5.3206,5.3206,5.3206,5.3206,5.3206,5.3206,5.3206,5.3206,5.3206,5.3206,5.3206,5.3206,5.3206,5.3206,5.3206,5.3206,5.323,0.0,5.3254,5.3359,5.3499,5.3695,5.3734,5.3793,5.3813,5.3813,5.3813,5.3813,5.3813,5.3813,5.3813,5.4184,5.4351,5.437,5.4779,5.4876,5.4781,5.5089,5.4943,5.4454,5.4386,5.3837,5.3106,5.3164,5.2895,5.2568,5.7997,5.7997,5.7997,5.7997,5.7904,5.7792,5.7792,5.7697,5.7601,5.7601,5.7553,5.7534,5.7553,5.7455,5.7356,5.7356,5.7188,5.6863,5.6311,5.6128,5.5525,5.4454,5.4328,5.3994,5.3501,5.3501,5.3501,5.3501,5.3501,5.3501,5.3501,5.3501,5.3501,5.3501,5.3501,5.3501,5.3501,5.3501,5.3501,5.3501,5.3501,5.3501,5.3501,5.3501,5.3501,5.3568,5.4059,5.4328,5.4579,5.5658,5.6128,5.6366,5.6915,5.7239,5.7455,5.7553,5.7583,5.7649,5.7792,5.7904,5.7831,5.7152,5.6987,5.6767,5.5959,5.5244,5.473,5.4601,5.394,5.339,5.339,5.3298,5.3206,5.3206,5.3206,5.3206,5.3206,0.0,5.3206,5.3206,5.3206,5.3206,5.3206,5.3206,5.3206,5.3206,5.3206,5.3206,5.3206,5.3254,5.34,5.3656,5.3714,5.3734,5.3813,5.3924,5.398,5.398,5.411,5.4184,5.4203,5.489,5.5206,5.5243,5.5986,5.6267,5.6236,5.6861,5.6607,5.5863,5.5753,5.5203,5.4434,5.3818,5.351,5.3414,5.7997,5.7997,5.7997,5.7997,5.7904,5.7792,5.7792,5.7697,5.7553,5.7455,5.7437,5.7406,5.7289,5.7239,5.7239,5.7239,5.6758,5.642,5.6311,5.529,5.4641,5.4391,5.3898,5.3618,5.3501,5.3501,5.3501,5.3501,5.3501,5.3501,5.3501,5.3501,5.3501,5.3501,5.3501,5.3501,5.3501,5.3501,5.3501,5.3501,5.3501,5.3501,5.3501,5.3501,5.3501,5.3501,5.3618,5.3946,5.4454,5.4624,5.5408,5.6311,5.642,5.6863,5.7455,5.7553,5.7697,5.7792,5.795,5.7997,5.796,5.7831,5.7813,5.7593,5.6804,5.6528,5.6235,5.5537,5.4766,5.4216,5.4216,5.3665,5.3206,5.3206,5.3206,5.3206,5.3206,0.0,5.3206,5.3206,5.3206,5.3206,5.3206,5.3206,5.3206,5.3206,5.3206,5.3206,5.3206,5.3254,5.3359,5.3539,5.3656,5.3734,5.3813,5.4481,5.4816,5.4834,5.5559,5.5912,5.593,5.6042,5.6097,5.6116,5.6246,5.6051,5.5636,5.6039,5.5854,5.537,5.5593,5.5203,5.4568,5.5107,5.4876,5.4395,5.7997,5.7997,5.7997,5.7886,5.7792,5.7649,5.7601,5.7486,5.7338,5.7289,5.7289,5.7257,5.7206,5.6915,5.6706,5.6706,5.5812,5.529,5.529,5.4747,5.4281,5.3946,5.3685,5.3501,5.3501,5.3501,5.3501,5.3501,5.3501,5.3501,5.3501,5.3501,5.3501,5.3501,5.3501,5.3501,5.3501,5.3501,5.3501,5.3501,5.3501,5.3501,5.3501,5.3501,5.3501,5.3501,5.3501,5.3668,5.3946,5.4281,5.4809,5.5408,5.6073,5.6582,5.7018,5.7486,5.7745,5.7904,5.7997,5.7997,5.7997,5.7997,5.7997,5.7905,5.7538,5.7116,5.6693,5.6326,5.5611,5.5042,5.5042,5.4399,5.3849,5.3849,5.3482,0.0,5.3206,5.3206,5.3206,5.3206,5.3206,5.3206,5.3206,5.3206,5.3206,5.3206,5.3206,5.3206,5.3206,5.323,5.3497,5.4027,5.4266,5.4443,5.4463,5.528,5.5707,5.5707,5.6116,5.6302,5.632,5.6747,5.6952,5.697,5.7398,5.7441,5.7246,5.7578,5.744,5.7006,5.7353,5.7109,5.6588,5.6953,5.6569,5.5895,5.795,5.795,5.7886,5.7792,5.7649,5.7504,5.7406,5.7307,5.7188,5.7188,5.7188,5.7138,5.7036,5.6582,5.6257,5.609,5.5052,5.4391,5.4391,5.4281,5.3994,5.3501,5.3501,5.3501,5.3501,5.3501,5.3501,5.3501,5.3501,5.3501,5.3501,5.3501,5.3501,5.3501,5.3501,5.3501,5.3501,5.3501,5.3501,5.3501,5.3501,5.3501,5.3501,5.3501,5.3501,5.3501,5.3501,5.3501,5.3551,5.4059,5.4281,5.4579,5.5525,5.6166,5.6617,5.722,5.7679,5.7997,5.7997,5.7997,5.7997,5.7997,5.7997,5.7997,5.7997,5.7519,5.7079,5.7079,5.6436,5.5868,5.5868,5.5207,5.462,5.4436,0.0,5.3427,5.3243,5.3206,5.3206,5.3206,5.3206,5.3206,5.3206,5.3206,5.3206,5.3206,5.3206,5.3298,5.3482,5.3482,5.3915,5.4815,5.5099,5.5259,5.5299,5.6153,5.658,5.658,5.6766,5.6859,5.6878,5.7509,5.7788,5.7806,5.8438,5.8716,5.8739,5.9045,5.8966,5.8708,5.9052,5.8876,5.8457,5.8457,5.7966,5.7261,5.7792,5.7697,5.7649,5.7601,5.7486,5.7388,5.7388,5.7307,5.7188,5.7188,5.7188,5.6984,5.642,5.6311,5.6073,5.5519,5.4826,5.4391,5.4391,5.3898,5.3568,5.3501,5.3501,5.3501,5.3501,5.3501,5.3501,5.3501,5.3501,5.3501,5.3501,5.3501,5.3501,5.3501,5.3501,5.3501,5.3501,5.3501,5.3501,5.3501,5.3501,5.3501,5.3501,5.3501,5.3501,5.3501,5.3501,5.3501,5.3501,5.3568,5.3946,5.4391,5.4516,5.5449,5.6564,5.6704,5.7351,5.7997,5.7997,5.7997,5.7997,5.7997,5.7997,5.7997,5.7997,5.7941,5.7905,5.7905,5.7281,5.6712,5.6712,5.6051,5.5262,5.4528,0.0,0.0,5.3316,5.3206,5.3206,5.3206,5.3206,5.3206,5.3206,5.3206,5.3206,5.3206,5.3206,5.3537,5.4271,5.4356,5.4833,5.5766,5.5928,5.607,5.6209,5.7008,5.7416,5.7416,5.8178,5.8531,5.8531,5.8586,5.8624,5.8624,5.8679,5.8716,5.8739,5.9045,5.9178,5.9195,5.9597,5.9403,5.8964,5.8964,5.8623,5.8088,5.7697,5.7649,5.7601,5.7486,5.7437,5.7388,5.7307,5.7239,5.7188,5.7188,5.6863,5.6528,5.6311,5.5583,5.5052,5.4826,5.4188,5.3832,5.3832,5.3618,5.3501,5.3501,5.3501,5.3501,5.3501,5.3501,5.3501,5.3501,5.3501,5.3501,5.3501,5.3501,5.3501,5.3501,5.3501,5.3501,5.3501,5.3501,5.3501,5.3501,5.3501,5.3501,5.3501,5.3501,5.3501,5.3501,5.3501,5.3501,5.3501,5.3501,5.3668,5.3963,5.4443,5.5172,5.6057,5.7083,5.7679,5.7997,5.7997,5.7997,5.7997,5.7997,5.7997,5.7997,5.7997,5.7997,5.7997,5.7997,5.7758,5.7538,5.7538,5.6895,5.6235,5.5941,0.0,5.5042,5.473,5.4252,5.394,5.394,5.394,5.394,5.394,5.4399,5.4693,5.4693,5.4693,5.4821,5.5115,5.5636,5.6147,5.6565,5.7106,5.7254,5.6904,5.7802,5.8252,5.8252,5.8549,5.8716,5.8716,5.8716,5.8716,5.8716,5.8716,5.8716,5.8698,5.8825,5.9025,5.9215,5.9361,5.945,5.9536,5.9712,5.9335,5.8719,5.7553,5.7486,5.7455,5.7338,5.7356,5.7307,5.7188,5.7188,5.7188,5.7188,5.6688,5.6239,5.5999,5.5052,5.4328,5.4106,5.3717,5.3501,5.3501,5.3501,5.3501,5.3501,5.3501,5.3501,5.3501,5.3501,5.3501,5.3501,5.3501,5.3501,5.3501,5.3501,5.3501,5.3501,5.3501,5.3501,5.3501,5.3501,5.3501,5.3501,5.3501,5.3501,5.3501,5.3501,5.3501,5.3501,5.3501,5.3501,5.3501,5.3501,5.3501,5.3668,5.4205,5.4991,5.591,5.7166,5.7726,5.7997,5.7997,5.7997,5.7997,5.7997,5.7997,5.7997,5.7997,5.7997,5.7997,5.7997,5.7997,5.7997,5.7997,5.7556,5.7097,5.684,5.6345,5.5886,5.5629,5.5115,5.4785,5.4785,5.4785,5.4785,5.4785,5.5262,5.5592,5.5592,5.5592,5.5702,5.5959,5.6748,5.7234,5.7324,5.7902,5.801,5.7587,5.8294,5.8656,5.8716,5.8716,5.8716,5.8716,5.8716,5.8716,5.8716,5.8716,5.8716,5.8716,5.8716,5.8825,5.9045,5.9045,5.9271,5.9639,5.9868,5.9661,5.9245,5.7388,5.7289,5.7188,5.7188,5.7188,5.7188,5.7188,5.7206,5.7188,5.7188,5.6635,5.5999,5.5373,5.473,5.4171,5.3551,5.3501,5.3501,5.3501,5.3501,5.3501,5.3501,5.3501,5.3501,5.3501,5.3501,5.3501,5.3501,5.3501,5.3501,5.3501,5.3501,5.3501,5.3501,5.3501,5.3501,5.3501,5.3501,5.3501,5.3501,5.3501,5.3501,5.3501,5.3501,5.3501,5.3501,5.3501,5.3501,5.3501,5.3501,5.3618,5.37,5.37,5.473,5.6112,5.6739,5.7401,5.7997,5.7997,5.7997,5.7997,5.7997,5.7997,5.7997,5.7997,5.7997,5.7997,5.7997,5.7997,5.7997,5.7997,5.7997,5.774,5.695,5.6822,5.6528,5.5721,5.5592,5.5592,5.5592,5.5592,5.5592,5.5592,5.5611,5.5611,5.5611,5.5611,5.5959,5.6785,5.7574,5.7997,5.7997,5.8152,5.8197,5.8197,5.8381,5.8553,5.8716,5.8716,5.8716,5.8716,5.8716,5.8716,5.8716,5.8716,5.8716,5.8716,5.8716,5.8716,5.8716,5.8716,5.8887,5.9215,5.9215,5.9467,5.9677,5.7239,5.7257,5.7188,5.7188,5.7188,5.7188,5.7188,5.6863,5.6582,5.6582,5.5641,5.487,5.4686,5.4124,5.3668,5.3501,5.3501,5.3501,5.3501,5.3501,5.3501,5.3501,5.3501,5.3501,5.3501,5.3501,5.3501,5.3501,5.3501,5.3501,5.3501,5.3501,5.3501,5.3501,5.3501,5.3501,5.3501,5.3501,5.3501,5.3501,5.3501,5.3501,5.3501,5.3501,5.3501,5.3501,5.3501,5.3501,5.3501,5.3501,5.3618,5.3832,5.4471,5.5112,5.5755,5.6739,5.7184,5.7449,5.7886,5.7997,5.7997,5.7997,5.7997,5.7997,5.7997,5.7997,5.7997,5.7997,5.7997,5.7997,5.7997,5.7997,5.7923,5.7685,5.7648,5.7556,5.7317,5.6804,5.6436,5.6436,5.6436,5.6436,5.6436,5.695,5.7281,5.7281,5.7281,5.7391,5.7629,5.7868,5.7997,5.7997,5.8152,5.826,5.8349,5.8443,5.8511,5.8553,5.8656,5.8716,5.8716,5.8716,5.8716,5.8716,5.8716,5.8716,5.8716,5.8716,5.8716,5.8716,5.8716,5.8762,5.8905,5.9103,5.9289,5.9395,5.7188,5.7188,5.7188,5.7188,5.6966,5.6863,5.6863,5.6311,5.5961,5.5961,5.5052,5.4391,5.4391,5.3832,5.3501,5.3501,5.3501,5.3501,5.3501,5.3501,5.3501,5.3501,5.3501,5.3501,5.3501,5.3501,5.3501,5.3501,5.3501,5.3501,5.3501,5.3501,5.3501,5.3501,5.3501,5.3501,5.3501,5.3501,5.3501,5.3501,5.3501,5.3501,5.3501,5.3501,5.3501,5.3501,5.3501,5.3501,5.3501,5.3501,5.3618,5.3963,5.4614,5.5087,5.556,5.6528,5.6946,5.7216,5.7839,5.7997,5.7997,5.7997,5.7997,5.7997,5.7997,5.7997,5.7997,5.7997,5.7997,5.7997,5.7997,5.7997,5.7997,5.7997,5.7997,5.7997,5.7997,5.7574,5.7281,5.7281,5.7281,5.7281,5.7281,5.7703,5.7997,5.7997,5.7997,5.7997,5.7997,5.7997,5.7997,5.7997,5.8152,5.8242,5.8305,5.8443,5.8511,5.8553,5.8656,5.8716,5.8716,5.8716,5.8716,5.8716,5.8716,5.8716,5.8716,5.8716,5.8716,5.8716,5.8716,5.8716,5.8739,5.8926,5.8986,5.9025,5.7188,5.7188,5.7188,5.7138,5.6653,5.6257,5.6257,5.5676,5.5325,5.5325,5.4703,5.4345,5.4345,5.3832,5.3501,5.3501,5.3501,5.3501,5.3501,5.3501,5.3501,5.3501,5.3501,5.3501,5.3501,5.3501,5.3501,5.3501,5.3501,5.3501,5.3501,5.3501,5.3501,5.3501,5.3501,5.3501,5.3501,5.3501,5.3501,5.3501,5.3501,5.3501,5.3501,5.3501,5.3501,5.3501,5.3501,5.3501,5.3501,5.3501,5.3751,5.4063,5.4385,5.4834,5.5443,5.6055,5.6599,5.7065,5.766,5.7839,5.7839,5.7886,5.7932,5.7932,5.7997,5.7997,5.7997,5.7997,5.7997,5.7997,5.7997,5.7997,5.7997,5.7997,5.7997,5.7997,5.7997,5.7997,5.7997,5.7997,5.7997,5.7997,5.7997,5.7997,5.7997,5.7997,5.7997,5.7997,5.7997,5.7997,5.7997,5.7997,5.8152,5.8197,5.8197,5.84,5.8553,5.8656,5.8698,5.8716,5.8716,5.8716,5.8716,5.8716,5.8716,5.8716,5.8716,5.8716,5.8716,5.8716,5.8716,5.8716,5.8716,5.8716,5.8716,5.8716,5.7188,5.7188,5.7036,5.6582,5.6366,5.6146,5.5676,5.5009,5.4641,5.4641,5.4059,5.3668,5.3668,5.3551,5.3501,5.3501,5.3501,5.3501,5.3501,5.3501,5.3501,5.3501,5.3501,5.3501,5.3501,5.3501,5.3501,5.3501,5.3501,5.3501,5.3501,5.3501,5.3501,5.3501,5.3501,5.3501,5.3501,5.3501,5.3501,5.3501,5.3501,5.3501,5.3501,5.3501,5.3501,5.3501,5.3501,5.3501,5.3501,5.3601,5.3783,5.4045,5.4239,5.4477,5.4834,5.5385,5.5658,5.5887,5.6474,5.6652,5.6757,5.7184,5.7284,5.7449,5.7886,5.7997,5.7997,5.7997,5.7997,5.7997,5.7997,5.7997,5.7997,5.7997,5.7997,5.7997,5.7997,5.7997,5.7997,5.7997,5.7997,5.7997,5.7997,5.7997,5.7997,5.7997,5.7997,5.7997,5.7997,5.7997,5.7997,5.7997,5.8152,5.8242,5.8349,5.8443,5.8511,5.8553,5.8656,5.8716,5.8716,5.8716,5.8716,5.8716,5.8716,5.8716,5.8716,5.8716,5.8716,5.8716,5.8716,5.8716,5.8716,5.8716,5.8716,5.8716,5.7188,5.7188,5.7036,5.642,5.6073,5.5676,5.5009,5.4362,5.3946,5.3946,5.3668,5.3501,5.3501,5.3501,5.3501,5.3501,5.3501,5.3501,5.3501,5.3501,5.3501,5.3501,5.3501,5.3501,5.3501,5.3501,5.3501,5.3501,5.3501,5.3501,5.3501,5.3501,5.3501,5.3501,5.3501,5.3501,5.3501,5.3501,5.3501,5.3501,5.3501,5.3501,5.3501,5.3501,5.3501,5.3501,5.3501,5.3501,5.3501,5.3651,5.3849,5.4045,5.4175,5.4367,5.462,5.5224,5.5385,5.5502,5.6166,5.6276,5.6384,5.6634,5.6704,5.6964,5.7774,5.7774,5.7546,5.7546,5.7351,5.7184,5.7184,5.7184,5.7184,5.7184,5.7184,5.7184,5.7184,5.7184,5.7184,5.7184,5.7184,5.7184,5.7184,5.7679,5.7886,5.7613,5.7839,5.7997,5.7997,5.7997,5.7997,5.7997,5.8152,5.8242,5.8286,5.8418,5.8486,5.8511,5.8656,5.8716,5.8716,5.8716,5.8716,5.8716,5.8716,5.8716,5.8716,5.8716,5.8716,5.8716,5.8716,5.8716,5.8716,5.8716,5.8716,5.8716,5.7188,5.7188,5.6984,5.6257,5.5733,5.5147,5.4345,5.3849,5.3501,5.3501,5.3501,5.3501,5.3501,5.3501,5.3501,5.3501,5.3501,5.3501,5.3501,5.3501,5.3501,5.3501,5.3501,5.3501,5.3501,5.3501,5.3501,5.3501,5.3501,5.3501,5.3501,5.3501,5.3501,5.3501,5.3501,5.3501,5.3501,5.3501,5.3501,5.3501,5.3501,5.3501,5.3501,5.3501,5.3501,5.3501,5.3501,5.3501,5.3501,5.3651,5.3849,5.4045,5.4175,5.4367,5.462,5.5122,5.5224,5.5343,5.583,5.5999,5.5999,5.6111,5.6166,5.6438,5.7449,5.7333,5.7015,5.7065,5.6686,5.6276,5.6276,5.6276,5.6276,5.6276,5.6276,5.6276,5.6276,5.6276,5.6276,5.6276,5.6276,5.6276,5.6276,5.7134,5.7565,5.7116,5.7546,5.7886,5.7997,5.7997,5.7997,5.7997,5.8106,5.8197,5.8197,5.8305,5.8418,5.8468,5.8614,5.8675,5.8716,5.8716,5.8716,5.8716,5.8716,5.8716,5.8716,5.8716,5.8716,5.8716,5.8716,5.8716,5.8716,5.8716,5.8716,5.8716,5.7188,5.7188,5.6863,5.5733,5.5443,5.4983,5.3783,5.3551,5.3501,5.3501,5.3501,5.3501,5.3501,5.3501,5.3501,5.3501,5.3501,5.3501,5.3501,5.3501,5.3501,5.3501,5.3501,5.3501,5.3501,5.3501,5.3501,5.3501,5.3501,5.3501,5.3501,5.3501,5.3501,5.3501,5.3501,5.3501,5.3501,5.3501,5.3501,5.3501,5.3501,5.3501,5.3501,5.3501,5.3501,5.3501,5.3501,5.3501,5.3501,5.3651,5.3849,5.4045,5.4175,5.4367,5.4512,5.462,5.462,5.462,5.4728,5.4728,5.4896,5.5385,5.5502,5.5716,5.6384,5.6492,5.6546,5.6997,5.6686,5.6276,5.6276,5.6276,5.6276,5.6276,5.6276,5.6276,5.6276,5.6276,5.6276,5.6276,5.6276,5.6276,5.6276,5.6438,5.6704,5.7065,5.7166,5.7449,5.7997,5.7997,5.7997,5.7997,5.7997,5.8088,5.8197,5.8197,5.8286,5.8437,5.8486,5.8614,5.8716,5.8716,5.8716,5.8716,5.8716,5.8716,5.8716,5.8716,5.8716,5.8716,5.8716,5.8716,5.8716,5.8716,5.8716,5.8716,5.6184,5.6184,5.5887,5.5009,5.4826,5.4534,5.3618,5.3501,5.3501,5.3501,5.3501,5.3501,5.3501,5.3501,5.3501,5.3501,5.3501,5.3501,5.3501,5.3501,5.3501,5.3501,5.3501,5.3501,5.3501,5.3501,5.3501,5.3501,5.3501,5.3501,5.3501,5.3501,5.3501,5.3501,5.3501,5.3501,5.3501,5.3501,5.3501,5.3501,5.3501,5.3501,5.3501,5.3501,5.3501,5.3501,5.3501,5.3501,5.3501,5.3651,5.3849,5.4045,5.4175,5.4367,5.4512,5.4512,5.4512,5.4512,5.4512,5.4512,5.4557,5.4834,5.4896,5.5061,5.5676,5.556,5.5443,5.6037,5.5716,5.5284,5.5284,5.5284,5.5284,5.5284,5.5284,5.5284,5.5284,5.5284,5.5284,5.5284,5.5618,5.5658,5.5343,5.5887,5.6384,5.6652,5.6946,5.7382,5.7997,5.7997,5.7997,5.7997,5.7997,5.8042,5.8106,5.8106,5.8152,5.8305,5.8375,5.8486,5.8596,5.8675,5.8716,5.8716,5.8716,5.8716,5.8716,5.8716,5.8716,5.8716,5.8716,5.8716,5.8716,5.8716,5.8716,5.8716]},{"header":{"parameterUnit":"m.s-1","parameterCategory":1,"la1":30.6,"la2":28.766,"lo1":-90.7593,"lo2":-88.6598,"dy":0.0162,"dx":0.0183,"nx":116,"ny":114,"refTime":"2023-04-11T06:00:00:Z","depth":0,"parameterNumber":3,"parameterNumberName":"V-component_of_WINDS"},"data":[0.0,0.0,0.0,0.0,0.0,0.0,0.0,0.0,0.0,0.0,0.0,0.0,0.0,0.0,0.0,0.0,0.0,0.0,0.0,0.0,0.0,0.0,0.0,0.0,0.0,0.0,0.0,0.0,0.0,0.0,0.0,0.0,0.0,0.0,0.0,0.0,0.0,0.0,0.0,0.0,0.0,0.0,0.0,0.0,0.0,0.0,0.0,0.0,0.0,0.0,0.0,0.0,0.0,0.0,0.0,0.0,0.0,0.0,0.0,0.0,0.0,0.0,0.0,0.0,0.0,0.0,0.0,0.0,0.0,0.0,0.0,0.0,0.0,0.0,0.0,0.0,0.0,0.0,0.0,0.0,0.0,0.0,0.0,0.0,0.0,0.0,0.0,0.0,0.0,0.0,0.0,0.0,0.0,0.0,0.0,0.0,0.0,0.0,0.0,0.0,0.0,0.0,0.0,0.0,0.0,0.0,0.0,0.0,0.0,0.0,0.0,0.0,0.0,0.0,0.0,0.0,0.0,0.0,0.0,0.0,0.0,0.0,0.0,0.0,0.0,0.0,0.0,0.0,0.0,0.0,0.0,0.0,0.0,0.0,0.0,0.0,0.0,0.0,0.0,0.0,0.0,0.0,0.0,0.0,0.0,0.0,0.0,0.0,0.0,0.0,0.0,0.0,0.0,0.0,0.0,0.0,0.0,0.0,0.0,0.0,0.0,0.0,0.0,0.0,0.0,0.0,0.0,0.0,0.0,0.0,0.0,0.0,0.0,0.0,0.0,0.0,0.0,0.0,0.0,0.0,0.0,0.0,0.0,0.0,0.0,0.0,0.0,0.0,0.0,0.0,0.0,0.0,0.0,0.0,0.0,0.0,0.0,0.0,0.0,0.0,0.0,0.0,0.0,0.0,0.0,0.0,0.0,0.0,0.0,0.0,0.0,0.0,0.0,0.0,0.0,0.0,0.0,0.0,0.0,0.0,0.0,0.0,0.0,0.0,0.0,0.0,0.0,0.0,0.0,0.0,0.0,0.0,0.0,0.0,0.0,0.0,0.0,0.0,0.0,0.0,0.0,0.0,0.0,0.0,0.0,0.0,0.0,0.0,0.0,0.0,0.0,0.0,0.0,0.0,0.0,0.0,0.0,0.0,0.0,0.0,0.0,0.0,0.0,0.0,0.0,0.0,0.0,0.0,0.0,0.0,0.0,0.0,0.0,0.0,0.0,0.0,0.0,0.0,0.0,0.0,0.0,0.0,0.0,0.0,0.0,0.0,0.0,0.0,0.0,0.0,0.0,0.0,0.0,0.0,0.0,0.0,0.0,0.0,0.0,0.0,0.0,0.0,0.0,0.0,0.0,0.0,0.0,0.0,0.0,0.0,0.0,0.0,0.0,0.0,0.0,0.0,0.0,0.0,0.0,0.0,0.0,0.0,0.0,0.0,0.0,0.0,0.0,0.0,0.0,0.0,0.0,0.0,0.0,0.0,0.0,0.0,0.0,0.0,0.0,0.0,0.0,0.0,0.0,0.0,0.0,0.0,0.0,0.0,0.0,0.0,0.0,0.0,0.0,0.0,0.0,0.0,0.0,0.0,0.0,0.0,0.0,0.0,0.0,0.0,0.0,0.0,0.0,0.0,0.0,0.0,0.0,0.0,0.0,0.0,0.0,0.0,0.0,0.0,0.0,0.0,0.0,0.0,0.0,0.0,0.0,0.0,0.0,0.0,0.0,0.0,0.0,0.0,0.0,0.0,0.0,0.0,0.0,0.0,0.0,0.0,0.0,0.0,0.0,0.0,0.0,0.0,0.0,0.0,0.0,0.0,0.0,0.0,0.0,0.0,0.0,0.0,0.0,0.0,0.0,0.0,0.0,0.0,0.0,0.0,0.0,0.0,0.0,0.0,0.0,0.0,0.0,0.0,0.0,0.0,0.0,0.0,0.0,0.0,0.0,0.0,0.0,0.0,0.0,0.0,0.0,0.0,0.0,0.0,0.0,0.0,0.0,0.0,0.0,0.0,0.0,0.0,0.0,0.0,0.0,0.0,0.0,0.0,0.0,0.0,0.0,0.0,0.0,0.0,0.0,0.0,0.0,0.0,0.0,0.0,0.0,0.0,0.0,0.0,0.0,0.0,0.0,0.0,0.0,0.0,0.0,0.0,0.0,0.0,0.0,0.0,0.0,0.0,0.0,0.0,0.0,0.0,0.0,0.0,0.0,0.0,0.0,0.0,0.0,0.0,0.0,0.0,0.0,0.0,0.0,0.0,0.0,0.0,0.0,0.0,0.0,0.0,0.0,0.0,0.0,0.0,0.0,0.0,0.0,0.0,0.0,0.0,0.0,0.0,0.0,0.0,0.0,0.0,0.0,0.0,0.0,0.0,0.0,0.0,0.0,0.0,0.0,0.0,0.0,0.0,0.0,0.0,0.0,0.0,0.0,0.0,0.0,0.0,0.0,0.0,0.0,0.0,0.0,0.0,0.0,0.0,0.0,0.0,0.0,0.0,0.0,0.0,0.0,0.0,0.0,0.0,0.0,0.0,0.0,0.0,0.0,0.0,0.0,0.0,0.0,0.0,0.0,0.0,0.0,0.0,0.0,0.0,0.0,0.0,0.0,0.0,0.0,0.0,0.0,0.0,0.0,0.0,0.0,0.0,0.0,0.0,0.0,0.0,0.0,0.0,0.0,0.0,0.0,0.0,0.0,0.0,0.0,0.0,0.0,0.0,0.0,0.0,0.0,0.0,0.0,0.0,0.0,0.0,0.0,0.0,0.0,0.0,0.0,0.0,0.0,0.0,0.0,0.0,0.0,0.0,0.0,0.0,0.0,0.0,0.0,0.0,0.0,0.0,0.0,0.0,0.0,0.0,0.0,0.0,0.0,0.0,0.0,0.0,0.0,0.0,0.0,0.0,0.0,0.0,0.0,0.0,0.0,0.0,0.0,0.0,0.0,0.0,0.0,0.0,0.0,0.0,0.0,0.0,0.0,0.0,0.0,0.0,0.0,0.0,0.0,0.0,0.0,0.0,0.0,0.0,0.0,0.0,0.0,0.0,0.0,0.0,0.0,0.0,0.0,0.0,0.0,0.0,0.0,0.0,0.0,0.0,0.0,0.0,0.0,0.0,0.0,0.0,0.0,0.0,0.0,0.0,0.0,0.0,0.0,0.0,0.0,0.0,0.0,0.0,0.0,0.0,0.0,0.0,0.0,0.0,0.0,0.0,0.0,0.0,0.0,0.0,0.0,0.0,0.0,0.0,0.0,0.0,0.0,0.0,0.0,0.0,0.0,0.0,0.0,0.0,0.0,0.0,0.0,0.0,0.0,0.0,0.0,0.0,0.0,0.0,0.0,0.0,0.0,0.0,0.0,0.0,0.0,0.0,0.0,0.0,0.0,0.0,0.0,0.0,0.0,0.0,0.0,0.0,0.0,0.0,0.0,0.0,0.0,0.0,0.0,0.0,0.0,0.0,0.0,0.0,0.0,0.0,0.0,0.0,0.0,0.0,0.0,0.0,0.0,0.0,0.0,0.0,0.0,0.0,0.0,0.0,0.0,0.0,0.0,0.0,0.0,0.0,0.0,0.0,0.0,0.0,0.0,0.0,0.0,0.0,0.0,0.0,0.0,0.0,0.0,0.0,0.0,0.0,0.0,0.0,0.0,0.0,0.0,0.0,0.0,0.0,0.0,0.0,0.0,0.0,0.0,0.0,0.0,0.0,0.0,0.0,0.0,0.0,0.0,0.0,0.0,0.0,0.0,0.0,0.0,0.0,0.0,0.0,0.0,0.0,0.0,0.0,0.0,0.0,0.0,0.0,0.0,0.0,0.0,0.0,0.0,0.0,0.0,0.0,0.0,0.0,0.0,0.0,0.0,0.0,0.0,0.0,0.0,0.0,0.0,0.0,0.0,0.0,0.0,0.0,0.0,0.0,0.0,0.0,0.0,0.0,0.0,0.0,0.0,0.0,0.0,0.0,0.0,0.0,0.0,0.0,0.0,0.0,0.0,0.0,0.0,0.0,0.0,0.0,0.0,0.0,0.0,0.0,0.0,0.0,0.0,0.0,0.0,0.0,0.0,0.0,0.0,0.0,0.0,0.0,0.0,0.0,0.0,0.0,0.0,0.0,0.0,0.0,0.0,0.0,0.0,0.0,0.0,0.0,0.0,0.0,0.0,0.0,0.0,0.0,0.0,0.0,0.0,0.0,0.0,0.0,0.0,0.0,0.0,0.0,0.0,0.0,0.0,0.0,0.0,0.0,0.0,0.0,0.0,0.0,0.0,0.0,0.0,0.0,0.0,0.0,0.0,0.0,0.0,0.0,0.0,0.0,0.0,0.0,0.0,0.0,0.0,0.0,0.0,0.0,0.0,0.0,0.0,0.0,0.0,0.0,0.0,0.0,0.0,0.0,0.0,0.0,0.0,0.0,0.0,0.0,0.0,0.0,0.0,0.0,0.0,0.0,0.0,0.0,0.0,0.0,0.0,0.0,0.0,0.0,0.0,0.0,0.0,0.0,0.0,0.0,0.0,0.0,0.0,0.0,0.0,0.0,0.0,0.0,0.0,0.0,0.0,0.0,0.0,0.0,0.0,0.0,0.0,0.0,0.0,0.0,0.0,0.0,0.0,0.0,0.0,0.0,0.0,0.0,0.0,0.0,0.0,0.0,0.0,0.0,0.0,0.0,0.0,0.0,0.0,0.0,0.0,0.0,0.0,0.0,0.0,0.0,0.0,0.0,0.0,0.0,0.0,0.0,0.0,0.0,0.0,0.0,0.0,0.0,0.0,0.0,0.0,0.0,0.0,0.0,0.0,0.0,0.0,0.0,0.0,0.0,0.0,0.0,0.0,0.0,0.0,0.0,0.0,0.0,0.0,0.0,0.0,0.0,0.0,0.0,0.0,0.0,0.0,0.0,0.0,0.0,0.0,0.0,0.0,0.0,0.0,0.0,0.0,0.0,0.0,0.0,0.0,0.0,0.0,0.0,0.0,0.0,0.0,0.0,0.0,0.0,0.0,0.0,0.0,0.0,0.0,0.0,0.0,0.0,0.0,0.0,0.0,0.0,0.0,0.0,0.0,0.0,0.0,0.0,0.0,0.0,0.0,0.0,0.0,0.0,0.0,0.0,0.0,0.0,0.0,0.0,0.0,0.0,0.0,0.0,0.0,0.0,0.0,0.0,0.0,0.0,0.0,0.0,0.0,0.0,0.0,0.0,0.0,0.0,0.0,0.0,0.0,0.0,0.0,0.0,0.0,0.0,0.0,0.0,0.0,0.0,0.0,0.0,0.0,0.0,0.0,0.0,0.0,0.0,0.0,0.0,0.0,0.0,0.0,0.0,0.0,0.0,0.0,0.0,0.0,0.0,0.0,0.0,0.0,0.0,0.0,0.0,0.0,0.0,0.0,0.0,0.0,0.0,0.0,0.0,0.0,0.0,0.0,0.0,0.0,0.0,0.0,0.0,0.0,0.0,0.0,0.0,0.0,0.0,0.0,0.0,0.0,0.0,0.0,0.0,0.0,0.0,0.0,0.0,0.0,0.0,0.0,0.0,0.0,0.0,0.0,0.0,0.0,0.0,0.0,0.0,0.0,0.0,0.0,0.0,0.0,0.0,0.0,0.0,0.0,0.0,0.0,0.0,0.0,0.0,0.0,0.0,0.0,0.0,0.0,0.0,0.0,0.0,0.0,0.0,0.0,0.0,0.0,0.0,0.0,0.0,0.0,0.0,0.0,0.0,0.0,0.0,0.0,0.0,0.0,0.0,0.0,0.0,0.0,0.0,0.0,0.0,0.0,0.0,0.0,0.0,0.0,0.0,0.0,0.0,0.0,0.0,0.0,0.0,0.0,0.0,0.0,0.0,0.0,0.0,0.0,0.0,0.0,0.0,0.0,0.0,0.0,0.0,0.0,0.0,0.0,0.0,0.0,0.0,0.0,0.0,0.0,0.0,0.0,0.0,0.0,0.0,0.0,0.0,0.0,0.0,0.0,0.0,0.0,0.0,0.0,0.0,0.0,0.0,0.0,0.0,0.0,0.0,0.0,0.0,0.0,0.0,0.0,0.0,0.0,0.0,0.0,0.0,0.0,0.0,0.0,0.0,0.0,0.0,0.0,0.0,-0.1795,0.0,0.0,0.0,0.0,0.0,0.0,0.0,0.0,0.0,0.0,0.0,0.0,0.0,0.0,0.0,0.0,0.0,0.0,0.0,0.0,0.0,0.0,0.0,0.0,0.0,0.0,0.0,0.0,0.0,0.0,0.0,0.0,0.0,0.0,0.0,0.0,-0.0561,-0.1121,-0.1795,-0.1795,-0.1458,-0.0897,-0.0897,-0.1234,-0.1795,0.0,0.0,0.0,0.0,0.0,0.0,0.0,0.0,0.0,0.0,0.0,0.0,0.0,0.0,0.0,0.0,0.0,0.0,0.0,0.0,0.0,0.0,0.0,0.0,0.0,0.0,0.0,0.0,0.0,0.0,0.0,0.0,0.0,0.0,0.0,0.0,0.0,0.0,0.0,0.0,0.0,0.0,0.0,0.0,0.0,0.0,0.0,0.0,0.0,0.0,0.0,0.0,0.0,0.0,0.0,0.0,0.0,0.0,0.0,0.0,0.0,0.0,0.0,0.0,0.0,0.0,0.0,0.0,0.0,0.0,0.0,-0.1795,0.0,0.0,0.0,0.0,0.0,0.0,0.0,0.0,0.0,0.0,0.0,0.0,0.0,0.0,0.0,0.0,0.0,0.0,0.0,0.0,0.0,0.0,0.0,0.0,0.0,0.0,0.0,0.0,0.0,0.0,0.0,0.0,0.0,0.0,0.0,-0.1009,-0.1458,-0.1458,-0.1458,-0.1009,0.0,0.0,-0.0561,-0.1458,-0.1458,0.0,0.0,0.0,0.0,0.0,0.0,0.0,0.0,0.0,0.0,0.0,0.0,0.0,0.0,0.0,0.0,0.0,0.0,0.0,0.0,0.0,0.0,0.0,0.0,0.0,0.0,0.0,0.0,0.0,0.0,0.0,0.0,0.0,0.0,0.0,0.0,0.0,0.0,0.0,0.0,0.0,0.0,0.0,0.0,0.0,0.0,0.0,0.0,0.0,0.0,0.0,0.0,0.0,0.0,0.0,0.0,0.0,0.0,0.0,0.0,0.0,0.0,0.0,-0.157,-0.1795,-0.1683,-0.1683,-0.1683,-0.1683,-0.2019,-0.2019,-0.1795,-0.2018,0.0,0.0,0.0,0.0,0.0,0.0,0.0,0.0,0.0,0.0,0.0,0.0,0.0,0.0,0.0,0.0,0.0,0.0,0.0,0.0,0.0,0.0,0.0,0.0,0.0,0.0,0.0,0.0,0.0,0.0,0.0,0.0,0.0,-0.0112,-0.0224,-0.0224,-0.0224,-0.0112,0.0,0.0,-0.0112,-0.0224,-0.0224,-0.0224,-0.0224,0.0,0.0,0.0,0.0,0.0,0.0,0.0,0.0,0.0,0.0,0.0,0.0,0.0,0.0,0.0,0.0,0.0,0.0,0.0,0.0,0.0,0.0,0.0,0.0,0.0,0.0,0.0,0.0,0.0,0.0,0.0,0.0,0.0,0.0,0.0,0.0,0.0,0.0,0.0,0.0,0.0,0.1567,0.0336,0.0,0.0,0.0,0.0,0.0,0.0,0.0,0.0,0.0,0.0,0.0,0.0,0.0,0.1683,-0.0561,-0.1009,-0.1234,-0.0897,-0.157,-0.157,-0.1009,-0.1009,-0.1009,-0.1121,-0.2687,0.0,-0.1907,-0.2911,0.0,0.0,0.0,0.0,0.0,0.0,0.0,0.0,0.0,0.0,0.0,0.0,0.0,0.0,0.0,0.0,0.0,0.0,0.0,0.0,0.0,0.0,0.0,0.0,0.0,0.0,0.0,0.0,0.0,0.0,0.0,0.0,0.0,0.0,0.0,0.0,0.0,0.0,0.0,0.0,0.0,0.0,0.0,0.0,0.0,0.0,0.0,0.0,0.0,0.0,0.0,0.0,0.0,0.0,0.0,0.0,0.0,0.0,0.0,0.0,0.0,0.0,0.0,0.0,0.0,0.0,0.0,0.0,0.0,0.0,0.0,0.0,0.0,0.0,0.0,0.0,0.0,0.0,0.0,0.0,0.0,0.0,0.0,0.0,0.0,0.1008,-0.0448,-0.0897,0.0,0.1008,0.0,0.0,0.0,0.0,0.0,0.0,0.0,0.0,0.0,-0.0112,0.0,-0.0,-0.0336,-0.0673,-0.0673,-0.0449,-0.0673,-0.1009,-0.1458,-0.3479,-0.4491,-0.4491,-0.4596,-0.448,-0.4143,-0.4474,-0.4582,-0.4582,0.0,0.0,0.0,0.0,-0.5363,-0.6369,0.0,0.0,0.0,0.0,0.0,0.0,0.0,0.0,0.0,0.0,0.0,0.0,0.0,0.0,0.0,0.0,0.0,0.0,0.0,0.0,0.0,0.0,0.0,0.0,0.0,0.0,0.0,0.0,0.0,0.0,0.0,0.0,0.0,0.0,0.0,0.0,0.0,0.0,0.0,0.0,0.0,0.0,0.0,0.0,0.0,0.0,0.0,0.0,0.0,0.0,0.0,0.0,0.0,0.0,0.0,0.0,0.0,0.0,0.0,0.0,0.0,0.0,0.0,0.0,0.0,0.0,0.0,0.0,0.0,0.0,0.0,0.0,0.0,0.0,0.0,0.0,0.0,-0.0224,-0.1795,-0.1795,-0.1009,-0.0336,0.0,0.0,0.0,0.0,0.0,0.0,0.0897,0.1346,0.0673,-0.1234,-0.1346,-0.0897,-0.0,0.0,-0.0673,-0.1794,-0.1794,-0.2018,-0.2354,-0.5052,-0.6636,-0.7203,-0.6398,-0.6274,-0.6495,-0.5924,-0.5806,-0.5808,-0.5808,-0.6031,-0.6253,-0.5919,-0.6591,-0.7487,0.0,0.0,0.0,0.0,0.0,0.0,0.0,0.0,0.0,0.0,0.0,0.0,0.0,0.0,0.0,0.0,0.0,0.0,0.0,0.0,0.0,0.0,0.0,0.0,0.0,0.0,0.0,0.0,0.0,0.0,0.0,0.0,0.0,0.0,0.0,0.0,0.0,0.0,0.0,0.0,0.0,0.0,0.0,0.0,0.0,0.0,0.0,0.0,0.0,0.0,0.0,0.0,0.0,0.0,0.0,0.0,0.0,0.0,0.0,0.0,0.0,0.0,0.0,0.0,0.0,0.0,0.0,0.0,0.0,0.0,0.0,0.0,0.0,0.0,0.0,0.0,0.0,0.0,0.0,-0.1795,-0.1795,0.0,0.0,0.0,0.0,0.0561,-0.0112,-0.1009,-0.157,-0.157,-0.1121,-0.0112,-0.0112,-0.0112,-0.0,0.0,-0.2355,-0.6868,-0.6868,-0.5616,-0.3469,-0.3694,-0.5044,-0.7195,-0.7519,-0.7847,-0.8063,-0.7043,-0.6816,-0.7041,-0.7041,-0.7709,-0.8602,-0.7487,-0.782,-0.8826,0.0,0.0,0.0,0.0,0.0,0.0,0.0,0.0,0.0,0.0,0.0,0.0,0.0,0.0,0.0,0.0,0.0,0.0,0.0,0.0,0.0,0.0,0.0,0.0,0.0,0.0,0.0,0.0,0.0,0.0,0.0,0.0,0.0,0.0,0.0,0.0,0.0,0.0,0.0,0.0,0.0,0.0,0.0,0.0,0.0,0.0,0.0,0.0,0.0,0.0,0.0,0.0,0.0,0.0,0.0,0.0,0.0,0.0,0.0,0.0,0.0,0.0,0.0,0.0,0.0,0.0,0.0,0.0,0.0,0.0,0.0,0.0,0.0,0.0,0.0,0.0,0.0,0.0,0.0,-0.1795,-0.1795,0.0,-0.1234,-0.157,-0.157,-0.1009,-0.1234,-0.1234,-0.0673,-0.0673,-0.0449,-0.0,0.0,-0.1458,-0.4604,-0.4604,-0.4714,-0.4933,-0.6405,-0.6743,-0.5947,-0.5942,-0.6393,-0.7187,-0.7393,-0.7721,-0.8054,-0.7712,-0.782,-0.8269,-0.8269,-0.8491,-0.883,-0.838,-0.8491,-0.894,0.0,0.0,0.0,0.0,0.0,0.0,0.0,0.0,0.0,0.0,0.0,0.0,0.0,0.0,0.0,0.0,0.0,0.0,0.0,0.0,0.0,0.0,0.0,0.0,0.0,0.0,0.0,0.0,0.0,0.0,0.0,0.0,0.0,0.0,0.0,0.0,0.0,0.0,0.0,0.0,0.0,0.0,0.0,0.0,0.0,0.0,0.0,0.0,0.0,0.0,0.0,0.0,0.0,0.0,0.0,0.0,0.0,0.0,0.0,0.0,0.0,0.0,0.0,0.0,0.0,0.0,0.0,0.0,0.0,0.0,0.0,0.0,0.0,0.0,0.0,0.0,0.0,0.0,-0.1795,-0.1795,-0.1795,-0.1683,-0.157,-0.1683,-0.1795,-0.1795,-0.1458,-0.0897,-0.0,0.0,0.0,0.0,-0.157,-0.3927,-0.7209,-0.7206,-0.6403,-0.4815,-0.6398,-0.7187,-0.7182,-0.7176,-0.7173,-0.7173,-0.716,-0.7487,-0.8045,-0.8045,-0.838,-0.894,-0.894,-0.894,-0.894,-0.894,-0.8906,-0.8855,0.0,0.0,0.0,0.0,0.0,0.0,0.0,0.0,0.0,0.0,0.0,0.0,0.0,0.0,0.0,0.0,0.0,0.0,0.0,0.0,0.0,0.0,0.0,0.0,0.0,0.0,0.0,0.0,0.0,0.0,0.0,0.0,0.0,0.0,0.0,0.0,0.0,0.0,0.0,0.0,0.0,0.0,0.0,0.0,0.0,0.0,0.0,0.0,0.0,0.0,0.0,0.0,0.0,0.0,0.0,0.0,0.0,0.0,0.0,0.0,0.0,0.0,0.0,0.0,0.0,0.0,0.0,0.0,0.0,0.0,0.0,0.0,0.0,0.0,0.0,0.0,-0.0,-0.1009,-0.1795,-0.1795,-0.1795,-0.157,-0.1009,-0.1458,-0.1795,-0.1795,-0.0673,0.0,0.0,-0.0112,-0.0224,-0.0224,-0.4716,-0.7097,-0.7209,-0.7201,-0.719,-0.7182,-0.7182,-0.7173,-0.7154,-0.7154,-0.7154,-0.7154,-0.7154,-0.7487,-0.8045,-0.8045,-0.838,-0.894,-0.894,-0.894,-0.894,-0.8933,-0.8835,-0.8682,0.0,0.0,0.0,0.0,0.0,0.0,0.0,0.0,0.0,0.0,0.0,0.0,0.0,0.0,0.0,0.0,0.0,0.0,0.0,0.0,0.0,0.0,0.0,0.0,0.0,0.0,0.0,0.0,0.0,0.0,0.0,0.0,0.0,0.0,0.0,0.0,0.0,0.0,0.0,0.0,0.0,0.0,0.0,0.0,0.0,0.0,0.0,0.0,0.0,0.0,0.0,0.0,0.0,0.0,0.0,0.0,0.0,0.0,0.0,0.0,0.0,0.0,0.0,0.0,0.0,0.0,0.0,0.0,0.0,0.0,0.0,0.0,0.0,0.0,0.1569,0.0673,-0.1009,-0.157,-0.1683,-0.1234,-0.157,-0.1683,-0.157,-0.0897,-0.0449,-0.0449,-0.0224,0.0,0.0,-0.3366,-0.517,-0.517,-0.4823,-0.5382,-0.719,-0.7187,-0.7179,-0.7163,-0.7163,-0.716,-0.7154,-0.7154,-0.7154,-0.7154,-0.7154,-0.7487,-0.8045,-0.8045,-0.838,-0.894,-0.894,-0.894,-0.8923,-0.8815,-0.8676,-0.8523,0.0,0.0,0.0,0.0,0.0,0.0,0.0,0.0,0.0,0.0,0.0,0.0,0.0,0.0,0.0,0.0,0.0,0.0,0.0,0.0,0.0,0.0,0.0,0.0,0.0,0.0,0.0,0.0,0.0,0.0,0.0,0.0,0.0,0.0,0.0,0.0,0.0,0.0,0.0,0.0,0.0,0.0,0.0,0.0,0.0,0.0,0.0,0.0,0.0,0.0,0.0,0.0,0.0,0.0,0.0,0.0,0.0,0.0,0.0,0.0,0.0,0.0,0.0,0.0,0.0,0.0,0.0,0.0,0.0,0.0,0.0,0.0,0.0,0.0,0.1119,0.0112,-0.1569,-0.1794,-0.1683,-0.1346,-0.1121,-0.1009,-0.1009,-0.0449,0.0,0.0,0.0,0.0,0.0,-0.4604,-0.7209,-0.7209,-0.5835,-0.5826,-0.7182,-0.7173,-0.7165,-0.7154,-0.7154,-0.7154,-0.7154,-0.7154,-0.7154,-0.7154,-0.7268,-0.7601,-0.8045,-0.8156,-0.8491,0.0,0.0,0.0,0.0,0.0,-0.8469,-0.8374,0.0,0.0,0.0,0.0,0.0,0.0,0.0,0.0,0.0,0.0,0.0,0.0,0.0,0.0,0.0,0.0,0.0,0.0,0.0,0.0,0.0,0.0,0.0,0.0,0.0,0.0,0.0,0.0,0.0,0.0,0.0,0.0,0.0,0.0,0.0,0.0,0.0,0.0,0.0,0.0,0.0,0.0,0.0,0.0,0.0,0.0,0.0,0.0,0.0,0.0,0.0,0.0,0.0,0.0,0.0,0.0,0.0,0.0,0.0,0.0,0.0,0.0,0.0,0.0,0.0,0.0,0.0,0.0,0.0,0.0,0.0,0.0,0.0,0.0,0.1006,-0.0448,-0.1679,-0.1793,-0.1795,-0.157,-0.0673,0.0,0.0,0.0,0.0,0.0,0.0,0.0,0.0,0.0,0.0,0.0,0.0,-0.7179,-0.7179,-0.7163,-0.7163,-0.7176,-0.7176,-0.7182,-0.7195,-0.7195,-0.7195,-0.7195,-0.7536,-0.775,-0.7955,-0.8399,-0.8716,-0.8913,-0.8913,-0.8818,-0.8652,-0.8374,-0.8258,-0.8225,0.0,0.0,0.0,0.0,0.0,0.0,0.0,0.0,0.0,0.0,0.0,0.0,0.0,0.0,0.0,0.0,0.0,0.0,0.0,0.0,0.0,0.0,0.0,0.0,0.0,0.0,0.0,0.0,0.0,0.0,0.0,0.0,0.0,0.0,0.0,0.0,0.0,0.0,0.0,0.0,0.0,0.0,0.0,0.0,0.0,0.0,0.0,0.0,0.0,0.0,0.0,0.0,0.0,0.0,0.0,0.0,0.0,0.0,0.0,0.0,0.0,0.0,0.0,0.0,0.0,0.0,0.0,0.0,0.0,0.0,0.0,0.0,0.0,0.6274,0.5835,0.3924,-0.1119,-0.1793,-0.1458,-0.0449,-0.0112,0.0,0.0,0.0,0.0,0.0,0.0,0.0,0.0,-0.2688,-0.5158,-0.7086,-0.7173,-0.716,-0.716,-0.7157,-0.7203,-0.7301,0.0,0.0,-0.7448,-0.7448,-0.7448,-0.7448,-0.7795,-0.7849,-0.7864,-0.8433,-0.8638,-0.8754,-0.8754,-0.8662,-0.8506,-0.8333,-0.8191,-0.8079,0.0,0.0,0.0,0.0,0.0,0.0,0.0,0.0,0.0,0.0,0.0,0.0,0.0,0.0,0.0,0.0,0.0,0.0,0.0,0.0,0.0,0.0,0.0,0.0,0.0,0.0,0.0,0.0,0.0,0.0,0.0,0.0,0.0,0.0,0.0,0.0,0.0,0.0,0.0,0.0,0.0,0.0,0.0,0.0,0.0,0.0,0.0,0.0,0.0,0.0,0.0,0.0,0.0,0.0,0.0,0.0,0.0,0.0,0.0,0.0,0.0,0.0,0.0,0.0,0.0,0.0,0.0,0.0,0.0,0.7157,0.716,0.0,0.7168,0.7168,0.7187,0.5274,-0.0112,-0.0896,-0.0673,-0.0112,0.0,0.0,0.0,0.0,0.0,0.0,0.0,0.0,0.0,-0.2239,-0.4704,-0.7083,-0.7228,-0.7244,-0.7244,-0.7307,-0.7366,-0.7426,-0.7426,-0.7459,-0.7519,-0.7519,-0.7519,-0.7519,-0.7866,-0.8058,-0.8111,-0.8807,-0.9024,-0.8923,-0.8852,-0.8642,-0.836,-0.8211,-0.8106,-0.8038,0.0,0.0,0.0,0.0,0.0,0.0,0.0,0.0,0.0,0.0,0.0,0.0,0.0,0.0,0.0,0.0,0.0,0.0,0.0,0.0,0.0,0.0,0.0,0.0,0.0,0.0,0.0,0.0,0.0,0.0,0.0,0.0,0.0,0.0,0.0,0.0,0.0,0.0,0.0,0.0,0.0,0.0,0.0,0.0,0.0,0.0,0.0,0.0,0.0,0.0,0.0,0.0,0.0,0.0,0.0,0.0,0.0,0.0,0.0,0.0,0.0,0.0,0.0,0.0,0.0,0.0,0.7154,0.7154,0.7154,0.7154,0.7154,0.7154,0.7154,0.7154,0.7176,0.5493,0.067,0.0,0.0,0.0,0.0,0.0,0.0,0.0,0.0,0.0,0.0,0.0,0.0,-0.2358,-0.4729,-0.723,-0.7323,-0.7372,-0.7372,-0.747,-0.7529,-0.7554,-0.7554,-0.7565,-0.7587,-0.7587,-0.7587,-0.7584,-0.7914,-0.8251,-0.8595,-0.9042,-0.9293,-0.9144,-0.9025,-0.8723,-0.8333,-0.815,-0.8065,-0.8038,0.0,0.0,0.0,0.0,0.0,0.0,0.0,0.0,0.0,0.0,0.0,0.0,0.0,0.0,0.0,0.0,0.0,0.0,0.0,0.0,0.0,0.0,0.0,0.0,0.0,0.0,0.0,0.0,0.0,0.0,0.0,0.0,0.0,0.0,0.0,0.0,0.0,0.0,0.0,0.0,0.0,0.0,0.0,0.0,0.0,0.0,0.0,0.0,0.0,0.0,0.0,0.0,0.0,0.0,0.0,0.0,0.0,0.0,0.0,0.0447,0.1787,0.6144,0.7168,0.7176,0.0,0.0,0.7154,0.7154,0.7154,0.7154,0.7154,0.7154,0.7154,0.7154,0.7171,0.5487,0.067,0.0,0.0,0.0,0.0,0.0,0.0,0.0,0.0,0.0,0.0,0.0,0.0,-0.2498,-0.4925,-0.7358,-0.7448,-0.7497,-0.7497,-0.751,-0.7573,-0.7682,-0.7682,-0.7733,-0.7831,-0.7831,-0.7831,-0.7826,-0.8082,-0.8506,-0.8969,-0.8968,-0.9063,-0.915,-0.9133,-0.8937,-0.8628,-0.8347,-0.8157,-0.8038,0.0,0.0,0.0,0.0,0.0,0.0,0.0,0.0,0.0,0.0,0.0,0.0,0.0,0.0,0.0,0.0,0.0,0.0,0.0,0.0,0.0,0.0,0.0,0.0,0.0,0.0,0.0,0.0,0.0,0.0,0.0,0.0,0.0,0.0,0.0,0.0,0.0,0.0,0.0,0.0,0.0,0.0,0.0,0.0,0.0,0.0,0.0,0.0,0.0,0.0,0.0,0.0,0.0,0.0,0.056,0.3363,0.4148,0.4145,0.4143,0.414,0.4023,0.3233,0.5135,0.7165,0.7157,0.7154,0.7154,0.7154,0.7154,0.7154,0.7154,0.7154,0.7154,0.0,0.7171,0.6502,0.4479,0.179,0.0,0.0,0.0,0.0,0.0,0.0,0.0,0.0,0.0,0.0,0.0,-0.1038,-0.3494,-0.7605,-0.7581,-0.763,-0.7625,-0.769,-0.775,-0.7801,-0.7801,-0.7823,-0.7872,-0.7872,-0.7872,-0.7869,-0.843,-0.8769,-0.9004,-0.9304,-0.9432,-0.9418,-0.9418,-0.9235,-0.893,-0.8635,-0.8428,-0.8296,0.0,0.0,0.0,0.0,0.0,0.0,0.0,0.0,0.0,0.0,0.0,0.0,0.0,0.0,0.0,0.0,0.0,0.0,0.0,0.0,0.0,0.0,0.0,0.0,0.0,0.0,0.0,0.0,0.0,0.0,0.0,0.0,0.0,0.0,0.0,0.0,0.0,0.0,0.0,0.0,0.0,0.0,0.0,0.0,0.0,0.0,0.0,0.0,0.0,0.0,0.0,0.0,0.0,0.0896,0.2687,0.6179,0.7192,0.7184,0.7184,0.7184,0.6386,0.2899,0.4575,0.7163,0.7157,0.7154,0.7154,0.7154,0.7154,0.7154,0.7154,0.7154,0.7154,0.7154,0.7165,0.7179,0.719,0.3022,0.0,0.0,0.0,0.0,0.0,0.0,0.0,0.0,0.0,0.0,0.0,0.0,-0.1776,-0.5576,-0.6985,-0.7766,-0.7761,-0.7842,-0.7864,-0.7828,-0.7828,-0.7809,-0.7774,-0.7774,-0.7793,-0.7823,-0.8554,-0.8821,-0.8976,-0.9579,-0.9761,-0.9666,-0.9666,-0.9507,-0.9252,-0.9035,-0.8784,-0.8537,0.0,0.0,0.0,0.0,0.0,0.0,0.0,0.0,0.0,0.0,0.0,0.0,0.0,0.0,0.0,0.0,0.0,0.0,0.0,0.0,0.0,0.0,0.0,0.0,0.0,0.0,0.0,0.0,0.0,0.0,0.0,0.0,0.0,0.0,0.0,0.0,0.0,0.0,0.0,0.0,0.0,0.0,0.0,0.0,0.0,0.0,0.0,0.0,0.0,0.0,0.0,0.0,0.0,0.3248,0.0,0.7184,0.7171,0.7157,0.7157,0.7168,0.7176,0.7046,0.7054,0.7176,0.716,0.7154,0.7154,0.7154,0.7154,0.7154,0.7154,0.7154,0.7154,0.7154,0.7154,0.7163,0.7179,0.3017,0.0,0.0,0.0,0.0,0.0,0.0,0.0,0.0,0.0,0.0,0.0,0.0,-0.012,-0.0241,-0.5256,-0.7907,-0.7905,-0.791,-0.7845,-0.7597,-0.7597,-0.7533,-0.7529,-0.7529,-0.7595,-0.7706,-0.842,-0.8732,-0.8976,-0.9579,-0.9819,-0.9815,-0.9815,-0.9724,-0.9595,-0.9585,-0.9208,-0.8682,0.0,0.0,0.0,0.0,0.0,0.0,0.0,0.0,0.0,0.0,0.0,0.0,0.0,0.0,0.0,0.0,0.0,0.0,0.0,0.0,0.0,0.0,0.0,0.0,0.0,0.0,0.0,0.0,0.0,0.0,0.0,0.0,0.0,0.0,0.0,0.0,0.0,0.0,0.0,0.0,0.0,0.0,0.0,0.0,0.0,0.0,0.0,0.0,0.0,0.0,0.2129,0.4825,0.4821,0.5944,0.7184,0.7168,0.716,0.7154,0.7154,0.716,0.7163,0.7157,0.716,0.7163,0.7157,0.7154,0.7154,0.7154,0.7154,0.7154,0.7154,0.7154,0.7154,0.7154,0.7154,0.7163,0.7179,0.5828,0.3582,0.0336,0.0,0.0,0.0,0.0,0.0,0.0,0.0,0.0,0.0,0.0,0.0,0.0,-0.3391,-0.52,-0.5255,-0.5255,-0.524,-0.521,-0.6764,-0.7578,-0.7538,-0.7413,-0.7074,-0.6398,-0.7805,-0.7707,-0.6679,-0.8797,-0.9197,-0.848,-0.856,-0.8566,-0.8398,-0.8316,-0.7584,-0.6955,0.0,0.0,0.0,0.0,0.0,0.0,0.0,0.0,0.0,0.0,0.0,0.0,0.0,0.0,0.0,0.0,0.0,0.0,0.0,0.0,0.0,0.0,0.0,0.0,0.0,0.0,0.0,0.0,0.0,0.0,0.0,0.0,0.0,0.0,0.0,0.0,0.0,0.0,0.0,0.0,0.0,0.0,0.0,0.0,0.0,0.0,0.0,0.0,0.0224,0.2017,0.4599,0.7203,0.7195,0.7182,0.7171,0.716,0.7154,0.7154,0.7154,0.7154,0.7154,0.7154,0.7154,0.7154,0.7154,0.7154,0.7154,0.7154,0.7154,0.7154,0.7154,0.7154,0.7154,0.7154,0.7154,0.716,0.7171,0.7187,0.5723,0.179,0.056,0.0,0.0,0.0,0.0,0.0,0.0,0.0,0.0,0.0,0.0,0.0,-0.1673,-0.2497,-0.2467,-0.2467,-0.2459,-0.256,-0.4984,-0.6016,-0.5901,-0.5894,-0.5681,-0.5364,-0.6633,-0.6534,-0.5401,-0.7471,-0.7743,-0.7037,-0.7103,-0.7153,-0.718,-0.6993,-0.649,-0.5986,0.0,0.0,0.0,0.0,0.0,0.0,0.0,0.0,0.0,0.0,0.0,0.0,0.0,0.0,0.0,0.0,0.0,0.0,0.0,0.0,0.0,0.0,0.0,0.0,0.0,0.0,0.0,0.0,0.0,0.0,0.0,0.0,0.0,0.0,0.0,0.0,0.0,0.0,0.0,0.0,0.0,0.0,0.0,0.0,0.0,0.0,0.0,0.0,0.0785,0.562,0.7203,0.7192,0.7184,0.7168,0.7154,0.7154,0.7154,0.7154,0.7154,0.7154,0.7154,0.7154,0.7154,0.7154,0.7154,0.7154,0.7154,0.7154,0.7154,0.7154,0.0,0.0,0.7154,0.7154,0.7154,0.7154,0.7154,0.7179,0.6286,0.0,0.0,0.0,0.0,0.0,0.0,0.0,0.0,0.0,0.0,0.0,0.0,0.0,0.0,0.0,0.0,0.0,0.0,-0.0,-0.2368,-0.3244,-0.2908,-0.2908,-0.3499,-0.4588,-0.4927,-0.5081,-0.515,-0.5625,-0.5745,-0.5745,-0.575,-0.5688,-0.5763,-0.5763,-0.5648,-0.5638,0.0,0.0,0.0,0.0,0.0,0.0,0.0,0.0,0.0,0.0,0.0,0.0,0.0,0.0,0.0,0.0,0.0,0.0,0.0,0.0,0.0,0.0,0.0,0.0,0.0,0.0,0.0,0.0,0.0,0.0,0.0,0.0,0.0,0.0,0.0,0.0,0.0,0.0,0.0,0.0,0.0,0.0,0.0,0.0,0.0,0.0,0.0,0.0,0.0784,0.0,0.0,0.0,0.0,0.716,0.7154,0.7154,0.7154,0.7154,0.7154,0.7154,0.7154,0.7154,0.7154,0.7154,0.7154,0.7154,0.7154,0.7154,0.7154,0.7154,0.0,0.0,0.0,0.7154,0.7154,0.0,0.7154,0.7179,0.0,0.3917,0.0,0.0,0.0,0.0,0.0,0.0,0.0,0.0,0.0,0.0,0.0,0.0,0.0,0.0,0.0,0.0,0.0,-0.0,-0.0674,-0.1345,-0.2129,-0.2128,-0.2245,-0.2595,-0.4279,-0.4064,-0.2839,-0.482,-0.5073,-0.4274,-0.4328,-0.4359,-0.4375,-0.4375,-0.3694,-0.3011,0.0,0.0,0.0,0.0,0.0,0.0,0.0,0.0,0.0,0.0,0.0,0.0,0.0,0.0,0.0,0.0,0.0,0.0,0.0,0.0,0.0,0.0,0.0,0.1009,0.3141,0.1121,0.0,0.0,0.0,0.0,0.0,0.0,0.0,0.0,0.0,0.0,0.0,0.0,0.0,0.0,0.0,0.0,0.0,0.0,0.1346,0.3144,0.3142,0.3137,0.0,0.0,0.0,0.7154,0.7154,0.7154,0.7154,0.7154,0.0,0.7154,0.7154,0.7154,0.7154,0.7154,0.7154,0.7154,0.7154,0.7154,0.7154,0.7154,0.7154,0.7154,0.7154,0.7154,0.0,0.0,0.0,0.0,0.7154,0.7176,0.6284,0.0,0.1455,0.0,0.0,0.0,0.0,0.0,0.0,0.0,0.0,0.0,0.0,0.0,0.0,0.0,0.0,0.0,0.0,-0.0,-0.0561,-0.1009,-0.1458,-0.1681,-0.1793,-0.1907,0.0,-0.2913,-0.1908,-0.3393,-0.3519,-0.2956,-0.2869,-0.2893,-0.2911,-0.2911,-0.2472,-0.2031,0.0,0.0,0.0,0.0,0.0,0.0,0.0,0.0,0.0,0.0,0.0,0.0,0.0,0.0,0.0,0.0,0.0,0.0,0.0,0.0,0.0,0.1009,0.0673,0.2466,0.6639,0.2915,0.0672,0.0,0.0,0.0,0.0,0.0,0.0,0.0,0.0,0.0,0.0,0.0,0.0,0.0,0.0,0.0,0.0112,0.0,0.0,0.722,0.7209,0.0,0.0,0.0,0.7168,0.7154,0.7154,0.7154,0.7154,0.7154,0.7154,0.7154,0.7154,0.7154,0.7154,0.7154,0.7154,0.7154,0.7154,0.7154,0.7154,0.7154,0.0,0.7154,0.7154,0.7154,0.7154,0.7154,0.0,0.7154,0.7154,0.7171,0.6391,0.4365,0.1677,0.0,0.0,0.0,0.0,0.0,0.0,0.0,0.0,0.0,0.0,0.0,0.0,0.0,0.0,0.0,0.0,-0.0,-0.1009,-0.1346,-0.1009,-0.157,-0.1795,-0.1795,-0.1795,-0.1795,-0.1795,-0.1795,-0.1795,-0.1795,-0.1795,-0.1811,-0.1834,-0.1834,-0.1853,-0.188,0.0,0.0,0.0,0.0,0.0,0.0,0.0,0.0,0.0,0.0,0.6495,0.594,0.0,0.0,0.0,0.0,0.0,0.0,0.0,0.0,0.0,0.0,0.4035,0.3358,0.4255,0.5384,0.4033,0.0,0.0,0.0,0.0,0.0,0.0,0.0,0.0,0.0,0.0,0.0,0.0,0.0,0.0,0.0,0.0449,0.4384,0.0,0.0,0.0,0.0,0.0,0.0,0.7157,0.7154,0.7154,0.7154,0.7154,0.7154,0.7154,0.7154,0.7154,0.7154,0.7154,0.7154,0.7154,0.7154,0.7154,0.7154,0.0,0.0,0.7154,0.7154,0.7154,0.7154,0.7154,0.7154,0.7154,0.7154,0.7154,0.7171,0.7067,0.0,0.2685,0.0,0.0,0.0,0.0,0.0,0.0,0.0,0.0,0.0,0.0,0.0,0.0,0.0,0.0,0.0,0.0,-0.0,-0.0224,-0.0785,-0.1683,-0.1795,-0.1795,-0.1795,-0.1795,0.0,-0.1795,-0.1795,-0.1795,-0.1795,-0.1795,-0.1798,-0.1803,-0.1803,-0.1822,-0.1849,0.0,0.0,0.0,0.0,0.0,0.0,0.0,0.7154,0.7154,0.7154,0.7163,0.7173,0.7187,0.617,0.5043,0.0,0.0,0.0,0.0,0.0,0.0,0.0,0.0,0.0,0.0,0.6624,0.0,0.0,0.0,0.0,0.0,0.0,0.0,0.0,0.0,0.0,0.0,0.0,0.0,0.0,0.0,0.0,0.0,0.0,0.0,0.0,0.0,0.0,0.0,0.0,0.7154,0.7154,0.7154,0.7154,0.7154,0.7154,0.7154,0.7154,0.7154,0.7154,0.7154,0.7154,0.7154,0.7154,0.7154,0.0,0.0,0.0,0.7154,0.7154,0.7154,0.7154,0.0,0.7154,0.7154,0.7154,0.7154,0.7163,0.0,0.7182,0.5152,0.2796,0.0,0.0,0.0,0.0,0.0,0.0,0.0,0.0,0.0,0.0,0.0,0.0,0.0,0.0,0.0,0.0,0.0,-0.0449,-0.1346,-0.1683,-0.1795,-0.1795,-0.1795,-0.1795,-0.1795,-0.1795,-0.1795,-0.1795,-0.1795,-0.1795,-0.1795,-0.1795,-0.1804,-0.1817,0.0,0.0,0.0,0.0,0.0,0.0,0.0,0.7154,0.7154,0.7154,0.7154,0.716,0.7176,0.7182,0.7075,0.0,0.0,0.0,0.0,0.0,0.0,0.0,0.0,0.0,0.0,0.0,0.0,0.0,0.0,0.0,0.0,0.0,0.0,0.0,0.0,0.0,0.0,0.0,0.0,0.0,0.0,0.157,0.0,0.0,0.0,0.0,0.0,0.0,0.0,0.0,0.7154,0.7154,0.7154,0.7154,0.7154,0.7154,0.7154,0.7154,0.7154,0.7154,0.7154,0.7154,0.7154,0.7154,0.7154,0.7154,0.0,0.7154,0.7154,0.7154,0.7154,0.7154,0.7154,0.0,0.7154,0.7154,0.7154,0.7157,0.7165,0.0,0.7187,0.0,0.1903,0.056,0.0,0.0,0.0,0.0,0.0,0.0,0.0,0.0,0.0,0.0,0.0,0.0,0.0,0.0,0.0,-0.0336,-0.0897,-0.157,-0.1795,-0.1795,-0.1795,-0.1795,-0.1795,-0.1795,-0.1795,-0.1795,-0.1795,-0.1795,-0.1795,-0.1795,-0.1795,-0.1795,0.0,0.0,0.0,0.0,0.0,0.0,0.0,0.7154,0.7154,0.7154,0.7154,0.7154,0.7157,0.7157,0.6599,0.0,0.0,0.0,0.0,0.0,0.0,0.0,0.0,0.0,0.0,0.0,0.0,0.0,0.0,0.0,0.0,0.0,0.0,0.0,0.0,0.0,0.0,0.0,0.0,0.0,0.0,0.0,0.0,0.0,0.0,0.0,0.0,0.0,0.0,0.0,0.0,0.7154,0.7154,0.7154,0.7154,0.7154,0.0,0.0,0.7154,0.7154,0.7154,0.7154,0.7154,0.7154,0.7154,0.0,0.7154,0.7154,0.7154,0.7154,0.7154,0.7154,0.7154,0.7154,0.7154,0.7154,0.7154,0.7168,0.7182,0.7182,0.0,0.0,0.6527,0.2579,0.0,0.0,0.0,0.0,0.0,0.0,0.0,0.0,0.0,0.0,0.0,0.0,0.0,0.0,0.0,-0.0336,-0.0897,-0.157,-0.1795,-0.1795,-0.1795,-0.1795,0.0,-0.1795,-0.1795,-0.1795,-0.1795,-0.1795,-0.1795,-0.1795,-0.1795,-0.1795,0.0,0.0,0.0,0.0,0.0,0.0,0.7154,0.7154,0.7154,0.7154,0.7154,0.7154,0.7154,0.7154,0.693,0.626,0.0,0.0,0.0,0.0,0.0,0.0,0.0,0.0,0.0,0.0,0.0,0.7182,0.0,0.0,0.0,0.0,0.0,0.0,0.0,0.0,0.0,0.0,0.0,0.0,0.0,0.0,0.0,0.0,0.0,0.0,0.0,0.0,0.7154,0.7154,0.0,0.0,0.7154,0.7154,0.0,0.0,0.7154,0.7154,0.7154,0.7154,0.7154,0.7154,0.7154,0.7154,0.7154,0.7154,0.7154,0.7154,0.7154,0.7154,0.7154,0.7154,0.7154,0.7154,0.7154,0.7154,0.7154,0.7163,0.7171,0.7182,0.719,0.0,0.0,0.0,0.3142,0.0224,0.0,0.0,0.0,0.0,0.0,0.0,0.0,0.0,0.0,0.0,0.0,0.0,0.0,-0.0112,-0.0336,-0.1346,-0.1795,-0.1795,-0.1795,-0.1795,0.0,-0.1795,-0.1795,-0.1795,-0.1795,-0.1795,-0.1795,-0.1795,-0.1795,-0.1795,0.0,0.0,0.0,0.0,0.0,0.7154,0.7154,0.7154,0.7154,0.7154,0.7154,0.7154,0.7154,0.7154,0.7154,0.7154,0.7168,0.0,0.0,0.0,0.0,0.0,0.0,0.0,0.0,0.0,0.7163,0.7173,0.7187,0.5043,0.0,0.0,0.0,0.0,0.0,0.0,0.0,0.0,0.0,0.0,0.0,0.0,0.0,0.0,0.0,0.0,0.0,0.0,0.0,0.0,0.0,0.0,0.0,0.0,0.0,0.0,0.7154,0.7154,0.7154,0.7154,0.7154,0.7154,0.7154,0.7154,0.7154,0.7154,0.7154,0.7154,0.7154,0.7154,0.7154,0.7154,0.7154,0.7154,0.7154,0.7154,0.7154,0.716,0.7168,0.0,0.0,0.617,0.0,0.5504,0.3702,0.0224,0.0,0.0,0.0,0.0,0.0,0.0,0.0,0.0,0.0,0.0,0.0,0.0,0.0,0.0,-0.0,-0.1009,-0.1683,-0.1795,-0.1795,-0.1795,0.0,-0.1795,-0.1795,-0.1795,-0.1795,-0.1795,-0.1795,-0.1795,-0.18,-0.1808,0.0,0.0,0.0,0.0,0.0,0.0,0.7154,0.7154,0.7154,0.7154,0.7154,0.7154,0.7154,0.7154,0.7154,0.7154,0.7154,0.0,0.0,0.0,0.0,0.0,0.0,0.0,0.0,0.0,0.7154,0.7154,0.7173,0.594,0.3469,0.1119,0.0,0.0,0.0,0.0,0.0,0.0,0.0,0.0,0.0,0.0,0.7182,0.0,0.0,0.0,0.0,0.0,0.0,0.0,0.0,0.0,0.0,0.7154,0.7154,0.0,0.7154,0.7154,0.7154,0.7154,0.7154,0.7154,0.7154,0.7154,0.7154,0.7154,0.7154,0.7154,0.7154,0.7154,0.7154,0.7154,0.7154,0.7154,0.7154,0.7154,0.7154,0.7171,0.0,0.0,0.0,0.3692,0.3692,0.1454,0.0,0.0,0.0,0.0,0.0,0.0,0.0,0.0,0.0,0.0,0.0,0.0,0.0,0.0,0.0,0.0,-0.0,-0.0673,-0.1234,-0.1795,-0.1795,-0.1795,0.0,-0.1795,-0.1795,-0.1795,-0.1795,-0.1795,-0.1795,-0.1795,-0.1814,-0.184,0.0,0.0,0.0,0.0,0.0,0.0,0.0,0.7154,0.7154,0.7154,0.7154,0.7154,0.7154,0.7154,0.7154,0.7154,0.7154,0.0,0.0,0.0,0.0,0.0,0.0,0.0,0.0,0.0,0.7154,0.7154,0.7173,0.6844,0.5947,0.1903,0.1793,0.495,0.4944,0.0,0.0,0.0,0.0,0.0,0.0,0.7182,0.7182,0.0,0.0,0.0,0.0,0.0,0.0,0.0,0.0,0.0,0.0,0.0,0.0,0.7607,0.7493,0.7154,0.7154,0.7154,0.7154,0.7154,0.7154,0.7154,0.7154,0.7154,0.7154,0.7154,0.7154,0.7154,0.7154,0.7154,0.7154,0.7154,0.7154,0.7154,0.0,0.0,0.0,0.7182,0.651,0.6061,0.0,0.0,0.0,0.0,0.0,0.0,0.0,0.0,0.0,0.0,0.0,0.0,0.0,0.0,0.0,0.0,0.0,0.0,-0.0,-0.0224,-0.0785,-0.1795,-0.1795,-0.1795,-0.1795,-0.1795,-0.1795,-0.1795,-0.1795,-0.1808,-0.1826,-0.1826,-0.1845,-0.1871,0.0,0.0,0.0,0.0,0.0,0.0,0.0,0.7154,0.7154,0.7154,0.7154,0.7154,0.7154,0.7154,0.7154,0.7154,0.7154,0.0,0.0,0.0,0.0,0.0,0.0,0.0,0.0,0.7269,0.7269,0.7222,0.7233,0.7222,0.7078,0.3469,0.3248,0.5848,0.5844,0.0,0.0,0.0,0.0,0.0,0.7176,0.7171,0.7171,0.0,0.0,0.0,0.0,0.0,0.0,0.0,0.0,0.0,0.0,0.0,0.0,0.0,0.7607,0.7379,0.7601,0.749,0.7379,0.7379,0.7379,0.7379,0.7265,0.7268,0.7268,0.7265,0.7154,0.7154,0.7154,0.7154,0.7154,0.7154,0.7154,0.7154,0.0,0.0,0.0,0.7171,0.0,0.0,0.0,0.4479,0.2014,0.0112,0.0,0.0,0.0,0.0,0.0,0.0,0.0,0.0,0.0,0.0,0.0,0.0,0.0,0.0,0.0,0.0,-0.0449,-0.1121,-0.157,-0.1795,0.0,-0.1795,-0.1795,-0.1796,-0.1808,-0.1823,-0.1842,-0.1853,-0.1877,-0.1903,0.0,0.0,0.0,0.0,0.0,0.0,0.0,0.7154,0.7154,0.7154,0.7154,0.7154,0.7154,0.7154,0.7154,0.7154,0.0,0.0,0.0,0.0,0.0,0.0,0.0,0.0,0.7336,0.7456,0.7459,0.7336,0.7336,0.7282,0.7182,0.5708,0.4587,0.3805,0.3805,0.5154,0.0,0.0,0.0,0.0,0.7163,0.7154,0.0,0.0,0.0,0.0,0.0,0.0,0.0,0.0,0.0,0.0,0.0,0.0,0.0,0.0,0.0,0.0,0.0,0.794,0.7607,0.7607,0.7607,0.7604,0.7265,0.749,0.0,0.7268,0.7265,0.7265,0.7265,0.7265,0.7154,0.7265,0.7265,0.7154,0.0,0.7154,0.0,0.0,0.7154,0.0,0.7179,0.7182,0.5375,0.0895,0.0336,0.0224,0.0224,0.0112,0.0,0.0,0.0,0.0,0.0,0.0,0.0,0.0,0.0,0.0,0.0,0.0,0.0,0.0,-0.1234,-0.1795,-0.1795,-0.1797,-0.1798,-0.1802,-0.1832,-0.1844,-0.185,-0.1879,-0.1908,-0.1934,0.0,0.0,0.0,0.0,0.0,0.0,0.0,0.0,0.0,0.0,0.7154,0.7154,0.7154,0.7154,0.7154,0.0,0.0,0.0,0.0,0.0,0.0,0.0,0.0,0.0,0.7336,0.7456,0.7459,0.7336,0.7336,0.7282,0.7182,0.6839,0.6507,0.64,0.6393,0.6723,0.0,0.0,0.0,0.0,0.7157,0.7154,0.0,0.0,0.0,0.0,0.7154,0.7379,0.0,0.0,0.0,0.0,0.0,0.0,0.0,0.0,0.8266,0.8377,0.8716,0.0,0.7934,0.7934,0.7934,0.7934,0.0,0.7823,0.7826,0.7604,0.0,0.7493,0.7493,0.7379,0.7268,0.7493,0.7379,0.7154,0.7154,0.0,0.0,0.7154,0.7154,0.7157,0.716,0.7173,0.6728,0.5601,0.3804,0.2797,0.2798,0.1007,0.0,0.0,0.0,0.0,0.0,0.0,0.0,0.0,0.0,0.0,0.0,0.0,0.0,-0.0,-0.0785,-0.1346,-0.1797,-0.182,-0.1829,-0.1833,-0.1863,-0.1889,-0.1911,-0.1918,-0.194,-0.1966,0.0,0.0,0.0,0.0,0.0,0.0,0.0,0.0,0.0,0.0,0.0,0.7154,0.7154,0.7154,0.0,0.0,0.0,0.0,0.0,0.0,0.0,0.0,0.0,0.7421,0.7421,0.7589,0.7595,0.7421,0.7421,0.7334,0.7171,0.7171,0.7173,0.7176,0.7171,0.7165,0.0,0.0,0.0,0.7154,0.7154,0.0,0.0,0.0,0.0,0.0,0.7379,0.7604,0.0,0.7826,0.7934,0.8156,0.0,0.0,0.0,0.0,0.8484,0.8598,0.8826,0.8602,0.8263,0.8263,0.8263,0.8156,0.8045,0.8156,0.0,0.0,0.0,0.7826,0.7826,0.7712,0.7601,0.7715,0.7604,0.0,0.0,0.0,0.7154,0.7154,0.7154,0.7154,0.0,0.7165,0.7173,0.7182,0.594,0.5266,0.5268,0.4032,0.2798,0.1677,0.056,0.0,0.0,0.0,0.0,0.0,0.0,0.0,0.0,0.0,0.0,-0.0,-0.0336,-0.1014,-0.1817,-0.1834,-0.1849,-0.1864,-0.1895,-0.1917,-0.1933,-0.1947,-0.1962,-0.1977,0.0,0.0,0.0,0.0,0.0,0.0,0.0,0.0,0.0,0.0,0.0,0.0,0.0,0.0,0.0,0.0,0.0,0.0,0.0,0.0,0.0,0.0,0.7388,0.7519,0.7519,0.775,0.7755,0.7519,0.7519,0.7394,0.7154,0.7154,0.7154,0.7154,0.7154,0.7154,0.0,0.0,0.0,0.7154,0.7154,0.0,0.0,0.0,0.0,0.0,0.0,0.0,0.0,0.8045,0.8266,0.8488,0.8266,0.0,0.0,0.0,0.0,0.0,0.8826,0.8712,0.8598,0.8598,0.8598,0.8484,0.8156,0.0,0.0,0.0,0.0,0.0,0.0,0.8045,0.0,0.0,0.0,0.0,0.7268,0.7265,0.7265,0.7154,0.7154,0.0,0.7154,0.7154,0.7163,0.7176,0.7179,0.7182,0.719,0.7192,0.6284,0.4252,0.2125,0.0784,0.0,0.0,0.0,0.0,0.0,0.0,0.0,0.0,0.0,0.0,0.0,0.0,-0.1611,-0.1851,-0.1869,-0.1896,-0.1926,-0.1938,-0.1941,-0.1967,-0.1977,-0.1977,0.0,0.0,0.0,0.0,0.0,0.0,0.0,0.0,0.0,0.0,0.0,0.0,0.0,0.0,0.0,0.0,0.0,0.0,0.0,0.0,0.0,0.7154,0.7388,0.7519,0.7519,0.775,0.7755,0.7519,0.7519,0.7394,0.7154,0.7154,0.7154,0.7154,0.7154,0.7154,0.7154,0.0,0.0,0.7154,0.7154,0.0,0.0,0.0,0.0,0.0,0.0,0.0,0.0,0.8374,0.8598,0.8826,0.8826,0.0,0.0,0.0,0.0,0.0,0.8937,0.8826,0.8826,0.8826,0.8826,0.8826,0.8826,0.0,0.0,0.0,0.0,0.0,0.0,0.8156,0.8045,0.0,0.0,0.7826,0.0,0.0,0.7493,0.7265,0.0,0.7154,0.7154,0.7154,0.7157,0.716,0.716,0.716,0.7163,0.7176,0.707,0.6616,0.6284,0.4147,0.0,0.0,0.0,0.0,0.0,0.0,0.0,0.0,0.0,0.0,0.0,-0.0115,-0.0346,-0.1422,-0.192,-0.1927,-0.1958,-0.1969,-0.197,-0.1975,-0.1977,-0.1977,0.0,0.0,0.0,0.0,0.0,0.0,0.0,0.0,0.0,0.0,0.0,0.0,0.0,0.0,0.0,0.0,0.0,0.0,0.0,0.0,0.7154,0.7154,0.7326,0.7451,0.7516,0.769,0.7693,0.7519,0.7453,0.7328,0.7154,0.7154,0.7154,0.7154,0.7154,0.7154,0.7154,0.7154,0.7154,0.7154,0.0,0.0,0.0,0.0,0.0,0.0,0.0,0.0,0.0,0.0,0.8826,0.894,0.894,0.0,0.0,0.0,0.0,0.0,0.894,0.894,0.9047,0.9699,0.9372,0.894,0.894,0.0,0.0,0.0,0.0,0.0,0.0,0.0,0.8491,0.8488,0.0,0.8156,0.7826,0.7826,0.7715,0.0,0.0,0.7379,0.7265,0.7154,0.7154,0.7154,0.7154,0.7154,0.7154,0.7163,0.7168,0.7168,0.7182,0.6168,0.3917,0.1343,0.0,0.0,0.0,0.0,0.0,0.0,0.0,0.0,0.0,0.0,-0.0118,-0.1079,-0.1577,-0.1957,-0.1971,-0.1977,-0.1977,-0.1977,-0.1977,-0.1977,0.0,0.0,0.0,0.0,0.0,0.0,0.0,0.0,0.0,0.0,0.0,0.0,0.0,0.0,0.0,0.0,0.0,0.0,0.0,0.0,0.7154,0.7154,0.7271,0.738,0.7472,0.7595,0.76,0.7475,0.7383,0.7274,0.7154,0.7154,0.7154,0.7154,0.7154,0.7154,0.7154,0.7154,0.7154,0.7154,0.0,0.0,0.0,0.0,0.0,0.0,0.0,0.0,0.0,0.0,0.0,0.0,0.0,0.0,0.0,0.894,0.894,0.894,0.894,0.9154,0.9588,1.0457,0.9805,0.9047,0.9592,0.0,0.0,0.0,0.0,0.0,0.0,0.9372,0.0,0.8709,0.8598,0.8488,0.8156,0.8156,0.8045,0.7715,0.7607,0.7493,0.7268,0.7265,0.7154,0.7154,0.7154,0.7154,0.7154,0.7154,0.7154,0.7154,0.7168,0.719,0.7222,0.36,0.1123,0.0,0.0,0.0,0.0,0.0,0.0,0.0,0.0,0.0,-0.0121,-0.0848,-0.1588,-0.1977,-0.1977,-0.1977,-0.1977,-0.1977,-0.1977,-0.1977,0.0,0.0,0.0,0.0,0.0,0.0,0.0,0.0,0.0,0.0,0.0,0.0,0.0,0.0,0.0,0.0,0.0,0.0,0.0,0.0,0.7154,0.7154,0.7271,0.7339,0.7347,0.747,0.7472,0.7347,0.7339,0.7274,0.7154,0.7154,0.7154,0.7154,0.7154,0.7154,0.7154,0.7154,0.7154,0.7154,0.7154,0.0,0.0,0.0,0.0,0.0,0.0,0.0,0.0,0.0,0.0,0.0,0.0,0.0,0.894,0.894,0.894,0.894,0.894,0.9699,1.0562,1.0672,0.9805,0.0,1.1655,1.046,0.0,1.0347,0.0,0.0,0.0,1.0566,1.0241,0.9044,0.8826,0.8823,0.8488,0.0,0.8374,0.8045,0.7715,0.7607,0.7607,0.7379,0.7154,0.7154,0.7154,0.7154,0.7154,0.7154,0.7154,0.7154,0.7157,0.7214,0.7339,0.6992,0.4543,0.0,0.0,0.0,0.0,0.0,0.0,0.0,0.0,0.0,-0.0121,-0.1348,-0.1975,-0.1977,-0.1977,-0.1977,-0.1977,-0.1977,-0.1977,-0.1977,0.0,0.0,0.0,0.0,0.0,0.0,0.0,0.0,0.0,0.0,0.0,0.0,0.0,0.0,0.0,0.0,0.0,0.0,0.0,0.7154,0.7154,0.7154,0.7198,0.7222,0.7222,0.7342,0.7383,0.7336,0.726,0.7198,0.7154,0.7154,0.7154,0.7154,0.7154,0.7154,0.7154,0.7154,0.7154,0.7154,0.7154,0.7154,0.0,0.0,0.0,0.0,0.0,0.0,0.0,0.0,0.894,0.894,0.894,0.9372,1.0021,1.0021,1.057,1.1114,1.1114,1.1437,1.1978,1.2635,1.1982,0.0,0.0,1.1223,1.0351,1.1546,1.0245,0.0,0.0,0.0,0.9482,0.8937,0.894,0.8826,0.8712,0.8712,0.8602,0.8374,0.8266,0.8045,0.7823,0.7604,0.749,0.7712,0.7493,0.7493,0.7493,0.7493,0.7416,0.7266,0.7269,0.7328,0.7453,0.7462,0.6621,0.4728,0.15,0.0,0.0,0.0,0.0,0.0,0.0,0.0,-0.0122,-0.0985,-0.1359,-0.1359,-0.1853,-0.1977,-0.1977,-0.1977,-0.1977,-0.1977,0.0,0.0,0.0,0.0,0.0,0.0,0.0,0.0,0.0,0.0,0.0,0.0,0.0,0.0,0.0,0.0,0.0,0.0,0.7214,0.7211,0.7195,0.7157,0.7154,0.7154,0.7154,0.7236,0.7279,0.7279,0.7195,0.7154,0.7154,0.7154,0.7154,0.7154,0.7154,0.7154,0.7154,0.7154,0.7154,0.7154,0.7154,0.7154,0.0,0.0,0.0,0.0,0.0,0.0,0.0,0.0,0.9154,0.9482,0.9482,1.0241,1.1214,1.1214,1.176,1.2417,1.2417,1.2635,1.3181,0.0,0.0,0.0,1.3501,1.2304,1.1546,1.2743,1.1442,0.0,0.0,0.0,0.0,0.0,0.894,0.894,0.894,0.894,0.8826,0.8598,0.8598,0.8374,0.8152,0.7937,0.7826,0.7934,0.7826,0.7718,0.7607,0.7607,0.7553,0.7331,0.7336,0.7413,0.7576,0.7584,0.7608,0.7649,0.4175,0.1666,0.0,0.0,0.0,0.0,0.0,0.0,-0.0,-0.0494,-0.0988,-0.1359,-0.1853,-0.1977,-0.1977,-0.1977,-0.1977,-0.1977,0.0,0.0,0.0,0.0,0.0,0.0,0.0,0.0,0.0,0.0,0.0,0.0,0.0,0.0,0.0,0.0,0.0,0.0,0.7345,0.7336,0.7285,0.7163,0.7157,0.7157,0.7157,0.7154,0.7154,0.7154,0.7154,0.7154,0.7154,0.7154,0.7154,0.7154,0.7154,0.7154,0.7154,0.7154,0.7154,0.7154,0.7154,0.7154,0.7265,0.0,0.0,0.0,0.0,0.0,0.0,0.0,0.9699,1.0672,1.0672,1.1542,1.2417,1.2417,1.2413,1.2413,1.2413,1.329,1.4169,0.0,0.0,0.0,1.5891,1.404,1.2743,1.3948,0.0,1.1655,0.9375,0.0,0.0,0.9047,0.894,0.894,0.894,0.894,0.894,0.894,0.8709,0.8484,0.8484,0.8156,0.8045,0.8045,0.8045,0.7937,0.7607,0.7607,0.7553,0.7331,0.7336,0.7456,0.7698,0.7703,0.7769,0.7899,0.7899,0.5133,0.0,0.0,0.0,0.0,0.0,0.0,0.0,0.0,-0.0741,-0.1977,-0.1977,-0.1977,-0.1977,-0.1977,-0.1977,-0.1977,0.0,0.0,0.0,0.0,0.0,0.0,0.0,0.0,0.0,0.0,0.0,0.0,0.0,0.0,0.0,0.0,0.0,0.0,0.7467,0.7464,0.7448,0.7413,0.7328,0.7282,0.7282,0.7198,0.7154,0.7154,0.7154,0.7154,0.7154,0.7154,0.7154,0.7154,0.7154,0.7154,0.7154,0.7154,0.7154,0.7154,0.7154,0.7268,0.7493,0.0,0.0,0.0,0.0,0.0,0.0,0.0,0.0,0.0,1.1873,1.2743,1.3619,1.3619,1.4266,1.4911,1.4911,1.5131,0.0,1.5351,0.0,0.0,0.0,1.4702,0.0,0.0,0.0,1.1978,1.0457,0.0,0.0,0.8937,0.894,0.894,0.894,0.894,0.894,0.894,0.8826,0.8823,0.8823,0.8488,0.8377,0.8605,0.8488,0.8266,0.8266,0.8045,0.7771,0.7669,0.7533,0.754,0.7701,0.778,0.7839,0.788,0.7891,0.5161,0.0,0.0,0.0,0.0,0.0,0.0,0.0,0.0,-0.0247,-0.0741,-0.1606,-0.1977,-0.1977,-0.1977,-0.1977,-0.1977,0.0,0.0,0.0,0.0,0.0,0.0,0.0,0.0,0.0,0.0,0.0,0.0,0.0,0.0,0.0,0.0,0.0,0.0,0.0,0.7592,0.757,0.7521,0.7448,0.741,0.741,0.7336,0.7298,0.7298,0.7203,0.7154,0.7154,0.7154,0.7154,0.7154,0.7154,0.7154,0.7154,0.7154,0.7154,0.7154,0.7268,0.7709,0.8367,0.0,0.0,0.0,0.0,0.0,0.0,0.0,0.0,0.0,1.3073,1.3943,1.4922,1.4922,1.5351,1.5891,1.5891,1.5891,0.0,1.5891,1.5891,1.5891,1.5891,0.0,0.0,0.0,0.0,1.2743,1.1542,1.0457,0.0,0.9588,0.9265,0.894,0.894,0.894,0.894,0.894,0.894,0.894,0.894,0.8712,0.8712,0.8937,0.8712,0.8598,0.8484,0.8263,0.8103,0.7783,0.7634,0.7644,0.7701,0.7769,0.7826,0.7872,0.7883,0.628,0.3078,0.2093,0.0986,0.0,0.0,0.0,0.0,0.0,0.0,-0.0123,-0.0864,-0.1482,-0.1977,-0.1977,-0.1977,-0.1977,0.0,0.0,0.0,0.0,0.0,0.0,0.0,0.0,0.0,0.0,0.0,0.0,0.0,0.0,0.0,0.0,0.0,0.0,0.0,0.0,0.7668,0.7554,0.754,0.7529,0.7519,0.7519,0.7519,0.7519,0.7285,0.7171,0.7171,0.716,0.7154,0.7154,0.7154,0.7154,0.7154,0.7265,0.7376,0.7374,0.7823,0.8589,0.9559,1.012,0.0,0.0,0.0,0.0,0.0,0.0,0.0,0.0,1.4379,1.503,1.5891,1.5891,1.5891,1.5891,1.5891,1.5891,0.0,1.5891,1.5891,0.0,1.5891,1.5891,1.5571,1.46,0.0,1.3835,1.2743,1.1651,1.0781,1.0672,0.9809,0.9047,0.894,0.894,0.894,0.894,0.894,0.894,0.894,0.894,0.894,0.894,0.894,0.8826,0.8595,0.8484,0.832,0.7879,0.778,0.7786,0.7665,0.769,0.7755,0.7856,0.7867,0.788,0.7771,0.5418,0.283,0.037,0.0123,0.0,0.0,0.0,0.0,0.0,0.0,-0.0741,-0.1853,-0.1977,-0.1977,-0.1977,0.0,0.0,0.0,0.0,0.0,0.0,0.0,0.0,0.0,0.0,0.0,0.0,0.0,0.0,0.0,0.0,0.0,0.0,0.0,0.7834,0.7823,0.7796,0.7709,0.7616,0.7521,0.7519,0.7519,0.7519,0.7369,0.7296,0.7296,0.7198,0.7154,0.7154,0.7154,0.7154,0.7265,0.8149,0.8692,0.8903,0.99,1.0777,1.1433,1.1542,1.1873,0.0,0.0,0.0,0.0,0.0,0.0,0.0,1.5565,1.5672,1.5891,1.5891,1.5891,1.5891,1.5891,1.5891,0.0,0.0,1.5891,1.5891,1.5891,1.5891,1.5785,1.5565,1.4815,1.4169,1.384,1.2856,1.176,1.0891,1.0457,1.0025,0.9047,0.894,0.894,0.894,0.894,0.894,0.894,0.894,0.894,0.894,0.894,0.8826,0.8826,0.8598,0.8279,0.7973,0.7847,0.7701,0.7413,0.7606,0.7714,0.7739,0.7828,0.7875,0.7877,0.7271,0.5542,0.2953,0.0863,0.0,0.0,0.0,0.0,0.0,0.0,-0.0123,-0.0617,-0.1606,-0.1977,-0.1977,0.0,0.0,0.0,0.0,0.0,0.0,0.0,0.0,0.0,0.0,0.0,0.0,0.0,0.0,0.0,0.0,0.0,0.0,0.0,0.0,0.7872,0.7872,0.7815,0.7752,0.769,0.7687,0.7687,0.7687,0.757,0.7451,0.7334,0.7271,0.7211,0.7154,0.7154,0.7487,0.8039,0.8803,0.9457,1.0221,1.121,1.2087,1.2842,1.296,1.3506,1.4153,1.4809,0.0,0.0,0.0,0.0,0.0,0.0,0.0,1.5891,1.5891,1.5891,1.5891,1.5891,0.0,0.0,1.5891,0.0,1.5891,1.5891,1.5891,1.5891,1.5891,1.5458,1.503,1.503,1.4051,1.3073,1.2417,1.1437,1.0457,0.9805,0.9265,0.894,0.894,0.894,0.894,0.894,0.894,0.894,0.894,0.894,0.894,0.894,0.8712,0.8602,0.8266,0.7997,0.7725,0.7561,0.7462,0.7584,0.7703,0.7763,0.7818,0.7872,0.7891,0.7153,0.5788,0.4435,0.3079,0.1724,0.0493,0.0,0.0,0.0,0.0,-0.0123,-0.0741,-0.1482,-0.1977,0.0,0.0,0.0,0.0,0.0,0.0,0.0,0.0,0.0,0.0,0.0,0.0,0.0,0.0,0.0,0.0,0.0,0.0,0.0,0.0,0.0,0.7872,0.7872,0.7872,0.7872,0.7872,0.7872,0.7872,0.7777,0.7616,0.7399,0.7377,0.7414,0.7516,0.7627,0.8279,0.9357,0.9783,1.0546,1.1651,1.2309,1.3171,1.4137,1.4374,1.503,1.5891,1.5891,1.5891,1.5891,1.5891,0.0,0.0,0.0,0.0,1.5891,1.5891,1.5891,1.5891,1.5891,0.0,1.5891,1.5891,1.5922,0.0,1.5958,1.5994,1.603,1.603,1.5952,1.5891,1.5891,1.5137,1.4396,1.4331,1.2474,1.0936,1.083,0.9739,0.8967,0.8944,0.894,0.894,0.894,0.894,0.894,0.894,0.894,0.894,0.894,0.894,0.8823,0.8484,0.8263,0.7985,0.7754,0.7553,0.7437,0.7638,0.7682,0.7761,0.7872,0.7886,0.7894,0.7894,0.7905,0.6662,0.443,0.2217,0.1109,0.0616,0.0617,0.037,0.0,0.037,-0.037,-0.1729,0.0,0.0,0.0,0.0,0.0,0.0,0.0,0.0,0.0,0.0,0.0,0.0,0.0,0.0,0.0,0.0,0.0,0.0,0.0,0.0,0.0,0.7872,0.7872,0.7872,0.7872,0.7872,0.7872,0.7872,0.7856,0.778,0.0,0.0,0.7999,0.8881,0.9103,0.9809,1.0891,1.2195,1.295,1.3485,1.4595,1.525,1.5565,1.5672,1.5785,1.5891,1.5891,1.5891,1.5891,1.5891,1.5891,0.0,0.0,0.0,1.5891,1.5891,1.5891,1.5891,1.5891,0.0,1.5891,0.0,1.606,1.6229,0.0,0.0,1.6592,0.0,1.6217,1.5891,1.5891,1.5785,1.5421,1.4658,1.3357,1.2024,1.1139,0.9909,0.9079,0.8954,0.894,0.894,0.894,0.894,0.894,0.894,0.894,0.894,0.894,0.894,0.8823,0.8484,0.8484,0.8165,0.763,0.7734,0.7578,0.7388,0.76,0.7761,0.7872,0.7875,0.7875,0.7875,0.7894,0.7651,0.7278,0.7037,0.5425,0.3322,0.3323,0.197,0.0247,0.1971,0.1356,-0.0494,0.0,0.0,0.0,0.0,0.0,0.0,0.0,0.0,0.0,0.0,0.0,0.0,0.0,0.0,0.0,0.0,0.0,0.0,0.0,0.0,0.0,0.7872,0.7872,0.7872,0.7872,0.7872,0.7872,0.7872,0.8596,0.0,0.0,0.9761,0.9948,0.0,0.0,1.1329,1.2578,1.3222,1.3932,1.4809,1.5464,1.5785,1.5891,1.5891,1.5891,1.5891,1.5891,0.0,1.5891,1.5891,1.5891,1.5891,1.5891,0.0,0.0,0.0,1.5891,1.5891,1.5891,1.6,1.6109,0.0,1.6314,1.6513,1.6513,0.0,1.67,1.67,1.6507,1.6296,1.6139,1.6235,1.5887,1.4735,1.3501,1.2452,1.1216,0.9997,0.913,0.9066,0.8988,0.894,0.894,0.894,0.894,0.894,0.894,0.894,0.894,0.894,0.8826,0.8712,0.8598,0.8266,0.7826,0.7771,0.761,0.7339,0.7584,0.7728,0.7777,0.7842,0.7872,0.7872,0.788,0.7883,0.7886,0.7899,0.7155,0.616,0.6164,0.5425,0.4313,0.3693,0.271,0.1602,0.0,0.0,0.0,0.0,0.0,0.0,0.0,0.0,0.0,0.0,0.0,0.0,0.0,0.0,0.0,0.0,0.0,0.0,0.0,0.0,0.0,0.7872,0.7872,0.7872,0.7872,0.8233,0.8355,0.8355,0.0,0.0,1.0407,1.1972,1.2179,0.0,1.1942,1.3077,0.0,0.0,0.0,1.5677,1.5815,1.5891,1.5891,1.5998,1.5998,1.5998,1.5998,0.0,0.0,0.0,0.0,1.5891,1.5891,1.5891,0.0,0.0,0.0,0.0,0.0,0.0,1.6296,1.6368,1.6592,1.6797,0.0,0.0,1.6899,0.0,1.6899,1.6696,1.6087,1.6151,1.5856,1.482,1.3468,1.2294,1.1335,1.0078,0.9181,0.911,0.9005,0.894,0.894,0.894,0.894,0.894,0.894,0.894,0.894,0.894,0.894,0.894,0.8712,0.8488,0.8156,0.7826,0.7446,0.7339,0.7521,0.7641,0.7703,0.7788,0.7845,0.7872,0.7872,0.7872,0.7872,0.7886,0.7891,0.7891,0.7899,0.7905,0.7659,0.5667,0.4679,0.4066,0.0,0.0,0.0,0.0,0.0,0.0,0.0,0.0,0.0,0.0,0.0,0.0,0.0,0.8854,0.8732,0.8369,0.8369,0.8244,0.7872,0.7872,0.7872,0.7872,0.7872,0.0,0.7872,0.9079,0.9684,0.9684,0.0,0.0,1.2093,1.3421,1.4247,1.4801,1.458,1.5172,1.6204,0.0,0.0,0.0,0.0,1.5891,1.5891,0.0,0.0,0.0,0.0,0.0,0.0,0.0,0.0,0.0,0.0,0.0,1.5891,0.0,0.0,0.0,0.0,1.6272,0.0,1.6616,1.6875,0.0,0.0,0.0,1.7443,1.7443,1.7443,1.7008,1.5577,1.502,1.4945,1.5155,1.3087,1.1399,1.1347,1.0174,0.9266,0.8984,0.8944,0.894,0.894,0.894,0.894,0.894,0.894,0.894,0.894,0.894,0.894,0.894,0.8937,0.8712,0.8484,0.7937,0.7446,0.7336,0.7347,0.7475,0.7701,0.7706,0.7769,0.7872,0.7872,0.7872,0.7872,0.7872,0.7872,0.7872,0.7872,0.7883,0.7899,0.7774,0.7656,0.7163,0.0,0.0,0.0,0.0,0.0,0.0,0.0,0.0,0.0,0.0,0.0,0.0,0.0,1.0778,1.0536,1.1378,1.0536,0.993,0.9805,0.8967,0.8485,0.8485,0.9089,0.9454,0.9454,1.0532,1.1129,0.0,0.0,1.3416,1.377,1.5219,1.6059,1.629,1.6031,1.6218,1.6816,1.6664,0.0,0.0,0.0,0.0,0.0,0.0,0.0,0.0,0.0,0.0,0.0,0.0,0.0,0.0,0.0,0.0,0.0,0.0,0.0,0.0,0.0,0.0,0.0,1.6881,1.7153,1.734,1.734,1.7412,1.7485,1.7485,1.7485,1.7097,1.5702,1.5381,1.4712,1.3002,1.1942,1.1106,1.0347,0.9701,0.9195,0.9089,0.8994,0.894,0.894,0.894,0.894,0.894,0.894,0.894,0.894,0.894,0.894,0.894,0.894,0.8716,0.8152,0.7826,0.7516,0.722,0.7298,0.7383,0.7472,0.763,0.7725,0.7766,0.7839,0.7872,0.7872,0.7872,0.7872,0.7872,0.7872,0.7875,0.788,0.788,0.7891,0.7779,0.0,0.0,0.0,0.0,0.0,0.0,0.0,0.0,0.0,1.2822,0.0,0.0,0.0,0.0,1.0895,1.186,1.0778,1.0172,1.0172,0.9335,0.8854,0.8854,0.946,0.9822,0.9822,1.1257,1.2093,1.2337,0.0,0.0,0.0,1.6537,1.7026,1.7132,1.6949,1.6982,0.0,0.0,0.0,1.6827,0.0,0.0,1.7254,0.0,0.0,0.0,0.0,0.0,0.0,0.0,0.0,0.0,0.0,0.0,0.0,0.0,0.0,0.0,1.6679,0.0,0.0,0.0,0.0,1.7485,1.7485,0.0,1.7485,1.7485,1.7485,1.712,1.5811,1.5213,1.4208,1.1819,1.1165,1.0524,0.9655,0.9313,0.9133,0.9086,0.8998,0.894,0.894,0.894,0.894,0.894,0.894,0.0,0.894,0.894,0.894,0.894,0.894,0.8605,0.8045,0.7826,0.7604,0.7157,0.7236,0.7296,0.7342,0.7505,0.7625,0.7706,0.7782,0.7837,0.7872,0.7872,0.7872,0.7872,0.7872,0.7872,0.7872,0.7872,0.788,0.7891,0.0,0.0,0.0,0.0,0.0,0.0,0.0,0.0,0.0,1.223,0.0,0.0,0.0,0.0,0.0,0.9579,0.9217,0.9095,0.9095,0.9095,0.9098,0.9098,0.9095,0.9098,0.9098,1.1499,1.2817,1.2817,1.5332,1.6661,1.702,0.0,1.7138,1.7485,1.7485,1.7485,1.7467,0.0,1.7105,1.708,0.0,1.7272,1.7272,0.0,0.0,0.0,1.8158,1.8151,0.0,1.7706,0.0,0.0,0.0,0.0,0.0,0.0,0.0,0.0,0.0,0.0,0.0,0.0,0.0,0.0,1.7485,0.0,1.7485,1.7485,1.7485,1.7126,1.5811,1.45,1.3306,1.1864,1.0531,0.9551,0.9395,0.9242,0.9093,0.8954,0.894,0.894,0.894,0.894,0.894,0.894,0.894,0.894,0.894,0.894,0.894,0.894,0.894,0.8605,0.8045,0.8045,0.7712,0.7265,0.7265,0.7217,0.7331,0.7334,0.7464,0.7693,0.7698,0.7763,0.7867,0.7869,0.7872,0.7872,0.7872,0.7872,0.7872,0.7872,0.7872,0.7875,0.0,0.0,0.0,0.0,0.0,0.0,1.7003,1.7003,1.6762,0.0,0.0,0.0,1.5445,1.5327,1.4966,1.3894,1.3775,1.3775,1.3775,1.2822,1.2341,1.2341,1.3057,1.3412,1.3412,1.4733,1.558,1.5822,1.6543,1.702,1.7367,1.7367,1.7367,0.0,1.7485,1.7485,1.7479,1.7406,0.0,0.0,1.7871,1.8071,0.0,0.0,0.0,0.0,0.0,1.8552,1.8373,0.0,1.8269,1.8269,0.0,0.0,0.0,0.0,0.0,0.0,1.7585,0.0,0.0,0.0,0.0,0.0,0.0,0.0,1.7485,1.7485,1.7485,1.6885,1.4619,1.3904,1.2901,1.0517,0.9776,0.9391,0.9239,0.9089,0.8984,0.8944,0.894,0.894,0.894,0.894,0.894,0.0,0.894,0.894,0.894,0.894,0.894,0.894,0.894,0.8716,0.8374,0.8374,0.8045,0.7493,0.7493,0.7399,0.7206,0.7296,0.7372,0.7448,0.7625,0.772,0.7755,0.7837,0.7872,0.7872,0.7872,0.7872,0.7872,0.7872,0.7872,0.7872,0.0,0.0,0.0,0.0,0.0,1.7485,1.7485,1.7485,1.7361,0.0,0.0,0.0,1.593,1.593,1.5575,1.4857,1.4857,1.4857,1.4857,1.4143,1.3665,1.3665,1.4257,1.4495,1.4495,1.5575,1.6177,1.6419,1.6897,1.7256,1.7485,1.7485,1.7485,1.7485,0.0,0.0,0.0,0.0,0.0,0.0,1.8421,0.0,0.0,1.9249,1.9259,0.0,0.0,0.0,1.8858,1.8858,1.8858,0.0,0.0,0.0,0.0,0.0,0.0,0.0,0.0,0.0,0.0,0.0,0.0,0.0,1.7485,1.7485,1.7485,1.7485,1.7485,1.7003,1.5575,1.4381,1.309,1.1411,1.0128,0.9327,0.9174,0.9028,0.894,0.894,0.894,0.894,0.894,0.894,0.894,0.894,0.894,0.894,0.894,0.894,0.894,0.894,0.894,0.8823,0.8484,0.8484,0.8156,0.7607,0.7607,0.7493,0.7157,0.7228,0.7288,0.7345,0.7486,0.7608,0.7706,0.7774,0.7828,0.7872,0.7872,0.7872,0.7872,0.7872,0.7872,0.7872,0.0,0.0,1.7485,1.7485,1.7485,1.7485,1.7485,1.7485,1.7126,0.0,1.5811,1.5332,1.4262,1.4143,1.4143,1.4143,1.4143,1.4143,1.4143,1.4143,1.4143,1.4143,1.4143,1.4143,1.4143,1.5213,1.5811,1.5811,1.7003,1.7485,1.7485,1.7485,1.7485,1.7602,0.0,0.0,0.0,0.0,0.0,1.8083,1.8648,1.8874,0.0,0.0,1.9366,1.9366,1.9366,1.9366,1.9366,1.9366,1.9366,0.0,0.0,0.0,0.0,0.0,1.8971,0.0,0.0,0.0,0.0,0.0,0.0,0.0,1.7485,1.7485,1.7485,1.7485,1.7361,1.7244,1.712,1.5095,1.3291,1.2868,1.0866,0.932,0.9154,0.9018,0.894,0.894,0.894,0.894,0.894,0.894,0.894,0.894,0.894,0.894,0.894,0.894,0.894,0.894,0.894,0.8826,0.8595,0.8595,0.8266,0.7718,0.7607,0.7493,0.7265,0.7265,0.7214,0.7315,0.7331,0.7459,0.7663,0.769,0.7769,0.7872,0.7872,0.7872,0.7872,0.7872,0.7872,0.7872,0.0,0.0,1.7485,1.7485,1.7485,1.7485,1.7485,1.7485,1.7361,1.7126,1.7126,1.7003,1.6767,1.6767,1.6767,1.6767,1.6767,1.6767,1.6767,1.6767,1.6767,1.6767,1.6767,1.6767,1.6767,1.7003,1.7126,1.7126,1.7361,1.7485,1.7485,1.7485,1.7602,1.7849,0.0,0.0,0.0,0.0,0.0,1.8765,1.8532,0.0,1.8997,1.9243,1.9366,1.9366,1.9366,1.9366,1.9366,1.9366,1.9366,1.9366,0.0,0.0,0.0,0.0,0.0,0.0,0.0,0.0,0.0,0.0,0.0,0.0,1.7602,1.7485,1.7485,1.7485,1.6644,1.5688,1.4619,1.3186,1.1634,1.0349,0.9722,0.9286,0.9018,0.8957,0.894,0.894,0.894,0.894,0.894,0.894,0.894,0.894,0.894,0.894,0.894,0.894,0.894,0.894,0.894,0.8826,0.8826,0.8826,0.8602,0.8377,0.8045,0.7826,0.7493,0.7268,0.7168,0.7195,0.7293,0.7361,0.7423,0.7619,0.7769,0.7872,0.7872,0.7872,0.7872,0.7872,0.7872,0.7872,0.0,0.0,1.7485,1.7485,1.7485,1.7485,1.7485,1.7485,1.7485,1.7485,1.7485,1.7485,1.7485,1.7485,1.7485,1.7485,1.7485,1.7485,1.7485,1.7485,1.7485,1.7485,1.7485,1.7485,1.7485,1.7485,1.7485,1.7485,1.7485,1.7485,1.7485,1.7726,1.7849,1.7972,0.0,0.0,0.0,0.0,1.8881,1.912,1.901,0.0,1.9127,1.9366,1.9366,1.9366,1.9366,1.9366,1.9366,1.9366,1.9366,0.0,0.0,1.9366,1.9366,0.0,1.9366,1.9366,0.0,0.0,0.0,1.8311,0.0,0.0,0.0,1.7726,1.7485,1.6767,1.6048,1.5213,1.3904,1.2586,1.1427,1.0575,0.9891,0.9303,0.9076,0.8984,0.894,0.894,0.894,0.894,0.894,0.894,0.894,0.894,0.894,0.894,0.894,0.894,0.894,0.894,0.894,0.894,0.894,0.894,0.8712,0.8484,0.8374,0.8045,0.7607,0.7493,0.7379,0.7157,0.722,0.7279,0.7345,0.7467,0.7625,0.7793,0.7847,0.7872,0.7872,0.7872,0.7872,0.7872,0.0,0.0,1.7485,1.7485,1.7485,1.7485,1.7485,1.7485,1.7503,1.7551,1.7605,1.7636,1.7636,1.7711,0.0,0.0,1.7633,1.7602,1.7602,1.7602,1.7602,1.7485,1.7485,1.7485,1.7485,1.7485,1.7485,1.7485,1.7485,1.7485,1.7602,1.7849,1.8083,0.0,0.0,0.0,0.0,0.0,0.0,1.9366,0.0,1.9366,1.9366,1.9366,1.9366,1.9366,1.9366,1.9366,1.9366,1.9366,1.9366,1.9366,1.9366,1.9366,0.0,0.0,0.0,0.0,0.0,0.0,0.0,0.0,0.0,1.8421,0.0,0.0,0.0,0.0,0.0,0.0,0.0,0.0,0.0,0.0,0.0,0.0,0.0,0.9096,0.0,0.8947,0.894,0.894,0.894,0.894,0.894,0.894,0.894,0.894,0.894,0.894,0.894,0.894,0.894,0.894,0.894,0.894,0.8826,0.8598,0.8484,0.8266,0.7718,0.7607,0.7493,0.7154,0.7154,0.7211,0.7301,0.7326,0.7453,0.7646,0.7782,0.785,0.7872,0.7872,0.7872,0.7872,1.7575,1.7485,0.0,1.7485,1.7485,1.7485,1.7485,1.7485,1.7569,1.7799,1.8046,1.8203,0.0,0.0,0.0,0.0,0.0,0.0,1.7966,0.0,1.7849,1.7485,1.7485,1.7485,1.7485,1.7485,1.7485,1.7485,1.7485,1.7608,1.7966,1.7966,1.8311,0.0,1.8881,0.0,0.0,0.0,1.9366,0.0,1.9366,1.9366,0.0,1.9366,1.9366,1.9366,1.9366,1.9366,1.9366,0.0,1.9366,1.9366,0.0,1.9366,1.9366,0.0,0.0,0.0,0.0,0.0,0.0,0.0,1.8874,0.0,0.0,0.0,1.7941,1.6267,0.0,0.0,0.0,0.0,0.0,0.0,0.0,0.0,0.9374,0.934,0.9232,0.8971,0.894,0.894,0.894,0.894,0.894,0.894,0.894,0.894,0.894,0.894,0.894,0.894,0.894,0.894,0.894,0.894,0.8937,0.8826,0.8598,0.8263,0.7934,0.7715,0.7493,0.7154,0.7154,0.7163,0.7184,0.729,0.7353,0.7399,0.763,0.7782,0.7872,0.7872,0.7872,0.7872,1.7998,1.7956,0.0,0.0,1.7956,1.7956,1.7956,1.7956,1.7992,1.81,1.8221,1.8294,0.0,0.0,0.0,0.0,0.0,1.8433,0.0,0.0,0.0,1.7843,1.7602,1.7485,1.7485,1.7726,1.7843,1.7843,1.7954,1.8071,1.8194,1.8421,1.8655,0.0,1.912,0.0,1.9366,0.0,1.9366,0.0,0.0,0.0,0.0,1.9366,1.9366,1.9366,1.9366,1.9366,1.9366,0.0,1.9366,0.0,0.0,0.0,0.0,0.0,0.0,0.0,0.0,0.0,0.0,0.0,0.0,0.0,1.8765,0.0,1.8046,0.0,0.0,0.0,0.0,0.0,0.0,0.0,0.9663,0.0,0.0,0.0,0.9303,0.0,0.0,0.0,0.8947,0.894,0.894,0.894,0.894,0.894,0.894,0.894,0.894,0.894,0.894,0.894,0.894,0.894,0.894,0.894,0.8826,0.8598,0.8263,0.7934,0.7715,0.7382,0.7268,0.7154,0.716,0.7209,0.7271,0.7345,0.7451,0.7606,0.778,0.7847,0.7872,0.7872,1.8511,0.0,0.0,0.0,1.8294,1.8294,1.8294,1.8354,1.8402,0.0,0.0,0.0,1.8511,1.8568,0.0,0.0,1.9006,1.8962,0.0,0.0,1.8395,0.0,0.0,0.0,0.0,1.796,1.8083,1.8083,1.8305,1.8421,1.8532,1.8765,1.8997,1.9004,0.0,1.9366,1.9366,0.0,1.9366,1.9366,1.9482,1.9591,1.9597,1.9482,1.9366,1.9366,1.9366,1.9366,1.9366,1.9366,1.9366,0.0,1.9366,0.0,0.0,0.0,0.0,0.0,1.9366,0.0,0.0,0.0,0.0,0.0,0.0,0.0,0.0,0.0,0.0,0.0,0.0,0.0,0.0,0.0,0.0,0.9666,0.0,0.9571,0.0,0.0,0.0,0.0,0.0,0.8852,0.8876,0.8876,0.8913,0.894,0.894,0.894,0.894,0.894,0.894,0.894,0.894,0.894,0.894,0.894,0.894,0.8712,0.8484,0.8263,0.7937,0.7607,0.7379,0.7268,0.7154,0.7154,0.7206,0.729,0.7323,0.7445,0.7619,0.7769,0.7845,0.7872,1.9048,1.8644,0.0,0.0,0.0,0.0,1.8294,0.0,0.0,0.0,0.0,0.0,0.0,0.0,0.0,0.0,0.0,1.9978,1.9748,0.0,1.9484,0.0,0.0,1.8701,0.0,0.0,1.8421,1.8421,1.8421,1.8532,1.8881,1.8874,1.912,1.9366,1.9366,1.9366,1.9366,1.9366,1.9366,1.9366,1.9707,1.9931,2.0162,0.0,1.9366,1.9366,1.9366,0.0,0.0,1.9366,1.9366,0.0,0.0,0.0,0.0,0.0,0.0,0.0,0.0,0.0,0.0,1.9366,0.0,0.0,0.0,0.0,1.8046,0.0,0.0,0.0,0.0,0.0,0.0,0.0,0.0,0.0,0.0,0.0,0.0,0.0,0.0,0.0,0.0,0.8632,0.8716,0.8716,0.8855,0.894,0.894,0.894,0.894,0.894,0.894,0.894,0.894,0.894,0.894,0.894,0.894,0.8712,0.8484,0.8484,0.8156,0.7607,0.7607,0.7493,0.7154,0.7154,0.7157,0.7173,0.729,0.7339,0.7377,0.7619,0.7777,0.7872,0.0,0.0,0.0,0.0,0.0,0.0,0.0,1.8885,0.0,0.0,0.0,0.0,0.0,1.9897,2.0093,0.0,0.0,2.0288,2.0405,1.9988,0.0,0.0,0.0,1.8987,0.0,0.0,0.0,0.0,1.9096,1.9127,1.9243,1.9243,1.9243,1.9366,0.0,1.9366,0.0,0.0,0.0,0.0,0.0,2.0155,2.027,0.0,2.0053,2.0053,2.0053,1.9815,0.0,1.9707,1.9597,1.9366,1.9366,1.9366,1.9366,1.9366,1.9366,0.0,0.0,0.0,1.9366,1.9366,0.0,0.0,0.0,0.0,0.0,0.0,0.0,0.0,0.0,0.0,0.0,0.0,0.0,0.0,0.0,0.0,0.0,0.0,0.0,0.0,0.0,0.0,0.871,0.871,0.8852,0.894,0.894,0.894,0.894,0.894,0.894,0.894,0.894,0.894,0.894,0.894,0.894,0.8826,0.8712,0.8598,0.8374,0.8156,0.7826,0.7496,0.7493,0.7268,0.7154,0.716,0.7198,0.7266,0.7355,0.7519,0.7657,0.7769,1.9078,0.0,0.0,0.0,0.0,0.0,0.0,0.0,0.0,0.0,1.9711,0.0,2.0106,0.0,2.0354,0.0,2.0565,2.0585,2.0828,2.0531,0.0,1.9866,1.9794,0.0,0.0,0.0,0.0,0.0,0.0,1.9466,1.9366,1.9366,1.9366,1.9366,0.0,1.9482,1.9591,1.97,1.9815,0.0,0.0,2.05,0.0,0.0,2.0507,2.027,0.0,2.0162,1.9931,1.9931,1.9815,1.9591,1.9591,1.9482,1.9366,1.9366,1.9366,1.9366,1.9366,1.9366,0.0,1.9366,1.9366,0.0,1.9366,0.0,0.0,0.0,0.0,0.0,0.0,0.0,0.0,0.0,0.0,0.0,0.0,0.97,0.0,0.0,0.0,0.0,0.0,0.854,0.8652,0.8706,0.8852,0.894,0.0,0.894,0.894,0.894,0.894,0.894,0.894,0.894,0.894,0.894,0.894,0.894,0.8937,0.8712,0.8598,0.8484,0.8045,0.7826,0.7715,0.749,0.7379,0.7379,0.7265,0.7201,0.7285,0.741,0.7559,0.7712,0.0,0.0,0.0,0.0,1.9072,0.0,0.0,0.0,1.9577,0.0,1.9973,2.0106,2.0106,2.0482,2.0609,2.0609,2.0856,2.1109,2.1109,2.1109,0.0,0.0,2.0688,2.0428,1.9853,0.0,0.0,0.0,0.0,0.0,1.9392,1.9372,1.9366,0.0,1.9366,0.0,1.9815,1.9815,2.0046,2.0385,2.0608,2.096,2.1211,2.1211,2.0859,2.0392,2.0392,2.027,2.027,2.027,2.004,1.9815,1.9815,1.9591,1.9366,1.9366,1.9366,1.9366,1.9366,1.9366,1.9366,1.9366,1.9366,0.0,0.0,0.0,1.8635,0.0,0.0,0.0,0.0,0.0,0.0,0.0,0.0,0.0,0.0,0.0,0.0,0.0,0.0,0.0,0.0,0.8397,0.8547,0.8699,0.8852,0.894,0.0,0.894,0.894,0.894,0.894,0.894,0.894,0.894,0.894,0.894,0.894,0.894,0.894,0.894,0.8712,0.8484,0.8484,0.8266,0.8045,0.7715,0.7607,0.7607,0.7268,0.7265,0.7171,0.729,0.7483,0.7684,1.9078,1.9328,1.945,0.0,1.945,1.945,0.0,0.0,0.0,0.0,2.0482,2.0609,2.0856,2.0856,2.0982,2.0982,2.1109,0.0,0.0,0.0,0.0,2.0688,2.0882,2.0828,2.0461,2.0528,0.0,2.0341,0.0,0.0,1.9686,1.9466,1.9366,0.0,0.0,0.0,1.9815,2.004,2.0507,2.0974,2.1089,2.1089,2.1211,0.0,2.1089,2.0974,2.0974,2.0622,2.0385,2.0493,2.027,1.9815,1.9815,1.97,1.9707,1.9482,1.9366,1.9366,1.9366,1.9366,1.9366,1.9366,1.9366,1.9366,0.0,0.0,0.0,0.0,0.0,0.0,0.0,0.0,0.0,0.0,0.0,0.0,0.0,0.0,0.0,0.9137,0.0,0.0,0.8319,0.8397,0.8547,0.8699,0.8852,0.894,0.894,0.0,0.894,0.894,0.894,0.894,0.894,0.894,0.894,0.894,0.894,0.894,0.894,0.894,0.8826,0.8826,0.8598,0.8484,0.8374,0.8045,0.7826,0.7607,0.7493,0.7379,0.7171,0.729,0.7375,0.7456,1.9078,0.0,0.0,1.9711,0.0,0.0,1.9839,2.01,0.0,2.0609,2.0736,0.0,2.1109,2.1109,2.1109,2.1109,2.1109,0.0,2.1109,0.0,0.0,2.0869,2.1022,2.0969,2.0681,2.0802,0.0,2.0481,0.0,0.0,1.98,1.9633,1.9492,0.0,0.0,1.9591,2.004,2.0507,2.0859,2.1211,2.1759,2.1653,0.0,2.1767,2.1653,2.1211,2.1211,2.0974,2.0737,2.0845,2.0507,2.004,2.004,1.9815,1.9591,1.9482,1.9366,1.9366,1.9366,1.9366,1.9366,1.9366,1.9366,1.9366,1.9366,1.9366,1.9366,0.0,1.8648,1.8046,0.0,0.0,0.0,0.0,0.0,0.0,0.0,0.0,0.0,0.0,0.9195,0.0,0.8601,0.8693,0.8784,0.8808,0.8947,0.9005,0.0,0.0,0.894,0.894,0.894,0.894,0.894,0.894,0.894,0.894,0.894,0.894,0.894,0.894,0.894,0.8937,0.8712,0.8712,0.8598,0.8377,0.8156,0.7937,0.7718,0.7493,0.7388,0.7233,0.729,0.7355,1.9206,0.0,0.0,0.0,0.0,0.0,0.0,2.0482,0.0,2.0609,0.0,2.1109,2.1109,2.1109,2.1109,2.1109,0.0,2.1109,2.1109,2.1109,2.1109,2.1109,2.1109,2.0989,2.0735,2.0982,2.0855,0.0,0.0,0.0,1.9913,1.984,0.0,0.0,0.0,0.0,0.0,2.1303,2.1645,2.1759,2.2757,2.2531,2.1759,2.2862,2.2531,2.1653,2.1539,2.1318,2.1089,2.1211,2.0852,2.0385,2.0385,1.9931,1.9482,1.9482,1.9482,1.9366,1.9366,1.9366,1.9366,1.9366,1.9366,1.9366,1.9366,1.9366,1.9366,1.9366,1.9366,1.9366,0.0,0.0,0.0,0.0,0.0,0.0,0.0,0.0,0.0,0.0,0.0,0.0,0.9011,0.9055,0.9052,0.8947,0.9055,0.0,0.0,0.0,0.894,0.894,0.894,0.894,0.894,0.894,0.894,0.894,0.894,0.894,0.894,0.894,0.894,0.894,0.894,0.894,0.8826,0.8598,0.8484,0.8484,0.7826,0.7607,0.7607,0.7379,0.7334,0.7315,0.0,0.0,0.0,0.0,0.0,2.0856,2.0856,2.0982,2.0982,2.0982,2.1109,2.1109,2.1109,2.1109,2.1109,2.1109,2.1109,0.0,0.0,0.0,0.0,2.1109,2.1109,2.1082,2.1036,2.1082,2.1056,0.0,0.0,0.0,2.0514,2.0027,0.0,0.0,0.0,0.0,2.1851,2.3399,0.0,2.4069,2.4283,2.4283,2.4061,2.4283,2.4283,2.3958,2.2974,2.1851,2.0838,2.1089,2.0967,2.0608,2.0608,2.0378,2.0046,1.9815,1.9591,1.9366,1.9366,1.9366,1.9366,1.9366,1.9366,1.9366,1.9366,1.9366,1.9366,1.9366,1.9366,1.9366,1.9366,0.0,0.0,0.0,0.0,0.0,0.0,0.0,0.0,0.0,0.0,1.1004,0.9442,0.8991,0.8832,0.893,0.896,0.8964,0.0,0.0,0.894,0.0,0.894,0.894,0.0,0.0,0.894,0.894,0.894,0.894,0.894,0.894,0.894,0.894,0.894,0.894,0.8937,0.8826,0.8712,0.8484,0.8045,0.7934,0.7934,0.7823,0.7727,0.7541,0.0,0.0,0.0,0.0,0.0,0.0,0.0,2.1109,2.1109,2.1109,2.1109,2.1109,2.1109,2.1109,2.1109,2.1109,2.1109,2.1109,2.1109,2.1109,2.1109,2.1109,2.1109,2.1109,2.1109,2.1109,2.1109,2.1109,0.0,0.0,2.0668,2.0388,0.0,2.0135,0.0,2.1836,0.0,0.0,0.0,2.4727,2.5397,2.5287,2.4727,2.4727,2.4283,2.3631,2.2539,2.1645,2.0967,2.1203,2.0967,2.0716,2.0716,2.0493,2.027,1.9931,1.9707,1.9591,1.9482,1.9366,1.9366,1.9366,1.9366,1.9366,1.9366,1.9366,1.9366,1.9366,1.9366,1.9243,1.8532,1.7806,0.0,0.0,0.0,0.0,0.0,0.0,0.0,0.0,0.0,0.0,0.0,1.0466,0.9976,0.0,0.0,0.9133,0.9055,0.0,0.9015,0.0,0.0,0.0,0.894,0.0,0.894,0.894,0.894,0.894,0.894,0.894,0.894,0.894,0.894,0.894,0.894,0.894,0.8826,0.8712,0.8377,0.8266,0.8263,0.8045,0.7934,0.7724,0.0,2.0482,0.0,0.0,2.0862,0.0,2.1109,2.1109,2.1109,2.1109,2.1109,2.1109,2.1109,2.1109,2.1109,2.1109,2.1109,2.1109,2.1109,2.1109,2.1109,2.1109,2.1109,2.1235,2.1235,2.1235,2.1355,0.0,0.0,0.0,0.0,2.1067,0.0,0.0,0.0,0.0,0.0,0.0,2.5745,2.5856,2.6774,2.6545,2.5745,2.5745,2.4924,2.3762,2.2542,2.1827,2.1539,2.1325,2.0967,2.0838,2.0838,2.0608,2.0385,2.004,1.9931,1.97,1.9591,1.9482,1.9366,1.9366,1.9366,1.9366,1.9366,1.9366,1.9366,1.9366,1.9366,1.9127,1.8052,1.7929,0.0,0.0,0.0,0.0,0.0,0.0,0.0,0.0,0.0,0.0,1.2696,0.0,0.0,0.0,0.0,0.9327,0.9208,0.9201,0.9133,0.0,0.0,0.8967,0.894,0.0,0.894,0.894,0.894,0.894,0.894,0.894,0.894,0.894,0.894,0.894,0.894,0.894,0.8957,0.8984,0.8755,0.866,0.8686,0.832,0.8199,0.8084,0.0,0.0,0.0,0.0,0.0,0.0,2.1109,2.1109,2.1109,2.1109,2.1109,2.1109,2.1109,2.1109,2.1109,2.1109,2.1109,2.1109,2.1109,2.1109,2.1109,2.1109,2.1355,2.1607,2.1607,2.1859,2.1985,0.0,0.0,2.1594,0.0,0.0,0.0,0.0,0.0,0.0,0.0,2.852,2.9099,2.9099,2.922,2.922,2.9099,2.9099,2.8182,2.6632,2.5388,2.4039,2.2644,2.1546,2.1211,2.1203,2.1203,2.0967,2.0601,2.0601,2.0263,1.9815,1.9815,1.9591,1.9366,1.9366,1.9366,1.9366,1.9366,1.9366,1.9366,1.9366,1.9366,1.9366,1.9243,1.9249,1.9127,0.0,0.0,0.0,0.0,0.0,0.0,0.0,0.0,0.0,0.0,1.2958,0.0,0.0,1.0347,0.9374,0.9361,0.9361,0.9289,0.9137,0.9133,0.9069,0.894,0.894,0.894,0.894,0.894,0.894,0.894,0.894,0.894,0.894,0.894,0.894,0.894,0.894,0.9015,0.9133,0.9133,0.9215,0.932,0.9184,0.8907,0.8665,0.0,0.0,0.0,0.0,0.0,0.0,0.0,2.1109,2.1109,2.1109,2.1109,2.1109,2.1109,2.1109,2.1109,2.1109,2.1109,2.1109,2.1109,2.1229,2.1362,2.1362,2.1734,2.1859,2.1859,2.1985,2.2473,0.0,0.0,0.0,0.0,0.0,0.0,0.0,0.0,2.7946,2.8747,2.9337,2.957,2.957,2.957,2.957,2.957,2.8766,2.8089,2.7377,2.6232,2.4869,2.3602,2.3146,2.2206,2.1211,2.1211,2.1089,2.0967,2.0723,2.0493,2.027,1.9931,1.97,1.9591,1.9482,1.9366,1.9366,1.9366,1.9366,1.9366,1.9366,1.9366,1.9366,1.9366,1.9366,1.9366,1.9366,0.0,0.0,0.0,0.0,0.0,0.0,0.0,0.0,0.0,0.0,0.0,0.0,0.0,0.9517,0.9517,1.0215,1.0251,0.9293,0.0,1.0052,0.9205,0.9205,0.9205,0.9205,0.9205,0.9205,0.9205,0.9205,0.9154,0.9062,0.8977,0.8988,0.9066,0.9066,0.9154,0.9289,0.9289,0.9327,0.9361,0.9208,0.9154,0.902,2.1109,0.0,2.1109,0.0,2.1109,2.1109,2.1109,2.1109,2.1109,2.1109,2.1109,2.1109,2.1109,2.1109,2.1109,2.1109,2.1109,2.1109,2.1109,2.1355,2.1607,2.1607,2.1985,0.0,2.2849,2.2973,2.3581,2.4933,2.4802,0.0,0.0,0.0,0.0,0.0,2.8676,2.9136,2.9961,2.9961,2.9961,2.9961,2.9961,2.9961,2.9838,2.9022,2.8357,2.7893,2.6973,2.5852,2.4594,2.425,2.324,2.1944,2.1605,2.1496,2.1373,2.1118,2.0822,2.0628,2.0062,1.9768,1.9591,1.9482,1.9366,1.9366,1.9366,1.9366,1.9366,1.9366,1.9366,1.9366,1.9366,1.9366,1.9366,1.9366,0.0,0.0,0.0,1.9366,0.0,0.0,1.9366,1.9004,1.7806,1.7097,0.0,0.0,0.0,1.0733,1.0267,1.1442,0.0,0.0,0.0,0.0,1.0524,1.0524,1.0524,1.0524,1.0524,1.0524,1.0524,1.0181,0.9892,0.9777,0.9222,0.9127,0.9218,0.9218,0.931,0.9449,0.9449,0.9473,0.9486,0.9293,0.9218,0.9195,2.0982,2.1109,2.1109,2.1109,2.1109,2.1109,2.1109,2.1109,2.1109,2.1109,2.1109,2.1109,2.1109,2.1109,2.1109,2.1109,2.1109,2.1109,2.1109,2.1355,2.1607,0.0,0.0,2.3223,2.4571,2.4941,2.5676,2.7013,0.0,0.0,2.6478,0.0,2.9039,3.0372,3.0752,3.0879,3.0869,3.0869,3.0869,3.0869,3.0869,3.0869,3.0869,3.0879,2.9871,2.8422,2.8431,2.7365,2.5758,2.4485,2.4125,2.3889,2.2632,2.2169,2.2169,2.1788,2.132,2.0732,2.0385,1.9814,1.9366,1.9366,1.9366,1.9366,1.9366,1.9366,1.9366,1.9366,1.9366,1.9366,1.9366,1.9366,1.9366,1.9366,0.0,0.0,0.0,0.0,0.0,1.9366,1.9366,1.9366,1.9366,1.7923,0.0,0.0,0.0,0.0,0.0,0.0,0.0,1.3343,1.3339,0.0,1.3141,1.3141,1.3141,1.3141,1.3141,1.3141,1.3141,1.1893,1.1319,1.1204,0.9946,0.9378,0.9378,0.9378,0.9469,0.9605,0.9605,0.9693,0.9781,0.9486,0.9378,0.9337,2.1109,2.1109,2.1109,2.1109,2.1109,2.1109,2.1109,2.1109,2.1109,2.1109,2.1109,2.1109,2.1109,2.1362,2.1481,0.0,2.1607,2.1734,0.0,2.2111,2.2237,2.2237,2.3589,2.4456,2.4949,2.592,2.7004,2.8325,0.0,0.0,0.0,2.9903,3.0274,3.0762,3.0889,3.0889,3.0889,3.0889,3.0889,3.0889,3.0889,3.0889,3.0889,3.0889,3.0558,2.9947,2.9099,2.781,2.6508,2.5214,2.413,2.3405,2.2929,2.2391,2.1795,2.1668,2.1357,2.1047,2.0688,2.0356,2.0013,1.9784,1.9512,1.9366,1.9366,1.9366,1.9366,1.9366,1.9366,1.9366,1.9366,1.9366,1.9366,1.9366,1.9366,0.0,1.9366,0.0,1.9366,1.9366,1.9366,1.9366,1.9366,1.8758,0.0,0.0,0.0,0.0,0.0,0.0,0.0,0.0,1.4508,0.0,1.3579,1.3579,1.3579,1.3579,1.3579,1.3579,1.3575,1.2961,1.278,1.2655,1.2175,1.1508,1.0813,1.0813,1.0443,0.9754,0.9754,0.9724,0.9652,0.9456,0.9313,0.9198,2.1109,2.1109,2.1109,2.1109,2.1109,2.1109,2.1109,2.1109,2.1109,2.1109,2.1109,2.1109,2.1109,2.1488,0.0,2.1607,2.1859,2.2111,2.2111,2.2355,2.2856,2.3347,2.4456,2.5554,2.652,2.7366,0.0,2.9658,2.9658,3.003,3.0889,3.0889,3.0889,3.0889,3.0889,3.0889,3.0889,3.0889,3.0889,3.0889,3.0889,3.0889,3.0889,3.0889,3.0889,3.0762,2.9412,2.8435,2.7469,2.5676,2.4579,2.372,2.323,2.2588,2.2026,2.2026,2.1697,2.1362,2.1004,2.0543,2.0199,1.996,1.9746,1.9499,1.9392,1.9366,1.9366,1.9366,1.9366,1.9366,1.9366,1.9366,1.9366,1.9366,1.9366,1.9366,1.9366,0.0,1.9366,0.0,0.0,0.0,0.0,1.9243,1.8758,0.0,0.0,0.0,0.0,0.0,1.593,1.5095,1.593,1.593,1.5095,1.5095,1.5095,1.5095,1.5095,1.5095,1.509,1.4468,1.4285,1.4162,1.3674,1.2993,1.2289,1.1819,1.1172,1.0418,0.9882,0.9686,0.9585,0.9371,0.9235,0.913,2.1109,2.1109,2.1109,0.0,2.1109,0.0,2.1109,2.1109,2.1109,2.1109,2.1109,2.1109,2.1109,2.1734,2.1985,2.1734,0.0,0.0,2.2111,2.2606,2.3347,2.4571,2.5063,2.6512,2.8801,2.9039,2.9658,3.0889,3.0889,3.0889,3.0889,3.0889,3.0889,3.0889,3.0889,3.0889,3.0889,3.0889,3.0889,3.0889,3.0889,3.0889,3.0889,3.0889,3.0889,3.0762,2.9412,2.8801,2.8444,2.592,2.5071,2.4702,2.3472,2.2863,2.2613,2.2613,2.2157,2.1568,2.1321,2.0733,2.0261,2.0261,2.0047,1.9753,1.9466,1.9399,1.9392,1.9372,1.9366,1.9366,1.9366,1.9366,1.9366,1.9366,1.9366,1.9366,1.9366,1.9366,1.9366,0.0,0.0,0.0,1.9366,1.9366,1.9366,0.0,0.0,0.0,0.0,0.0,1.7596,1.7485,1.7485,1.7485,1.7485,1.7485,1.7485,1.7485,1.7485,1.7485,1.7479,1.6284,1.5693,1.5693,1.45,1.3894,1.3522,1.2329,1.1727,1.1459,1.0119,0.9588,0.9544,0.9269,0.9161,0.9133,0.0,0.0,2.1109,2.1109,2.1109,2.1109,2.1109,2.1109,2.1235,2.1481,2.1488,2.1607,2.1859,2.2237,2.2487,2.2355,2.2606,2.2856,2.2856,2.3845,2.4702,2.4949,2.6875,2.8316,2.892,2.9903,3.0518,3.0889,3.0889,3.0889,3.0889,3.0889,3.0889,3.0889,3.0889,3.0889,3.0889,3.0889,3.0889,3.0889,3.0889,3.0889,3.0889,3.0889,3.0889,3.0762,2.9412,2.8325,2.7254,2.5676,2.4463,2.3479,2.323,2.3106,2.2863,2.2355,2.1937,2.1505,2.1254,2.092,2.0575,2.0575,2.0347,2.0054,1.9766,1.97,1.9633,1.9412,1.9366,1.9366,1.9366,1.9366,1.9366,1.9366,1.9366,1.9366,1.9366,1.9366,1.9366,0.0,1.9366,1.9366,1.9366,1.9366,1.9366,0.0,0.0,1.8874,1.8874,1.8415,1.8071,1.7849,1.7602,1.7485,1.7485,1.7485,1.7485,1.7485,1.7485,1.7485,1.7479,1.7244,1.7003,1.7003,1.6762,1.5467,1.3419,1.3184,1.1812,0.9948,0.9566,0.9364,0.9266,0.931,0.9252,0.9164,2.1109,2.1109,2.1109,2.1109,2.1235,2.1362,2.1362,2.1488,2.1607,2.1859,2.1859,2.1859,2.2111,2.2362,2.2606,2.2606,2.2863,2.3355,2.3969,2.4702,2.5676,2.6754,2.8197,2.9166,2.9776,3.0518,3.0889,3.0889,3.0889,3.0889,3.0889,3.0889,3.0889,3.0889,3.0889,3.0889,3.0889,3.0889,3.0889,3.0889,3.0889,3.0889,3.0889,3.0889,3.0889,3.0762,2.9412,2.8444,2.7607,2.5676,2.4579,2.3969,2.323,2.2981,2.2731,2.2237,2.1985,2.1734,2.1355,2.1115,2.0842,2.0708,2.0555,2.0361,2.0067,1.9893,1.976,1.9599,1.9459,1.9366,1.9366,1.9366,1.9366,1.9366,1.9366,1.9366,1.9366,1.9366,1.9366,1.9366,1.9366,1.9366,1.9366,1.9366,1.9366,1.9366,1.9243,0.0,1.912,1.8765,1.8421,1.7966,1.7849,1.7608,1.7485,1.7485,1.7485,1.7485,1.7485,1.7485,1.7485,1.7605,1.766,1.7666,1.7799,1.704,1.5579,1.4375,1.2937,1.145,1.008,0.9493,0.9364,0.9374,0.9327,0.9269,2.1109,2.1109,2.1109,2.1109,2.1362,2.1607,2.1607,2.1859,2.2111,2.2111,2.2237,2.223,2.2237,2.2487,2.2738,2.2738,2.3106,2.3845,2.5071,2.5431,2.6633,2.8801,2.9039,2.9776,3.0889,3.0889,3.0889,3.0889,3.0889,3.0889,3.0889,3.0889,3.0889,3.0889,3.0889,3.0889,3.0889,3.0889,3.0889,3.0889,3.0889,3.0889,3.0889,3.0889,3.0889,3.0772,2.9658,2.9039,2.8564,2.6399,2.5431,2.4949,2.372,2.2981,2.2487,2.2237,2.2104,2.1985,2.1607,2.1362,2.1049,2.0802,2.0742,2.0661,2.0368,2.0107,1.992,1.9873,1.9633,1.9432,1.9432,1.9399,1.9366,1.9366,1.9366,1.9366,1.9366,0.0,1.9366,1.9366,1.9366,1.9366,1.9366,1.9366,1.9366,1.9366,1.9366,1.9366,1.9366,1.912,1.8648,1.8083,1.7972,1.7849,1.7485,1.7521,1.7539,1.7539,1.7581,1.7605,1.7612,1.7835,1.7937,1.795,1.8191,1.8147,1.7731,1.5236,1.4114,1.354,1.0837,0.9734,0.9598,0.949,0.9435,0.9418,2.1109,2.1109,2.1109,2.1109,2.1362,2.1607,2.1607,2.1859,2.2237,2.2487,2.248,2.2613,2.2856,2.2981,2.2981,2.2981,2.4092,2.4826,2.5071,2.7116,2.8444,2.892,3.003,3.0645,3.0889,3.0889,3.0889,3.0889,3.0889,3.0889,3.0889,3.0889,3.0889,3.0889,3.0889,3.0889,3.0889,3.0889,3.0889,3.0889,3.0889,3.0889,3.0889,3.0889,3.0889,3.0889,3.0645,2.9903,2.8801,2.8435,2.6875,2.5071,2.4826,2.3845,2.2487,2.2237,2.1859,2.1607,2.1235,2.1109,2.1096,2.1049,2.1042,2.0962,2.0675,2.0575,2.0468,2.0214,1.9933,1.9733,1.9733,1.9533,1.9366,1.9366,1.9366,1.9366,1.9366,0.0,1.9366,1.9366,1.9366,1.9366,1.9366,1.9366,1.9366,1.9366,1.9366,1.9366,1.9366,1.912,1.8765,1.8305,1.8083,1.7849,1.7485,1.7702,1.7811,1.7817,1.8052,1.8167,1.8173,1.8209,1.8227,1.8233,1.8275,1.7538,1.6348,1.4754,1.3409,1.2022,1.0429,0.9734,0.9622,0.9717,0.9676,0.9591,2.1109,2.1109,2.1109,2.1355,2.1607,2.1985,2.2111,2.2355,2.2731,2.2856,2.2856,2.2988,2.3113,2.372,2.4216,2.4216,2.6026,2.7116,2.7116,2.8197,2.9166,2.9903,3.0528,3.0889,3.0889,3.0889,3.0889,3.0889,3.0889,3.0889,3.0889,3.0889,3.0889,3.0889,3.0889,3.0889,3.0889,3.0889,3.0889,3.0889,3.0889,3.0889,3.0889,3.0889,3.0889,3.0889,3.0889,3.0518,2.9903,2.9166,2.8077,2.6875,2.5554,2.4456,2.3472,2.2355,2.1734,2.1362,2.1109,2.1109,2.1109,2.1109,2.1109,2.1076,2.0942,2.0788,2.0635,2.0501,2.0241,2.0034,2.0034,1.98,1.9599,1.9599,1.9466,0.0,1.9366,1.9366,1.9366,1.9366,1.9366,1.9366,1.9366,1.9366,1.9366,1.9366,1.9366,1.9366,1.9366,1.9243,1.9076,1.8867,1.8289,1.7821,1.7696,1.7962,1.81,1.81,1.8233,1.8294,1.83,1.8438,1.8505,1.8511,1.865,1.8387,1.7639,1.6239,1.4721,1.3292,1.1799,1.0713,0.9978,1.0042,0.9975,0.9856,2.1235,2.1235,2.1355,2.1607,2.1985,2.2362,2.2613,2.2863,2.3106,2.3106,2.3106,2.323,2.3479,2.4456,2.5194,2.5562,2.7598,2.892,2.892,2.9166,2.9776,3.0889,3.0889,3.0889,3.0889,3.0889,3.0889,3.0889,3.0889,3.0889,3.0889,3.0889,3.0889,3.0889,3.0889,3.0889,3.0889,3.0889,3.0889,3.0889,3.0889,3.0889,3.0889,3.0889,3.0889,3.0889,3.0889,3.0889,3.0762,2.9658,2.9166,2.8564,2.6633,2.5301,2.4324,2.2973,2.1853,2.1109,2.1109,2.1109,2.1109,2.1109,2.1109,2.1109,2.1109,2.0935,2.0775,2.0775,2.0541,2.0334,2.0334,2.0094,1.988,1.9813,0.0,1.9446,1.9379,1.9366,1.9366,1.9366,1.9366,1.9366,1.9366,1.9366,1.9366,1.9366,1.9366,1.9399,1.9466,1.9466,1.9358,1.9276,1.857,1.8088,1.7968,1.8245,1.8384,1.8384,1.8444,1.8475,1.8481,1.8686,1.8776,1.8782,1.8988,1.9078,1.8944,1.763,1.6353,1.5046,1.3633,1.2246,1.0834,1.0834,1.0482,1.0097,2.1607,2.1859,2.1985,2.2111,2.2355,2.2606,2.2606,2.2863,2.3106,2.3106,2.3106,2.3604,2.4826,2.5071,2.5554,2.6779,2.8086,2.892,2.892,3.003,3.0772,3.0889,3.0889,3.0889,3.0889,3.0889,3.0889,3.0889,3.0889,3.0889,3.0889,3.0889,3.0889,3.0889,3.0889,3.0889,3.0889,3.0889,3.0889,3.0889,3.0889,3.0889,3.0889,3.0889,3.0889,3.0889,3.0889,3.0889,3.0889,3.0772,2.9903,2.892,2.8683,2.6745,2.4448,2.407,2.2591,2.1109,2.1109,2.1109,2.1109,2.1109,2.1109,2.1109,2.1109,2.1089,2.1076,2.1076,2.0848,2.0641,2.0641,2.0401,2.0114,1.9846,0.0,0.0,1.9406,1.9366,1.9366,1.9366,1.9366,1.9366,1.9366,1.9366,1.9366,1.9366,1.9366,1.9486,1.9753,1.9516,1.9283,1.9338,1.8985,1.8625,1.8263,1.8523,1.8656,1.8656,1.8903,1.9018,1.9018,1.9036,1.9048,1.9048,1.9066,1.9078,1.8944,1.763,1.6969,1.6695,1.5274,1.3851,1.2399,1.2399,1.1528,1.0243,2.1859,2.1985,2.2111,2.2355,2.248,2.2606,2.2863,2.2981,2.3106,2.3106,2.3845,2.4579,2.5071,2.6512,2.7598,2.8086,2.9422,3.0147,3.0147,3.0645,3.0889,3.0889,3.0889,3.0889,3.0889,3.0889,3.0889,3.0889,3.0889,3.0889,3.0889,3.0889,3.0889,3.0889,3.0889,3.0889,3.0889,3.0889,3.0889,3.0889,3.0889,3.0889,3.0889,3.0889,3.0889,3.0889,3.0889,3.0889,3.0889,3.0889,3.0518,2.9912,2.8948,2.7357,2.5399,2.3208,2.1853,2.1109,2.1109,2.1109,2.1109,2.1109,2.1109,2.1109,2.1109,2.1109,2.1109,2.1109,2.1022,2.0942,2.0942,2.0708,2.0468,2.0361,0.0,2.0034,1.992,1.9746,1.9633,1.9633,1.9633,1.9633,1.9633,1.98,1.9907,1.9907,1.9907,1.9953,2.006,2.0113,2.0021,1.9892,1.9942,1.9575,1.8902,1.8921,1.8927,1.8927,1.9024,1.9078,1.9078,1.9078,1.9078,1.9078,1.9078,1.9078,1.9072,1.8547,1.7765,1.698,1.6462,1.5375,1.3882,1.3101,1.2342,1.1547,2.2237,2.2355,2.2487,2.2731,2.2738,2.2863,2.3106,2.3106,2.3106,2.3106,2.4209,2.5186,2.5668,2.7598,2.9039,2.953,3.0392,3.0889,3.0889,3.0889,3.0889,3.0889,3.0889,3.0889,3.0889,3.0889,3.0889,3.0889,3.0889,3.0889,3.0889,3.0889,3.0889,3.0889,3.0889,3.0889,3.0889,3.0889,3.0889,3.0889,3.0889,3.0889,3.0889,3.0889,3.0889,3.0889,3.0889,3.0889,3.0889,3.0889,3.0889,3.0518,2.9431,2.7718,2.5627,2.2952,2.1727,2.1109,2.1109,2.1109,2.1109,2.1109,2.1109,2.1109,2.1109,2.1109,2.1109,2.1109,2.1109,2.1109,2.1109,2.0949,2.0782,2.0688,2.0508,2.0341,2.0247,2.006,1.994,1.994,1.994,1.994,1.994,2.0114,2.0234,2.0234,2.0234,2.0274,2.0368,2.0655,2.069,2.044,2.0504,2.0258,1.9688,1.9364,1.92,1.9078,1.9078,1.9078,1.9078,1.9078,1.9078,1.9078,1.9078,1.9078,1.9078,1.9078,1.8547,1.763,1.763,1.6856,1.5424,1.4511,1.3774,1.3134,2.2606,2.2856,2.3106,2.3106,2.3106,2.3106,2.3106,2.3113,2.3106,2.3106,2.4332,2.5668,2.6858,2.8188,2.9412,3.0762,3.0889,3.0889,3.0889,3.0889,3.0889,3.0889,3.0889,3.0889,3.0889,3.0889,3.0889,3.0889,3.0889,3.0889,3.0889,3.0889,3.0889,3.0889,3.0889,3.0889,3.0889,3.0889,3.0889,3.0889,3.0889,3.0889,3.0889,3.0889,3.0889,3.0889,3.0889,3.0889,3.0889,3.0889,3.0645,3.0382,3.0382,2.8188,2.5277,2.3938,2.2466,2.1109,2.1109,2.1109,2.1109,2.1109,2.1109,2.1109,2.1109,2.1109,2.1109,2.1109,2.1109,2.1109,2.1109,2.1109,2.1015,2.0728,2.0681,2.0575,2.0281,2.0234,2.0234,2.0234,2.0234,2.0234,2.0234,2.0241,2.0241,2.0241,2.0241,2.0368,2.0668,2.0955,2.1109,2.1109,2.0736,2.0609,2.0609,1.996,1.945,1.9078,1.9078,1.9078,1.9078,1.9078,1.9078,1.9078,1.9078,1.9078,1.9078,1.9078,1.9078,1.9078,1.9078,1.8285,1.698,1.698,1.6073,1.4879,2.2981,2.2988,2.3106,2.3106,2.3106,2.3106,2.3106,2.3845,2.4456,2.4456,2.639,2.7958,2.8316,2.954,3.0518,3.0889,3.0889,3.0889,3.0889,3.0889,3.0889,3.0889,3.0889,3.0889,3.0889,3.0889,3.0889,3.0889,3.0889,3.0889,3.0889,3.0889,3.0889,3.0889,3.0889,3.0889,3.0889,3.0889,3.0889,3.0889,3.0889,3.0889,3.0889,3.0889,3.0889,3.0889,3.0889,3.0889,3.0889,3.0889,3.0645,3.0147,2.8811,2.7478,2.6147,2.3938,2.2959,2.2341,2.1355,2.1109,2.1109,2.1109,2.1109,2.1109,2.1109,2.1109,2.1109,2.1109,2.1109,2.1109,2.1109,2.1109,2.1082,2.0995,2.0982,2.0949,2.0862,2.0675,2.0541,2.0541,2.0541,2.0541,2.0541,2.0728,2.0848,2.0848,2.0848,2.0889,2.0975,2.1062,2.1109,2.1109,2.0736,2.0488,2.0234,1.9839,1.9577,1.945,1.92,1.9078,1.9078,1.9078,1.9078,1.9078,1.9078,1.9078,1.9078,1.9078,1.9078,1.9078,1.9078,1.881,1.8291,1.7367,1.6721,1.6193,2.3106,2.3106,2.3106,2.3106,2.3596,2.3845,2.3845,2.5071,2.5798,2.5798,2.7598,2.892,2.892,3.0147,3.0889,3.0889,3.0889,3.0889,3.0889,3.0889,3.0889,3.0889,3.0889,3.0889,3.0889,3.0889,3.0889,3.0889,3.0889,3.0889,3.0889,3.0889,3.0889,3.0889,3.0889,3.0889,3.0889,3.0889,3.0889,3.0889,3.0889,3.0889,3.0889,3.0889,3.0889,3.0889,3.0889,3.0889,3.0889,3.0889,3.0645,2.9912,2.8582,2.7615,2.665,2.4432,2.3442,2.2827,2.1481,2.1109,2.1109,2.1109,2.1109,2.1109,2.1109,2.1109,2.1109,2.1109,2.1109,2.1109,2.1109,2.1109,2.1109,2.1109,2.1109,2.1109,2.1109,2.0955,2.0848,2.0848,2.0848,2.0848,2.0848,2.1002,2.1109,2.1109,2.1109,2.1109,2.1109,2.1109,2.1109,2.1109,2.0736,2.0482,2.0361,1.9839,1.9577,1.945,1.92,1.9078,1.9078,1.9078,1.9078,1.9078,1.9078,1.9078,1.9078,1.9078,1.9078,1.9078,1.9078,1.9078,1.8944,1.8156,1.7893,1.7765,2.3106,2.3106,2.3106,2.323,2.434,2.5194,2.5194,2.6407,2.7134,2.7134,2.8325,2.9048,2.9048,3.0147,3.0889,3.0889,3.0889,3.0889,3.0889,3.0889,3.0889,3.0889,3.0889,3.0889,3.0889,3.0889,3.0889,3.0889,3.0889,3.0889,3.0889,3.0889,3.0889,3.0889,3.0889,3.0889,3.0889,3.0889,3.0889,3.0889,3.0889,3.0889,3.0889,3.0889,3.0889,3.0889,3.0889,3.0889,3.0889,3.0889,3.0411,2.9813,2.9222,2.8241,2.6892,2.5546,2.4317,2.3201,2.1846,2.1481,2.1481,2.1355,2.1229,2.1229,2.1109,2.1109,2.1109,2.1109,2.1109,2.1109,2.1109,2.1109,2.1109,2.1109,2.1109,2.1109,2.1109,2.1109,2.1109,2.1109,2.1109,2.1109,2.1109,2.1109,2.1109,2.1109,2.1109,2.1109,2.1109,2.1109,2.1109,2.1109,2.0736,2.0609,2.0609,1.9966,1.945,1.92,1.9072,1.9078,1.9078,1.9078,1.9078,1.9078,1.9078,1.9078,1.9078,1.9078,1.9078,1.9078,1.9078,1.9078,1.9078,1.9078,1.9078,1.9078,2.3106,2.3106,2.3479,2.4456,2.4949,2.5439,2.6407,2.7727,2.8444,2.8444,2.9658,3.0518,3.0518,3.0762,3.0889,3.0889,3.0889,3.0889,3.0889,3.0889,3.0889,3.0889,3.0889,3.0889,3.0889,3.0889,3.0889,3.0889,3.0889,3.0889,3.0889,3.0889,3.0889,3.0889,3.0889,3.0889,3.0889,3.0889,3.0889,3.0889,3.0889,3.0889,3.0889,3.0889,3.0889,3.0889,3.0889,3.0889,3.0889,3.0635,3.0274,2.9804,2.945,2.8966,2.8241,2.7013,2.6399,2.5912,2.4556,2.4193,2.3946,2.2959,2.2709,2.2341,2.1355,2.1109,2.1109,2.1109,2.1109,2.1109,2.1109,2.1109,2.1109,2.1109,2.1109,2.1109,2.1109,2.1109,2.1109,2.1109,2.1109,2.1109,2.1109,2.1109,2.1109,2.1109,2.1109,2.1109,2.1109,2.1109,2.1109,2.1109,2.0736,2.0482,2.0234,1.9839,1.9577,1.945,1.92,1.9078,1.9078,1.9078,1.9078,1.9078,1.9078,1.9078,1.9078,1.9078,1.9078,1.9078,1.9078,1.9078,1.9078,1.9078,1.9078,1.9078,2.3106,2.3106,2.3479,2.4826,2.5554,2.6407,2.7727,2.9057,2.9903,2.9903,3.0518,3.0889,3.0889,3.0889,3.0889,3.0889,3.0889,3.0889,3.0889,3.0889,3.0889,3.0889,3.0889,3.0889,3.0889,3.0889,3.0889,3.0889,3.0889,3.0889,3.0889,3.0889,3.0889,3.0889,3.0889,3.0889,3.0889,3.0889,3.0889,3.0889,3.0889,3.0889,3.0889,3.0889,3.0889,3.0889,3.0889,3.0889,3.0889,3.0509,3.0157,2.9804,2.9568,2.9213,2.8737,2.7383,2.7013,2.6771,2.5301,2.5056,2.481,2.4186,2.407,2.345,2.1601,2.1601,2.209,2.209,2.2591,2.2959,2.2959,2.2959,2.2959,2.2959,2.2959,2.2959,2.2959,2.2959,2.2959,2.2959,2.2959,2.2959,2.2959,2.1853,2.1355,2.1971,2.1481,2.1109,2.1109,2.1109,2.1109,2.1109,2.0736,2.0482,2.0354,1.9973,1.9711,1.9577,1.92,1.9078,1.9078,1.9078,1.9078,1.9078,1.9078,1.9078,1.9078,1.9078,1.9078,1.9078,1.9078,1.9078,1.9078,1.9078,1.9078,1.9078,2.3106,2.3106,2.3604,2.5194,2.6286,2.7495,2.9048,3.0157,3.0889,3.0889,3.0889,3.0889,3.0889,3.0889,3.0889,3.0889,3.0889,3.0889,3.0889,3.0889,3.0889,3.0889,3.0889,3.0889,3.0889,3.0889,3.0889,3.0889,3.0889,3.0889,3.0889,3.0889,3.0889,3.0889,3.0889,3.0889,3.0889,3.0889,3.0889,3.0889,3.0889,3.0889,3.0889,3.0889,3.0889,3.0889,3.0889,3.0889,3.0889,3.0509,3.0157,2.9804,2.9568,2.9213,2.8737,2.7633,2.7383,2.7142,2.6034,2.5668,2.5668,2.5423,2.5301,2.4687,2.2341,2.2584,2.3325,2.3201,2.4062,2.5056,2.5056,2.5056,2.5056,2.5056,2.5056,2.5056,2.5056,2.5056,2.5056,2.5056,2.5056,2.5056,2.5056,2.3084,2.2097,2.3076,2.209,2.1355,2.1109,2.1109,2.1109,2.1109,2.0862,2.0609,2.0609,2.0361,1.9973,1.9705,1.9328,1.9206,1.9078,1.9078,1.9078,1.9078,1.9078,1.9078,1.9078,1.9078,1.9078,1.9078,1.9078,1.9078,1.9078,1.9078,1.9078,1.9078,2.3106,2.3106,2.3845,2.6286,2.6892,2.7864,3.0274,3.0762,3.0889,3.0889,3.0889,3.0889,3.0889,3.0889,3.0889,3.0889,3.0889,3.0889,3.0889,3.0889,3.0889,3.0889,3.0889,3.0889,3.0889,3.0889,3.0889,3.0889,3.0889,3.0889,3.0889,3.0889,3.0889,3.0889,3.0889,3.0889,3.0889,3.0889,3.0889,3.0889,3.0889,3.0889,3.0889,3.0889,3.0889,3.0889,3.0889,3.0889,3.0889,3.0509,3.0157,2.9804,2.9568,2.9213,2.8984,2.8737,2.8737,2.8737,2.8489,2.8489,2.8122,2.7013,2.6771,2.6277,2.481,2.4564,2.444,2.3318,2.4062,2.5056,2.5056,2.5056,2.5056,2.5056,2.5056,2.5056,2.5056,2.5056,2.5056,2.5056,2.5056,2.5056,2.5056,2.4687,2.407,2.3201,2.2952,2.2341,2.1109,2.1109,2.1109,2.1109,2.1109,2.0856,2.0609,2.0609,2.0354,1.9979,1.9711,1.9328,1.9078,1.9078,1.9078,1.9078,1.9078,1.9078,1.9078,1.9078,1.9078,1.9078,1.9078,1.9078,1.9078,1.9078,1.9078,1.9078,2.5309,2.5309,2.5912,2.7727,2.8086,2.8692,3.0645,3.0889,3.0889,3.0889,3.0889,3.0889,3.0889,3.0889,3.0889,3.0889,3.0889,3.0889,3.0889,3.0889,3.0889,3.0889,3.0889,3.0889,3.0889,3.0889,3.0889,3.0889,3.0889,3.0889,3.0889,3.0889,3.0889,3.0889,3.0889,3.0889,3.0889,3.0889,3.0889,3.0889,3.0889,3.0889,3.0889,3.0889,3.0889,3.0889,3.0889,3.0889,3.0889,3.0509,3.0157,2.9804,2.9568,2.9213,2.8984,2.8984,2.8984,2.8984,2.8984,2.8984,2.8856,2.8241,2.8122,2.7753,2.6407,2.665,2.6892,2.5538,2.6277,2.7263,2.7263,2.7263,2.7263,2.7263,2.7263,2.7263,2.7263,2.7263,2.7263,2.7263,2.6529,2.6399,2.7142,2.5912,2.481,2.4193,2.3442,2.2459,2.1109,2.1109,2.1109,2.1109,2.1109,2.0982,2.0862,2.0862,2.0736,2.0361,2.01,1.9711,1.9322,1.9206,1.9078,1.9078,1.9078,1.9078,1.9078,1.9078,1.9078,1.9078,1.9078,1.9078,1.9078,1.9078,1.9078,1.9078]}]]